[[{"header":{"parameterUnit":"m.s-1","parameterCategory":1,"la1":30.6,"la2":29.2853,"lo1":-89.7004,"lo2":-87.6739,"dy":0.0162,"dx":0.0183,"nx":112,"ny":82,"refTime":"2024-04-14T18:00:00:Z","depth":0,"parameterNumber":2,"parameterNumberName":"U-component_of_WINDS"},"data":[0.0,0.0,0.0,0.0,0.0,0.0,0.0,0.0,0.0,0.0,0.0,0.0,0.0,0.0,0.0,0.0,0.0,0.0,0.0,0.0,0.0,0.0,0.0,0.0,0.0,0.0,0.0,0.0,0.0,0.0,0.0,0.0,0.0,0.0,0.0,0.0,0.0,0.0,0.0,0.0,0.0,0.0,0.0,0.0,0.0,0.0,0.0,0.0,0.0,0.0,0.0,0.0,0.0,0.0,0.0,0.0,0.0,0.0,0.0,0.0,0.0,0.0,0.0,0.0,0.0,0.0,0.0,0.0,0.0,0.0,0.0,0.0,0.0,0.0,0.0,0.0,0.0,0.0,0.0,0.0,0.0,0.0,0.0,0.0,0.0,0.0,0.0,0.0,0.0,0.0,-5.5111,-5.7154,-6.1811,-6.4719,-6.4685,-6.4375,-6.1883,-5.6336,0.0,0.0,0.0,0.0,0.0,0.0,0.0,0.0,0.0,0.0,0.0,0.0,0.0,0.0,0.0,0.0,0.0,0.0,0.0,0.0,0.0,0.0,0.0,0.0,0.0,0.0,0.0,0.0,0.0,0.0,0.0,0.0,0.0,0.0,0.0,0.0,0.0,0.0,0.0,0.0,0.0,0.0,0.0,0.0,0.0,0.0,0.0,0.0,0.0,0.0,0.0,0.0,0.0,0.0,0.0,0.0,0.0,0.0,0.0,0.0,0.0,0.0,0.0,0.0,0.0,0.0,0.0,0.0,0.0,0.0,0.0,0.0,0.0,0.0,0.0,0.0,0.0,0.0,0.0,0.0,0.0,0.0,0.0,0.0,0.0,0.0,0.0,0.0,0.0,0.0,0.0,0.0,0.0,0.0,0.0,0.0,0.0,0.0,0.0,0.0,0.0,0.0,0.0,0.0,-5.4686,-5.8694,-6.0993,-6.2245,-6.2205,-6.0526,-5.846,-5.6167,0.0,0.0,0.0,0.0,0.0,0.0,0.0,0.0,0.0,0.0,0.0,0.0,0.0,0.0,0.0,0.0,0.0,0.0,0.0,0.0,0.0,0.0,0.0,0.0,0.0,0.0,0.0,0.0,0.0,0.0,0.0,0.0,0.0,0.0,0.0,0.0,0.0,0.0,0.0,0.0,0.0,0.0,0.0,0.0,0.0,0.0,0.0,0.0,0.0,0.0,0.0,0.0,0.0,0.0,0.0,0.0,0.0,0.0,0.0,0.0,0.0,0.0,0.0,0.0,0.0,0.0,0.0,0.0,0.0,0.0,0.0,0.0,0.0,0.0,0.0,0.0,0.0,0.0,0.0,0.0,0.0,0.0,0.0,0.0,0.0,0.0,0.0,0.0,0.0,0.0,0.0,0.0,0.0,0.0,0.0,0.0,0.0,0.0,0.0,0.0,0.0,0.0,0.0,-5.3161,-5.5235,-6.0044,-6.0859,-6.1441,-6.2245,-6.0269,-5.8006,-5.5643,-5.5145,0.0,0.0,0.0,0.0,0.0,0.0,0.0,0.0,0.0,0.0,0.0,0.0,0.0,0.0,0.0,0.0,0.0,0.0,0.0,0.0,0.0,0.0,0.0,0.0,0.0,0.0,0.0,0.0,0.0,0.0,0.0,0.0,0.0,0.0,0.0,0.0,0.0,0.0,0.0,0.0,0.0,0.0,0.0,0.0,0.0,0.0,0.0,0.0,0.0,0.0,0.0,0.0,0.0,0.0,0.0,0.0,0.0,0.0,0.0,0.0,0.0,0.0,0.0,0.0,0.0,0.0,0.0,0.0,0.0,0.0,0.0,0.0,0.0,0.0,0.0,0.0,0.0,0.0,0.0,0.0,0.0,0.0,0.0,0.0,0.0,0.0,0.0,0.0,0.0,0.0,0.0,0.0,0.0,0.0,0.0,0.0,0.0,0.0,0.0,0.0,0.0,0.0,-5.4608,-5.595,-6.0336,-6.0431,-6.0685,-6.1788,-5.9844,-5.7473,-5.494,-5.3033,0.0,0.0,0.0,0.0,0.0,0.0,0.0,0.0,0.0,0.0,0.0,0.0,0.0,0.0,0.0,0.0,0.0,0.0,0.0,0.0,0.0,0.0,0.0,0.0,0.0,0.0,0.0,0.0,0.0,0.0,0.0,0.0,0.0,0.0,0.0,0.0,0.0,0.0,0.0,0.0,0.0,0.0,0.0,0.0,0.0,0.0,0.0,0.0,0.0,0.0,0.0,0.0,0.0,0.0,0.0,0.0,0.0,0.0,0.0,0.0,0.0,0.0,0.0,0.0,0.0,0.0,0.0,0.0,0.0,0.0,0.0,0.0,0.0,0.0,0.0,0.0,0.0,0.0,0.0,0.0,0.0,0.0,0.0,0.0,0.0,0.0,0.0,0.0,0.0,0.0,0.0,0.0,0.0,0.0,0.0,0.0,0.0,0.0,0.0,0.0,0.0,0.0,-5.4692,-5.6382,-5.884,-5.9039,-5.9039,-5.9172,-5.715,-5.5264,-5.3887,-5.1021,0.0,0.0,0.0,0.0,0.0,0.0,0.0,0.0,0.0,0.0,0.0,0.0,0.0,0.0,0.0,0.0,0.0,0.0,0.0,0.0,0.0,0.0,0.0,0.0,0.0,0.0,0.0,0.0,0.0,0.0,0.0,0.0,0.0,0.0,0.0,0.0,0.0,0.0,0.0,0.0,0.0,0.0,0.0,0.0,0.0,0.0,0.0,0.0,0.0,0.0,0.0,0.0,0.0,0.0,0.0,0.0,0.0,0.0,0.0,0.0,0.0,0.0,0.0,0.0,0.0,0.0,0.0,0.0,0.0,0.0,0.0,0.0,0.0,0.0,0.0,0.0,0.0,0.0,0.0,0.0,0.0,0.0,0.0,0.0,0.0,0.0,0.0,0.0,0.0,0.0,0.0,0.0,0.0,0.0,0.0,0.0,0.0,0.0,0.0,0.0,0.0,0.0,-5.3632,-5.5256,-5.7939,-5.8204,-5.8204,-5.8204,-5.7011,-5.5326,-5.3045,0.0,0.0,0.0,0.0,0.0,0.0,0.0,0.0,0.0,0.0,0.0,0.0,0.0,0.0,0.0,0.0,0.0,0.0,0.0,0.0,0.0,0.0,0.0,0.0,0.0,0.0,0.0,0.0,0.0,0.0,0.0,0.0,0.0,0.0,0.0,0.0,0.0,0.0,0.0,0.0,0.0,0.0,0.0,0.0,0.0,0.0,0.0,0.0,0.0,0.0,0.0,0.0,0.0,0.0,0.0,0.0,0.0,0.0,0.0,0.0,0.0,0.0,0.0,0.0,0.0,0.0,0.0,0.0,0.0,0.0,0.0,0.0,0.0,0.0,0.0,0.0,0.0,0.0,0.0,0.0,0.0,0.0,0.0,0.0,0.0,0.0,0.0,0.0,0.0,0.0,0.0,0.0,0.0,0.0,0.0,0.0,0.0,0.0,0.0,0.0,0.0,0.0,-5.1746,-5.3036,-5.4626,-5.6879,-5.7111,-5.7111,-5.7111,-5.5786,-5.4166,-5.221,0.0,0.0,0.0,0.0,0.0,0.0,0.0,0.0,0.0,0.0,0.0,0.0,0.0,0.0,0.0,0.0,0.0,0.0,0.0,0.0,0.0,0.0,0.0,0.0,0.0,0.0,0.0,0.0,0.0,0.0,0.0,0.0,0.0,0.0,0.0,0.0,0.0,0.0,0.0,0.0,0.0,0.0,0.0,0.0,0.0,0.0,0.0,0.0,0.0,0.0,0.0,0.0,0.0,0.0,0.0,0.0,0.0,0.0,0.0,0.0,0.0,0.0,0.0,0.0,0.0,0.0,0.0,0.0,0.0,0.0,0.0,0.0,0.0,0.0,0.0,0.0,0.0,0.0,0.0,0.0,0.0,0.0,0.0,0.0,0.0,0.0,0.0,0.0,0.0,0.0,0.0,0.0,0.0,0.0,0.0,0.0,0.0,0.0,0.0,0.0,0.0,0.0,-5.1082,-5.3132,-5.4754,-5.5483,-5.5582,-5.5582,-5.5582,-5.2937,-5.1315,0.0,0.0,0.0,0.0,0.0,0.0,0.0,0.0,0.0,0.0,0.0,0.0,0.0,0.0,0.0,0.0,0.0,0.0,0.0,0.0,0.0,0.0,0.0,0.0,0.0,0.0,0.0,0.0,0.0,0.0,0.0,0.0,0.0,0.0,0.0,0.0,0.0,0.0,0.0,0.0,0.0,0.0,0.0,0.0,0.0,0.0,0.0,0.0,0.0,0.0,0.0,0.0,0.0,0.0,0.0,0.0,0.0,0.0,0.0,0.0,0.0,0.0,0.0,0.0,0.0,0.0,0.0,0.0,0.0,0.0,0.0,0.0,0.0,0.0,0.0,0.0,0.0,0.0,0.0,0.0,0.0,0.0,0.0,0.0,0.0,0.0,0.0,0.0,0.0,0.0,0.0,0.0,0.0,0.0,0.0,0.0,0.0,0.0,0.0,0.0,0.0,0.0,0.0,-4.9556,-5.1242,-5.2365,-5.2747,-5.3622,-5.3989,-5.3427,-5.2587,-5.1612,-5.0585,0.0,0.0,0.0,0.0,0.0,0.0,0.0,0.0,0.0,0.0,0.0,0.0,0.0,0.0,0.0,0.0,0.0,0.0,0.0,0.0,0.0,0.0,0.0,0.0,0.0,0.0,0.0,0.0,0.0,0.0,0.0,0.0,0.0,0.0,0.0,0.0,0.0,0.0,0.0,0.0,0.0,0.0,0.0,0.0,0.0,0.0,0.0,0.0,0.0,0.0,0.0,0.0,0.0,0.0,0.0,0.0,0.0,0.0,0.0,0.0,0.0,0.0,0.0,0.0,0.0,0.0,0.0,0.0,0.0,0.0,0.0,0.0,0.0,0.0,0.0,0.0,0.0,0.0,0.0,0.0,0.0,0.0,0.0,0.0,0.0,0.0,0.0,0.0,0.0,0.0,0.0,0.0,0.0,0.0,0.0,0.0,0.0,0.0,0.0,0.0,0.0,0.0,-4.8372,-4.9866,-5.0874,-5.1287,-5.2059,-5.2352,-5.1901,-5.1048,-5.0029,-4.889,0.0,0.0,0.0,0.0,0.0,0.0,0.0,0.0,0.0,0.0,0.0,0.0,0.0,0.0,0.0,0.0,0.0,0.0,0.0,0.0,0.0,0.0,0.0,0.0,0.0,0.0,0.0,0.0,0.0,0.0,0.0,0.0,0.0,0.0,0.0,0.0,0.0,0.0,0.0,0.0,0.0,0.0,0.0,0.0,0.0,0.0,0.0,0.0,0.0,0.0,0.0,0.0,0.0,0.0,0.0,0.0,0.0,0.0,0.0,0.0,0.0,0.0,0.0,0.0,0.0,0.0,0.0,0.0,0.0,0.0,0.0,0.0,0.0,0.0,0.0,0.0,0.0,0.0,0.0,0.0,0.0,0.0,0.0,0.0,0.0,0.0,0.0,0.0,0.0,0.0,0.0,0.0,0.0,0.0,0.0,0.0,0.0,0.0,0.0,0.0,0.0,0.0,-4.7316,-4.8639,-4.967,-5.0299,-5.0443,-5.0515,-5.0538,-4.8716,-4.7366,-4.6866,0.0,0.0,0.0,0.0,0.0,0.0,0.0,0.0,0.0,0.0,0.0,0.0,0.0,0.0,0.0,0.0,0.0,0.0,0.0,0.0,0.0,0.0,0.0,0.0,0.0,0.0,0.0,0.0,0.0,0.0,0.0,0.0,0.0,0.0,0.0,0.0,0.0,0.0,0.0,0.0,0.0,0.0,0.0,0.0,0.0,0.0,0.0,0.0,0.0,0.0,0.0,0.0,0.0,0.0,0.0,0.0,0.0,0.0,0.0,0.0,-5.5261,-5.5734,0.0,0.0,0.0,0.0,0.0,0.0,0.0,0.0,0.0,0.0,0.0,0.0,0.0,0.0,0.0,0.0,0.0,0.0,0.0,0.0,0.0,0.0,0.0,0.0,0.0,0.0,0.0,0.0,0.0,0.0,0.0,0.0,0.0,0.0,0.0,0.0,0.0,0.0,0.0,0.0,-4.5549,-4.593,-4.6139,-4.6466,-4.6956,-4.7494,-4.7978,-4.7022,-4.6604,-4.7042,-4.5383,0.0,0.0,0.0,0.0,0.0,0.0,0.0,0.0,0.0,0.0,0.0,0.0,0.0,0.0,0.0,0.0,0.0,0.0,0.0,0.0,0.0,0.0,0.0,0.0,0.0,0.0,0.0,0.0,0.0,0.0,0.0,0.0,0.0,0.0,0.0,0.0,0.0,0.0,0.0,0.0,0.0,0.0,0.0,0.0,0.0,0.0,0.0,0.0,0.0,0.0,0.0,0.0,0.0,0.0,0.0,0.0,0.0,0.0,0.0,-5.5423,-5.5336,0.0,0.0,0.0,0.0,0.0,0.0,0.0,0.0,0.0,0.0,0.0,0.0,0.0,0.0,0.0,0.0,0.0,0.0,0.0,0.0,0.0,0.0,0.0,0.0,0.0,0.0,0.0,0.0,0.0,0.0,0.0,0.0,0.0,0.0,0.0,0.0,0.0,0.0,0.0,0.0,-4.3848,-4.4244,-4.4531,-4.4983,-4.5316,-4.5642,-4.5973,-4.5324,-4.4947,-4.4978,-4.4004,0.0,0.0,0.0,0.0,0.0,0.0,0.0,0.0,0.0,0.0,0.0,0.0,0.0,0.0,0.0,0.0,0.0,0.0,0.0,0.0,0.0,0.0,0.0,0.0,0.0,0.0,0.0,0.0,0.0,0.0,0.0,0.0,0.0,0.0,0.0,0.0,0.0,0.0,0.0,0.0,0.0,0.0,0.0,0.0,0.0,0.0,0.0,0.0,0.0,0.0,0.0,0.0,0.0,-5.8295,-5.8483,-5.8906,-5.7991,-5.7322,-5.6897,-5.6116,-5.5291,-5.4559,-5.4396,0.0,0.0,0.0,0.0,0.0,0.0,0.0,0.0,0.0,0.0,0.0,0.0,0.0,0.0,0.0,0.0,0.0,0.0,0.0,0.0,0.0,0.0,-4.6083,-4.6602,-4.6275,-4.556,-4.4471,0.0,0.0,0.0,0.0,0.0,0.0,0.0,0.0,0.0,0.0,0.0,-4.2508,-4.3078,-4.3637,-4.4196,-4.4255,-4.4284,-4.4402,-4.3784,-4.3225,-4.2772,-4.2537,-4.2228,0.0,0.0,0.0,0.0,0.0,0.0,0.0,0.0,0.0,0.0,0.0,0.0,0.0,0.0,0.0,0.0,0.0,0.0,0.0,0.0,0.0,0.0,0.0,0.0,0.0,0.0,0.0,0.0,0.0,0.0,0.0,0.0,-5.6777,-5.6509,0.0,0.0,0.0,0.0,0.0,0.0,0.0,0.0,0.0,0.0,0.0,0.0,0.0,-5.6482,-5.6886,-5.7458,-5.7549,-5.7157,-5.7677,-5.7707,-5.7226,-5.653,-5.6509,-5.6981,-5.6233,0.0,-5.3969,-5.3205,0.0,0.0,0.0,0.0,0.0,0.0,0.0,0.0,0.0,0.0,0.0,0.0,0.0,0.0,0.0,0.0,0.0,0.0,0.0,0.0,0.0,0.0,-4.4938,-4.453,-4.4355,-4.4239,-4.4064,-4.4575,-4.4882,-4.4406,-4.2503,-4.1076,0.0,0.0,0.0,0.0,0.0,0.0,-4.2087,-4.2262,-4.232,-4.2407,-4.2436,-4.264,-4.3164,-4.264,-4.2495,-4.2931,-4.1913,-4.1598,-4.2262,-4.1741,0.0,0.0,0.0,0.0,0.0,0.0,0.0,0.0,0.0,0.0,0.0,0.0,0.0,0.0,0.0,0.0,0.0,0.0,0.0,0.0,0.0,0.0,0.0,0.0,0.0,0.0,0.0,0.0,0.0,-5.639,-5.6905,-5.5709,-5.6217,-5.6118,0.0,0.0,0.0,0.0,0.0,0.0,0.0,0.0,0.0,-5.6254,-5.6889,-5.7316,-5.7474,-5.8131,-5.8752,-5.92,-5.9334,-5.9402,-5.9547,-5.9029,-5.8618,-5.8228,-5.7547,-5.6466,-5.5117,-5.3522,-5.2244,-5.1166,0.0,0.0,0.0,0.0,-4.8069,-4.7529,-4.8147,-4.7894,-4.7339,-4.7608,0.0,0.0,0.0,0.0,0.0,0.0,0.0,-4.5508,-4.504,-4.5156,-4.5372,-4.5111,-4.5053,-4.4937,-4.4589,-4.4471,-4.4174,-4.3387,-4.1971,-4.0831,-4.0364,-3.9439,0.0,0.0,0.0,-4.0641,-4.0931,-4.1628,-4.2092,-4.2092,-4.2092,-4.2208,-4.2469,-4.2237,-4.2063,-4.1947,-4.1395,-4.0942,-4.0625,-4.0654,-4.0577,0.0,0.0,0.0,0.0,0.0,0.0,0.0,0.0,0.0,0.0,0.0,0.0,0.0,0.0,0.0,0.0,0.0,0.0,0.0,0.0,0.0,0.0,0.0,0.0,0.0,0.0,0.0,0.0,-5.6504,-5.7151,-5.5345,-5.6631,-5.6724,0.0,0.0,0.0,0.0,0.0,0.0,-5.567,-5.6131,-5.672,-5.7363,-5.8016,-5.8491,-5.8737,-5.9296,-6.0037,-6.1072,-6.0786,-6.0965,-6.1495,-6.1028,-6.0236,-5.9207,-5.8532,-5.7533,-5.6153,-5.3968,-5.2732,-5.2055,-4.9994,-4.8923,-4.8641,-4.8864,-4.8313,-4.7629,-4.8565,-4.8104,-4.7184,-4.7155,-4.6314,-4.5259,-4.4574,0.0,0.0,0.0,0.0,-4.4662,-4.4977,-4.5063,-4.5063,-4.5063,-4.4994,-4.4735,-4.4158,-4.36,-4.3041,-4.2415,-4.1657,-4.0786,-3.9857,-3.9131,0.0,-3.8928,-3.9741,-4.0408,-4.0583,-4.1482,-4.2092,-4.2092,-4.2092,-4.2092,-4.2092,-4.1947,-4.1628,-4.1134,-4.0931,-4.0408,-3.9479,-3.9857,-3.9828,-3.9218,0.0,0.0,0.0,0.0,0.0,0.0,0.0,0.0,0.0,0.0,0.0,0.0,0.0,0.0,0.0,0.0,0.0,0.0,0.0,0.0,0.0,0.0,0.0,0.0,0.0,0.0,0.0,0.0,0.0,-5.6482,-5.8629,0.0,0.0,0.0,0.0,-5.5854,-5.5884,-5.6058,-5.6532,-5.7131,-5.7862,-5.86,-5.9243,-6.0063,-6.0992,-6.105,-6.1108,-6.1226,-6.1166,-6.1166,-6.1195,-6.0556,-5.9917,-5.9277,-5.8609,-5.7592,-5.6226,-5.3925,-5.2868,-5.2447,-5.0015,-4.9345,-4.9554,-4.8517,-4.8114,-4.8038,-4.7893,-4.7393,-4.679,-4.6681,-4.5344,-4.359,-4.2925,-4.2685,0.0,0.0,-4.3155,-4.3515,-4.2934,-4.2796,-4.2888,-4.2888,-4.2472,-4.2011,-4.1727,-4.1367,-4.1411,-4.268,-4.1947,-4.1076,-4.1018,0.0,-4.0205,-4.0844,-4.1018,-4.1279,-4.1918,-4.2063,-4.2092,-4.2092,-4.2092,-4.2092,-4.2092,-4.1512,-4.1134,-4.1105,-4.0495,-4.0118,-4.006,-4.0089,-3.9828,-3.9218,-3.9247,0.0,0.0,0.0,0.0,0.0,0.0,0.0,0.0,0.0,0.0,0.0,0.0,0.0,0.0,0.0,0.0,0.0,0.0,0.0,0.0,0.0,0.0,0.0,0.0,0.0,0.0,0.0,0.0,-5.9501,-6.1157,0.0,-5.8614,-5.7874,-5.7446,-5.7083,-5.7065,-5.7555,-5.8532,-5.9008,-5.9596,-6.0266,-6.0528,-6.0848,-6.1193,-6.1193,-6.1193,-6.1193,-6.0758,-6.0555,-6.0526,-5.9916,-5.9045,-5.7971,-5.7361,-5.6578,-5.5591,-5.3547,-5.2683,-5.2485,-5.0767,-4.9708,-4.9073,-4.9106,-4.8046,-4.667,-4.7405,-4.6414,-4.465,-4.4171,-4.3277,-4.2306,-4.2086,-4.2279,-4.2601,-4.2601,-4.307,-4.3484,-4.3093,-4.2763,-4.2442,-4.2273,-4.1808,-4.126,-4.0768,-4.054,-4.0474,-4.0546,-4.0124,-3.9732,-3.9732,-3.9198,-3.8833,-3.9086,-3.9451,-3.9984,-4.0726,-4.118,-4.1577,-4.2051,-4.2092,-4.1918,-4.1482,-4.1221,-4.0757,-3.9915,-3.9654,-3.9334,-3.8899,-3.887,-3.8783,-3.8551,-3.817,-3.8055,0.0,0.0,0.0,0.0,0.0,0.0,0.0,0.0,0.0,0.0,0.0,0.0,0.0,0.0,0.0,0.0,0.0,0.0,0.0,0.0,0.0,0.0,0.0,0.0,0.0,-5.8594,-6.0505,-6.1253,-6.3144,-6.3297,-6.0748,-6.0257,-5.9732,-5.8879,-5.8863,-5.9247,-6.018,-6.0441,-6.0729,-6.1193,-6.1193,-6.1193,-6.1193,-6.1193,-6.1013,-6.0652,-6.022,-5.9724,-5.9194,-5.8594,-5.7594,-5.6337,-5.5765,-5.4966,-5.4051,-5.2677,-5.1704,-5.1047,-5.0522,-4.9416,-4.8252,-4.8481,-4.7332,-4.5709,-4.6328,-4.5254,-4.3423,-4.2746,-4.1957,-4.126,-4.126,-4.1531,-4.1822,-4.1538,-4.2052,-4.2544,-4.1871,-4.1448,-4.1099,-4.0769,-4.0188,-3.9607,-3.9142,-3.9108,-3.9002,-3.844,-3.8708,-3.9074,-3.9074,-3.8675,-3.8401,-3.8401,-3.8757,-3.9247,-3.9702,-4.0122,-4.0589,-4.1043,-4.1198,-4.0984,-4.0371,-4.0114,-3.9613,-3.8625,-3.81,-3.7672,-3.7282,-3.7091,-3.7053,-3.7177,-3.6877,-3.695,-3.7309,0.0,0.0,0.0,0.0,0.0,0.0,0.0,0.0,0.0,0.0,0.0,0.0,0.0,0.0,0.0,0.0,0.0,0.0,0.0,0.0,0.0,0.0,0.0,-5.6483,-6.0236,-6.2581,-6.1699,-6.4496,-6.5178,-6.2051,-6.2625,-6.2645,-6.1367,-6.1251,-6.1222,-6.1222,-6.1222,-6.1193,-6.1193,-6.1193,-6.1133,-6.1133,-6.1133,-6.0592,-5.9527,-5.9498,-5.8693,-5.7238,-5.6575,-5.5695,-5.4533,-5.3868,-5.2899,-5.1708,-5.1155,-4.9828,-4.8249,-4.9052,-4.8476,-4.7169,-4.6565,-4.5957,-4.5348,-4.4642,-4.3933,-4.3183,-4.2543,-4.1466,-4.0383,-4.0383,-4.0383,-4.023,-3.944,-3.999,-4.0535,-3.918,-3.8774,-3.862,-3.8108,-3.7497,-3.7015,-3.6756,-3.6922,-3.7015,-3.6709,-3.7997,-3.9121,-3.9121,-3.9121,-3.9121,-3.9121,-3.9121,0.0,-3.9166,-3.9166,-3.9166,-3.921,-3.9458,-3.9344,-3.873,-3.8112,-3.7634,-3.7234,-3.5876,-3.5217,-3.5477,-3.4906,-3.4737,-3.5034,-3.5382,-3.5561,-3.5561,0.0,0.0,0.0,0.0,0.0,0.0,0.0,0.0,0.0,0.0,0.0,0.0,0.0,0.0,0.0,0.0,0.0,0.0,0.0,0.0,0.0,-5.5816,-5.8912,-6.0211,-6.2102,-6.392,-6.5551,-6.6973,-6.7013,-6.492,-6.4938,-6.4444,-6.2703,-6.2122,-6.1832,-6.1832,-6.1425,-6.1193,-6.1193,-6.047,-6.0014,-6.0014,-5.9307,-5.8585,-5.7917,-5.7444,-5.6731,-5.5878,-5.486,-5.3948,-5.3201,-5.2151,-5.1294,-5.0409,-4.9385,-4.8267,-4.7295,-4.7723,-4.7124,-4.5979,-4.5813,-4.4974,-4.3778,-4.2618,-4.1743,-4.1199,-4.1041,-4.0425,-3.9834,-3.9834,-3.9834,-3.976,-3.9555,-3.9566,-3.9527,-3.8974,-3.8395,-3.7823,-3.7526,-3.6998,-3.6593,-3.6499,-3.6546,-3.642,-3.5923,-3.6569,-3.7268,-3.7638,-3.7684,-3.7684,-3.7684,-3.7684,-3.7867,-3.8413,-3.8459,-3.8657,-3.9166,-3.9254,-3.8891,-3.7857,-3.7612,-3.692,-3.5568,-3.512,-3.4917,-3.4995,-3.4459,-3.4202,-3.4233,-3.4765,-3.4726,0.0,0.0,0.0,0.0,0.0,0.0,0.0,0.0,0.0,0.0,0.0,0.0,0.0,0.0,0.0,0.0,0.0,0.0,0.0,0.0,0.0,0.0,-5.8392,-6.149,-6.3476,-6.4094,-6.5114,-6.7327,-6.7969,-6.7844,-6.6825,-6.6244,-6.5257,-6.3603,-6.2616,-6.1977,-6.1745,-6.0976,-6.0531,-6.0531,-5.9493,-5.8996,-5.8996,-5.8181,-5.7374,-5.6604,-5.5975,-5.5053,-5.3781,-5.2836,-5.1944,-5.1107,-4.9975,-4.9245,-4.8757,-4.7379,-4.6303,-4.5715,0.0,0.0,0.0,0.0,-4.3214,-4.2342,-4.129,-4.0697,-4.0383,-4.0148,-3.9703,-3.9233,-3.9233,-3.9233,-3.9133,-3.8709,-3.8777,-3.8843,-3.8018,-3.7599,-3.7329,-3.6933,-3.6631,-3.6405,-3.6405,-3.6405,-3.6329,-3.5956,-3.6132,0.0,-3.6781,-3.6828,-3.6828,-3.6828,-3.6828,-3.6968,-3.7387,-3.7479,-3.7592,-3.7978,-3.8088,-3.7764,-3.6823,-3.6577,0.0,0.0,0.0,-3.345,-3.329,-3.3105,0.0,0.0,0.0,-3.3834,-3.3322,-3.3239,0.0,0.0,-3.405,-3.3919,0.0,0.0,0.0,0.0,0.0,0.0,0.0,0.0,0.0,0.0,0.0,0.0,0.0,0.0,0.0,0.0,-6.1223,-6.3415,-6.6036,-6.585,-6.6073,-6.782,-6.7928,-6.7841,-6.7783,-6.6593,-6.5315,-6.4062,-6.2695,-6.1678,-6.1157,-6.0071,0.0,0.0,0.0,-5.7897,-5.7897,-5.7284,-5.645,-5.5414,-5.4888,-5.3538,-5.1492,-5.0943,-5.0054,-4.893,-4.7754,-4.7096,-4.6917,-4.5323,-4.4331,-4.3782,-4.441,-4.3935,-4.2709,-4.169,-4.1272,-4.1141,-4.0592,0.0,0.0,-3.9651,-3.9102,-3.8632,-3.8632,-3.8559,-3.8361,-3.7402,-3.7826,-3.8219,-3.6799,-3.6757,-3.696,-3.6531,-3.6405,-3.6405,-3.6405,-3.6405,-3.638,-3.6329,-3.6355,-3.638,-3.6329,-3.6355,-3.6405,-3.6405,-3.6405,-3.6405,-3.6405,-3.6405,-3.638,-3.6329,-3.6496,0.0,-3.5805,-3.5299,-3.4832,-3.4415,-3.2701,-3.1544,-3.1159,-3.1493,-3.1877,-3.2306,-3.2692,-3.2925,-3.295,-3.2742,-3.268,-3.2655,-3.2372,-3.2481,0.0,0.0,0.0,0.0,0.0,0.0,0.0,0.0,0.0,0.0,0.0,0.0,0.0,0.0,0.0,-5.8929,-6.1086,-6.3461,-6.606,-6.563,-6.5961,-6.8334,-6.8189,-6.7667,-6.7115,-6.5925,-6.4851,-6.4033,-6.2073,-6.0864,-6.075,-5.9214,-5.8404,-5.8404,-5.7414,-5.6898,-5.6898,-5.5492,-5.4496,-5.3854,-5.3249,0.0,-5.0917,-5.0342,-4.9453,-4.8303,-4.7153,-4.6107,-4.5111,-4.4382,-4.3494,-4.2499,-4.218,-4.1894,-4.1611,-4.1402,-4.101,-4.0566,-4.0461,-3.9808,-3.9024,-3.8919,-3.8501,-3.8057,-3.8057,-3.7918,0.0,-3.7485,-3.7262,-3.7035,-3.6738,-3.6622,-3.6531,-3.643,-3.6405,-3.6405,-3.6405,-3.6405,-3.6279,-3.578,-3.6056,-3.6279,-3.578,-3.6081,-3.6405,-3.6405,-3.6405,-3.6405,-3.6405,-3.6405,-3.6182,-3.5708,-3.6128,-3.6049,-3.5022,-3.471,-3.412,-3.3121,-3.2109,-3.1314,-3.0811,-3.1264,-3.1413,-3.1158,-3.1568,-3.184,-3.1864,-3.2265,-3.2487,-3.2487,-3.2407,-3.2185,0.0,0.0,0.0,0.0,0.0,0.0,0.0,0.0,0.0,0.0,0.0,-5.5323,-5.5818,0.0,-6.0233,-6.1997,-6.3517,-6.5003,-6.6416,-6.6549,-6.7028,-6.8625,-6.7696,-6.7028,-6.7347,-6.5635,-6.4386,-6.4004,-6.2035,-6.0897,-6.0897,-5.9102,-5.8088,-5.8088,-5.6666,-5.5842,-5.5842,-5.4472,-5.3661,-5.34,-5.2485,-5.1439,-5.0342,-5.0028,-4.9113,-4.7702,-4.6839,-4.582,-4.4589,-4.3493,-4.2526,-4.1716,-4.1428,-4.1324,-4.1272,-4.0984,-4.0671,-4.0331,-3.9756,-3.9181,-3.8658,-3.8397,-3.8135,-3.7854,-3.7762,-3.7598,-3.7459,-3.7155,-3.6922,-3.6662,-3.6593,-3.6499,-3.6405,-3.6405,-3.6157,-3.5956,-3.5956,-3.573,-3.5554,-3.5508,-3.5755,-3.5956,-3.5956,-3.6182,-3.6405,-3.6405,-3.6405,-3.6358,-3.6241,-3.6193,-3.6021,-3.5605,-3.5829,-3.5655,-3.4835,-3.4198,-3.3316,-3.2161,-3.1712,-3.1374,-3.1104,-3.1104,-3.1171,-3.1196,-3.1171,-3.1146,-3.1213,-3.1332,-3.1394,-3.1394,-3.1308,-3.1376,0.0,0.0,0.0,0.0,0.0,0.0,0.0,0.0,-5.3804,-5.501,-5.6574,-5.8158,-5.9526,-6.1204,-6.308,-6.5266,-6.5991,-6.651,-6.7036,-6.7434,-6.7928,-6.8567,-6.6946,-6.6215,-6.7405,-6.5094,-6.3583,-6.3801,-6.1997,-6.0802,-6.0621,-5.8808,-5.7734,-5.7542,-5.5908,-5.5046,-5.4942,-5.3896,-5.3347,-5.3217,-5.2119,-5.0995,-4.9897,-4.9897,-4.8904,-4.7127,-4.6212,-4.5271,-4.4278,-4.2657,-4.1742,-4.1324,-4.1324,-4.1324,-4.1246,-4.0644,-4.0357,-4.0122,-3.9076,-3.8632,-3.8475,-3.8057,-3.79,-3.7854,-3.7644,-3.7505,-3.732,-3.6922,-3.6709,-3.6593,-3.6452,-3.6405,-3.6405,-3.6405,-3.5956,-3.5508,-3.5508,-3.5056,-3.4806,-3.5257,-3.5433,-3.5633,-3.6132,-3.6329,-3.6405,-3.6405,-3.6358,-3.6241,-3.6003,-3.5955,-3.5787,-3.5473,-3.5547,-3.5302,-3.4617,-3.3759,-3.2803,-3.1614,-3.1541,-3.1492,-3.1394,-3.102,-3.0922,-3.1143,-3.094,-3.0768,-3.0646,-3.0535,-3.05,-3.05,-3.0097,-3.0368,-5.1605,-5.0734,-5.0913,-5.3114,-5.3354,-5.4431,0.0,0.0,-5.8456,-6.0301,-6.1379,-6.1965,-6.214,-6.3036,-6.4246,-6.5606,-6.5896,-6.636,-6.7609,-6.7318,-6.7231,-6.7899,-6.6462,-6.5536,-6.6056,-6.3501,-6.2136,-6.3134,-6.1093,-5.9369,-5.8494,-5.7414,-5.634,-5.5472,-5.5232,-5.4837,-5.4314,-5.3687,-5.3138,-5.2589,-5.191,-5.0995,-4.9897,-4.9897,-4.8669,-4.6447,-4.433,-4.3337,-4.3127,-4.1925,-4.1376,-4.1324,-4.1324,-4.1324,-4.1246,-4.0644,-4.0122,-3.9599,-3.8945,-3.8397,-3.7978,-3.7926,-3.79,-3.79,-3.7854,-3.7505,-3.7108,-3.7062,-3.6781,-3.6452,-3.6405,-3.6405,-3.6405,-3.6405,-3.5956,-3.5508,-3.5508,-3.5056,-3.4751,-3.4756,-3.5157,-3.5508,-3.5583,-3.6031,-3.6405,-3.6405,-3.6193,-3.6003,-3.6003,-3.5764,-3.5448,-3.4957,-3.5325,-3.5108,-3.3847,-3.3606,-3.3026,-3.1781,-3.1665,-3.1448,-3.0989,-3.0917,-3.0459,-2.9567,-3.0435,-3.0628,-3.017,-3.0652,-3.0826,-3.0802,-2.9821,-2.9453,-5.3942,-5.3324,-5.3384,0.0,-5.5718,-5.7393,-6.0266,-6.0484,-6.0499,-6.2144,-6.3589,-6.4491,-6.4027,-6.5205,-6.6447,0.0,-6.7057,-6.726,-6.7812,-6.6758,-6.5822,-6.5363,-6.3555,-6.3038,-6.4822,-6.3192,-6.1819,-6.126,-5.997,-5.8947,-5.8115,-5.7157,-5.6405,-5.5973,-5.5063,-5.4445,-5.421,-5.3321,-5.2563,-5.1962,-5.1387,-5.0342,-4.8904,-4.8904,-4.7649,-4.5375,-4.3729,-4.284,-4.2474,-4.1638,-4.1324,-4.1324,-4.1324,-4.1115,-4.0723,-4.0148,-3.9808,-3.9468,-3.8553,-3.8083,-3.79,-3.79,-3.79,-3.7854,-3.7716,-3.7413,-3.7062,-3.6922,-3.664,-3.6405,-3.6405,-3.6405,-3.6405,-3.6405,-3.5705,-3.5031,-3.5031,-3.4374,-3.3947,-3.46,-3.465,-3.4901,-3.5855,-3.5956,-3.6006,-3.6355,-3.631,-3.6146,-3.5812,-3.5668,-3.5378,-3.4871,-3.4702,-3.4436,-3.3882,-3.3303,-3.2726,-3.2178,-3.1597,-3.1139,-3.0922,-3.0278,-2.9749,-2.9316,-2.9436,-2.9388,-2.9172,-2.9388,-2.9484,-2.9484,-2.9051,-2.8835,-5.4341,0.0,0.0,-5.5568,-5.7693,-5.9877,-6.0715,-6.1496,-6.2342,-6.3415,-6.4826,-6.5782,-6.556,-6.6651,-6.7791,-6.8207,-6.8053,-6.7936,-6.8003,-6.6547,-6.507,-6.405,-6.1991,-6.1296,-6.2942,-6.208,-6.0941,-5.9755,-5.9367,-5.8712,-5.7734,-5.7028,-5.6444,-5.6209,-5.4866,-5.4131,-5.3975,-5.2981,-5.2119,-5.1361,-5.0969,-4.9949,-4.8407,-4.7937,-4.663,-4.467,-4.352,-4.2709,-4.2159,-4.1559,-4.1324,-4.1298,-4.1141,-4.0801,-4.0331,-3.9625,-3.9364,-3.9233,-3.824,-3.79,-3.79,-3.79,-3.79,-3.7854,-3.7644,-3.7413,-3.7155,-3.6922,-3.664,-3.6452,-3.6405,-3.6304,-3.6132,-3.6132,-3.5303,-3.45,-3.45,-3.3746,-3.3319,-3.4123,-3.4073,-3.4274,-3.5525,-3.5604,-3.5633,-3.6081,-3.6304,-3.6166,-3.5471,-3.5134,-3.4846,-3.4607,-3.4222,-3.3982,-3.3982,-3.331,-3.2803,-3.2515,-3.1625,-3.0995,-3.0663,-2.9773,-2.922,-2.9076,-2.8859,-2.8739,-2.8739,-2.8739,-2.8739,-2.8715,-2.857,-2.8522,-5.1349,0.0,-5.47,-5.6555,-5.9069,-6.1403,-6.269,-6.3712,-6.4515,-6.486,-6.5257,-6.5792,-6.6658,-6.6883,-6.745,-6.8969,-6.8477,-6.8003,-6.8335,-6.6963,-6.5657,-6.499,-6.2978,-6.1252,-6.0124,-5.9441,-5.9082,-5.9146,-5.9388,-5.8683,-5.6769,-5.6639,-5.6144,-5.5165,-5.4524,-5.3949,-5.3426,-5.2798,-5.1936,-5.0812,-5.0812,-5.0185,-4.9008,-4.731,-4.5898,-4.4696,-4.352,-4.2709,-4.2159,-4.1559,-4.1324,-4.1272,-4.0671,-4.0435,-4.0278,-3.9155,-3.8736,-3.8658,-3.8109,-3.79,-3.79,-3.79,-3.79,-3.79,-3.79,-3.7716,-3.7413,-3.7155,-3.6922,-3.6662,-3.6452,-3.5981,-3.5533,-3.5533,-3.4726,-3.3922,-3.3922,-3.347,-3.3136,-3.3162,-3.3545,-3.3922,-3.3972,-3.4806,-3.5508,-3.5508,-3.6031,-3.6041,-3.4955,-3.3973,-3.3525,-3.3958,-3.4006,-3.3982,-3.3982,-3.3958,-3.3526,-3.2563,-3.1961,-3.1235,-3.0158,-2.9581,-2.9051,-2.8546,-2.9027,-2.9268,-2.9268,-2.9268,-2.9268,-2.9268,-2.8739,-2.8522,-5.2965,0.0,-5.6705,-5.9159,-6.0775,-6.2091,-6.3408,-6.3948,-6.4278,-6.4573,-6.4778,-6.471,-6.4403,-6.5015,-6.5685,-6.5996,-6.6925,-6.756,-6.74,-6.6297,-6.4793,-6.2972,-6.1421,0.0,0.0,0.0,-5.8472,-5.7091,-5.7759,-5.7461,-5.567,-5.5604,-5.5472,-5.5099,-5.4158,-5.3583,-5.34,-5.204,-5.0969,-5.0185,-4.8643,-4.7519,-4.6761,-4.5767,-4.4696,-4.3598,-4.3206,-4.2474,-4.1585,-4.1402,-4.1324,-4.1246,-4.0644,-4.02,-3.9782,-3.8998,-3.8475,-3.8135,-3.7978,-3.79,-3.79,-3.79,-3.79,-3.79,-3.79,-3.7716,-3.7505,-3.7413,-3.7062,-3.6662,-3.6615,-3.6049,-3.5508,-3.5508,-3.4655,-3.3897,-3.3897,-3.347,-3.3237,-3.3545,-3.347,-3.3596,-3.4324,-3.4705,-3.5253,-3.5981,-3.565,-3.5194,-3.4834,-3.3924,-3.3356,-3.3525,-3.3549,-3.3669,-3.3958,-3.3741,-3.3525,-3.3478,-3.2346,-3.1404,-3.0639,-2.9773,-2.9051,-2.8522,-2.8691,-2.8787,-2.8787,-2.8787,-2.8787,-2.8763,-2.8595,-2.8522,-5.4491,-5.6316,-5.8411,-6.0864,-6.1972,-6.266,-6.3468,-6.3827,-6.4009,-6.413,-6.3743,-6.3357,-6.3059,-6.2997,-6.3231,-6.3936,-6.4861,-6.5664,-6.6166,-6.5044,-6.3529,-6.1813,-6.0066,-5.8329,0.0,0.0,0.0,-5.573,-5.6598,-5.6571,-5.5191,-5.5099,-5.5099,-5.5099,-5.4001,-5.3295,-5.3086,-5.1544,-5.0289,-4.927,-4.7362,-4.6186,-4.5555,-4.5009,-4.4121,-4.3023,-4.2814,-4.2186,-4.1324,-4.1324,-4.1193,-4.0932,-4.0357,-3.9782,-3.9207,-3.8632,-3.8214,-3.79,-3.79,-3.79,-3.79,-3.79,-3.79,-3.79,-3.79,-3.7762,-3.7598,-3.7505,-3.7155,-3.6803,-3.6709,-3.6071,-3.5458,-3.5257,-3.455,-3.3847,-3.3646,-3.347,-3.342,-3.3571,-3.347,-3.352,-3.4048,-3.4449,-3.5102,-3.6254,-3.5404,-3.4607,-3.4514,-3.3509,-3.2871,-3.2996,-3.2996,-3.3212,-3.3741,-3.3477,-3.3356,-3.3477,-3.2346,-3.138,-3.0615,-2.9773,-2.9051,-2.8522,-2.8522,-2.8522,-2.8522,-2.8522,-2.8522,-2.8522,-2.8522,-2.8522,-5.5748,-5.7723,-5.9727,-6.1672,-6.26,-6.3079,-6.3079,-6.3498,-6.377,-6.3416,-6.2318,-6.1668,0.0,0.0,-6.0383,-6.2854,-6.273,-6.2861,-6.4735,-6.3453,-6.2163,0.0,0.0,0.0,0.0,0.0,0.0,-5.5313,-5.6078,-5.6209,-5.5165,-5.5099,-5.5099,-5.5099,-5.4001,-5.3112,-5.2537,-5.1309,-4.9819,-4.8094,-4.697,-4.6107,-4.5532,-4.4983,-4.4095,-4.2944,-4.2396,-4.1847,-4.1324,-4.1324,-4.0958,-4.0357,-3.9834,-3.9233,-3.8658,-3.8109,-3.79,-3.79,-3.79,-3.79,-3.79,-3.79,-3.79,-3.79,-3.79,-3.7874,-3.7828,-3.7598,-3.7294,-3.7036,-3.6803,-3.6142,-3.5403,-3.4901,-3.4349,-3.384,-3.3269,-3.3571,-3.3796,-3.3269,-3.3596,-3.3796,-3.3294,-3.4073,-3.5127,-3.6254,-3.5244,-3.4318,-3.4065,-3.2816,-3.2111,-3.244,-3.2466,-3.2683,-3.3212,-3.326,-3.3044,-3.2563,-3.2054,-3.1284,-3.0182,-2.9629,-2.9076,-2.8522,-2.8522,-2.8522,-2.8522,-2.8522,-2.8522,-2.8522,-2.8522,-2.8522,-5.7214,-5.9428,-6.1583,-6.257,-6.2959,-6.3079,-6.3079,-6.281,-6.2301,-6.1171,-5.9946,-5.8638,0.0,0.0,0.0,-6.008,-6.2528,0.0,-6.4935,-6.4978,0.0,-6.2221,0.0,-5.9669,-5.7653,-5.7729,0.0,-5.6313,-5.7157,-5.6963,-5.5165,-5.5099,-5.5099,-5.5099,-5.4001,-5.3321,-5.3164,-5.0734,-4.8643,-4.6917,-4.6186,-4.5297,-4.4304,-4.4173,-4.3467,-4.2369,-4.229,-4.1847,-4.1324,-4.1324,-4.0958,-4.0357,-3.9834,-3.9233,-3.8658,-3.8109,-3.79,-3.79,-3.79,-3.79,-3.79,-3.79,-3.79,-3.79,-3.79,-3.7586,-3.7325,-3.7678,-3.7286,-3.6799,-3.7191,-3.6698,-3.6009,-3.5674,-3.5173,-3.4698,-3.4368,-3.4399,-3.4474,-3.4324,-3.4424,-3.46,-3.4831,-3.5107,-3.5579,-3.6304,-3.5382,-3.4499,-3.404,-3.2816,-3.1986,-3.191,-3.191,-3.2106,-3.2659,-3.2707,-3.2827,-3.3068,-3.2587,-3.1793,-3.0754,-3.0158,-2.946,-2.8522,-2.8522,-2.8522,-2.8522,-2.8522,-2.8522,-2.8522,-2.8522,-2.8522,-5.9159,-6.0954,-6.26,-6.2989,-6.3079,-6.2839,-6.1972,-6.1463,-6.0745,-5.9099,-5.7513,0.0,-5.497,-5.6093,0.0,0.0,0.0,0.0,-6.326,-6.4081,-6.3965,0.0,-6.144,0.0,-5.7819,-5.7922,-5.7834,-5.7285,-5.735,-5.6963,-5.5842,-5.5339,-5.5099,-5.5099,-5.4001,-5.2903,-5.1858,-4.9244,-4.744,-4.6473,-4.5637,-4.4748,-4.3912,-4.3624,-4.3023,-4.2211,-4.1899,-4.1611,-4.1324,-4.1324,-4.0958,-4.0357,-3.9834,-3.9233,-3.8658,-3.8109,-3.79,-3.79,-3.79,-3.79,-3.79,-3.79,-3.79,-3.79,-3.79,-3.7665,-3.7482,-3.7795,-3.7456,-3.7091,-3.7428,-3.7062,-3.6524,-3.604,-3.5669,-3.5345,-3.4956,-3.5037,-3.5259,-3.5259,-3.5012,-3.4992,-3.5454,-3.5508,-3.5683,-3.6329,-3.5629,-3.4865,-3.4251,-3.2995,-3.2025,-3.1717,-3.1717,-3.1837,-3.2106,-3.213,-3.2274,-3.2608,-3.2298,-3.1745,-3.0946,-3.0591,-2.9941,-2.8883,-2.8859,-2.8739,-2.8522,-2.8522,-2.8522,-2.8522,-2.8522,-2.8522,-6.1044,-6.2151,-6.3079,-6.3079,-6.3019,-6.245,-6.0535,-5.9877,-5.9099,-5.7004,0.0,-5.3773,-5.3593,-5.4112,-5.4495,-5.4264,0.0,-6.0732,-6.0983,-6.2136,-6.2606,-6.1515,-6.0843,-5.9844,-5.8234,-5.8088,-5.8088,-5.8088,-5.7285,-5.6769,-5.6574,-5.5776,-5.5153,-5.4889,-5.3766,-5.2093,-4.9897,-4.7702,-4.6552,-4.6473,-4.5297,-4.4382,-4.3729,-4.3258,-4.2657,-4.2081,-4.1533,-4.1324,-4.1324,-4.1324,-4.0906,-4.0278,-3.986,-3.9259,-3.8553,-3.8161,-3.7978,-3.79,-3.79,-3.79,-3.79,-3.79,-3.79,-3.79,-3.79,-3.7848,-3.7795,-3.7874,-3.7632,-3.737,-3.7526,-3.7289,-3.6924,-3.6284,-3.609,-3.5963,-3.546,-3.5714,-3.6045,-3.5999,-3.5618,-3.5375,-3.5579,-3.5608,-3.5805,-3.6329,-3.5906,-3.524,-3.4583,-3.3341,-3.2299,-3.1805,-3.1717,-3.1717,-3.1717,-3.1717,-3.1717,-3.1717,-3.1789,-3.1548,-3.0946,-3.0995,-3.047,-2.9436,-2.9412,-2.9148,-2.8619,-2.8619,-2.8619,-2.8619,-2.8619,-2.8643,-6.1789,-6.248,-6.3079,-6.3079,-6.266,-6.1882,-6.0416,-5.88,0.0,0.0,-5.2725,-5.1409,-5.0331,-5.1977,-5.3701,-5.4428,-5.7734,-6.038,-6.0849,0.0,-6.1953,0.0,0.0,0.0,-5.8198,-5.8088,0.0,-5.8088,-5.7897,-5.7478,-5.6639,-5.6444,-5.5522,-5.3778,-5.2537,-5.1256,-4.9897,-4.8094,-4.6944,-4.6473,-4.5297,-4.4173,-4.3154,-4.3075,-4.2448,-4.1455,-4.135,-4.1324,-4.1324,-4.1324,-4.0697,-3.9782,-4.0148,-3.9364,-3.8083,-3.8449,-3.8292,-3.79,-3.79,-3.79,-3.79,-3.79,-3.79,-3.79,-3.79,-3.756,-3.7273,-3.7769,-3.7149,-3.6556,-3.7593,-3.7443,-3.7066,-3.718,-3.7212,-3.714,-3.6806,-3.6857,-3.6815,-3.6603,-3.6506,-3.6362,-3.6254,-3.6254,-3.6304,-3.638,-3.5906,-3.5411,-3.508,-3.3909,-3.2803,-3.203,-3.1805,-3.1717,-3.1717,-3.1717,-3.1717,-3.1717,-3.2106,-3.1913,-3.0946,-3.1332,-3.1067,-2.9965,-2.9941,-2.9701,-2.9172,-2.9172,-2.9172,-2.9172,-2.9172,-2.9388,-6.2795,-6.2954,-6.3079,-6.3079,-6.2331,-6.0954,-5.859,0.0,0.0,0.0,-5.0631,-4.9912,-4.8925,-5.09,0.0,-5.2318,0.0,0.0,0.0,0.0,0.0,0.0,0.0,0.0,0.0,-5.767,-5.7542,-5.8024,-5.7606,-5.7213,-5.6913,-5.6104,-5.4704,-5.2548,-5.1622,-5.0472,-4.9008,-4.7597,-4.6604,-4.6029,-4.514,-4.4121,-4.3023,-4.3023,-4.2396,-4.1324,-4.1324,-4.1324,-4.1324,-4.1324,-4.0801,-4.0043,-4.0305,-3.9756,-3.8789,-3.8736,-3.8736,-3.871,-3.8109,-3.8083,-3.8266,-3.8004,-3.79,-3.79,-3.79,-3.7717,-3.7534,-3.7821,-3.7482,-3.7168,-3.7743,-3.7691,-3.7488,-3.75,-3.7505,-3.7459,-3.7366,-3.7413,-3.7459,-3.7155,-3.7015,-3.6828,-3.6593,-3.6452,-3.6405,-3.6405,-3.6132,-3.5809,-3.5394,-3.4711,-3.3794,-3.2556,-3.2325,-3.214,-3.1741,-3.1717,-3.1717,-3.1717,-3.1958,-3.1862,-3.1356,-3.1573,-3.1332,-3.0518,-3.0494,-3.023,-2.9701,-2.9701,-2.9701,-2.9701,-2.9701,-2.9845,-6.3538,-6.3309,-6.3079,-6.3079,-6.1972,-6.0057,-5.6885,-5.494,0.0,0.0,-4.9,-4.8686,-4.8177,-4.9883,-5.1101,0.0,-5.3092,0.0,0.0,0.0,0.0,0.0,0.0,0.0,0.0,-5.7092,0.0,-5.7706,-5.6784,-5.6513,-5.7134,-5.5796,-5.4029,-5.1996,-5.125,-5.006,-4.8198,-4.7048,-4.6186,-4.5555,-4.5009,-4.4121,-4.3023,-4.3023,-4.2396,-4.1324,-4.1324,-4.1324,-4.1324,-4.1324,-4.0958,-4.0409,-4.0409,-4.0095,-3.9547,-3.9076,-3.9128,-3.9285,-3.8397,-3.8266,-3.8475,-3.8031,-3.79,-3.79,-3.79,-3.79,-3.79,-3.79,-3.7821,-3.7743,-3.7874,-3.7795,-3.7697,-3.7618,-3.7598,-3.7598,-3.7598,-3.7762,-3.7808,-3.7551,-3.7248,-3.7015,-3.6756,-3.6546,-3.6405,-3.6405,-3.6405,-3.6207,-3.578,-3.5565,-3.4913,-3.3469,-3.306,-3.2633,-3.2043,-3.1922,-3.1849,-3.1761,-3.1858,-3.1882,-3.1717,-3.1813,-3.1645,-3.1091,-3.1091,-3.0826,-3.0254,-3.0254,-3.0254,-3.0254,-3.0254,-3.0326,-6.3595,-6.3309,-6.3079,-6.3079,-6.1613,-5.9488,-5.6795,0.0,0.0,-4.8925,-4.7908,-4.7459,-4.7399,-4.8087,-4.8949,-4.9716,0.0,-5.3482,0.0,0.0,0.0,0.0,0.0,0.0,0.0,-5.6639,-5.6639,-5.6704,-5.5643,-5.5645,-5.7106,-5.6004,-5.4643,-5.3017,-5.183,-5.0265,-4.8198,-4.7048,-4.6186,-4.5555,-4.5009,-4.4121,-4.3023,-4.3023,-4.2396,-4.1324,-4.1324,-4.1324,-4.1324,-4.1324,-4.0958,-4.0409,-4.0409,-4.0095,-3.9599,-3.9547,-3.9207,-3.8789,-3.8684,-3.8344,-3.7978,-3.7926,-3.79,-3.79,-3.79,-3.79,-3.79,-3.79,-3.7508,-3.722,-3.7769,-3.7508,-3.722,-3.7723,-3.7854,-3.7854,-3.7854,-3.79,-3.7808,-3.7551,-3.7248,-3.7015,-3.6756,-3.6546,-3.6405,-3.6405,-3.6405,-3.638,-3.6329,-3.6282,-3.5962,-3.5059,-3.3913,-3.3142,-3.3093,-3.2626,-3.2201,-3.1981,-3.2443,-3.2402,-3.1741,-3.2154,-3.2154,-3.1645,-3.1645,-3.138,-3.085,-3.085,-3.085,-3.085,-3.085,-3.1091,-6.3031,-6.3264,-6.3309,-6.3137,-6.0984,-5.8321,-5.6077,0.0,-5.0391,-4.8147,-4.7489,-4.7309,-4.7309,-4.7519,-4.8089,-4.9304,0.0,0.0,0.0,0.0,0.0,0.0,0.0,0.0,0.0,0.0,-5.644,-5.609,-5.5853,-5.5585,-5.5228,-5.4474,-5.3153,-5.1247,-5.071,-4.9396,-4.7179,-4.6708,-4.6003,-4.5088,-4.4798,-4.4121,-4.3023,-4.3023,-4.2396,-4.1324,-4.1324,-4.1324,-4.1324,-4.1324,-4.0958,-4.0409,-4.0409,-4.0095,-3.9573,-3.9207,-3.9155,-3.9207,-3.8841,-3.8815,-3.8867,-3.8501,-3.8397,-3.8318,-3.8004,-3.79,-3.79,-3.79,-3.7743,-3.7612,-3.7848,-3.7717,-3.7612,-3.7848,-3.8161,-3.8292,-3.7978,-3.8449,-3.8689,-3.7892,-3.7697,-3.7471,-3.7019,-3.664,-3.6405,-3.6405,-3.6405,-3.6405,-3.6405,-3.6405,-3.6282,-3.5962,-3.5006,-3.4206,-3.3724,-3.3187,-3.2847,-3.2734,-3.2636,-3.2445,-3.2138,-3.2156,-3.2091,-3.1893,-3.1761,-3.1597,-3.1404,-3.1404,-3.1404,-3.1404,-3.1404,-3.15,-6.2166,-6.2919,-6.3424,-6.3194,-6.0565,-5.7603,0.0,0.0,-4.9628,-4.7698,-4.7309,-4.7309,-4.7309,-4.7459,-4.7967,-4.8985,0.0,-4.9976,0.0,0.0,0.0,0.0,0.0,-5.4358,-5.5734,-5.6343,-5.6332,-5.574,-5.5842,-5.51,-5.329,-5.2703,-5.1748,-5.0379,-5.0484,-4.9396,-4.6866,-4.6681,-4.6075,-4.51,-4.483,-4.4121,-4.3023,-4.3023,-4.2396,-4.1324,-4.1324,-4.1324,-4.1324,-4.1324,-4.1063,-4.0644,-4.0305,-4.0043,-3.9756,-3.8998,-3.8972,-3.9311,-3.905,-3.9128,-3.9311,-3.905,-3.8972,-3.8919,-3.8527,-3.8292,-3.8135,-3.8135,-3.8135,-3.8109,-3.7952,-3.79,-3.79,-3.79,-3.8187,-3.8423,-3.8187,-3.8789,-3.9155,-3.8527,-3.8407,-3.8152,-3.7467,-3.7035,-3.6701,-3.643,-3.6405,-3.6405,-3.6405,-3.6405,-3.6405,-3.6405,-3.5912,-3.5276,-3.452,-3.3954,-3.3612,-3.3567,-3.3222,-3.2882,-3.2646,-3.2445,-3.2284,-3.2138,-3.1893,-3.1805,-3.1805,-3.1717,-3.1717,-3.1717,-3.1717,-3.1717,-6.1011,-6.2168,-6.3424,-6.3194,-6.0565,-5.7603,0.0,0.0,-4.9628,-4.7698,-4.7309,-4.7309,-4.7309,-4.7848,-4.8417,-4.8848,-4.9456,0.0,-5.2956,0.0,0.0,0.0,0.0,-5.345,-5.4059,-5.5653,-5.6332,-5.574,-5.5212,-5.394,-5.1737,-5.11,-5.0986,-5.1304,-5.1878,-5.0735,-4.7726,-4.7109,-4.6518,-4.5954,-4.51,-4.4121,-4.3023,-4.3023,-4.2396,-4.1324,-4.1324,-4.1324,-4.1324,-4.1324,-4.1324,-4.1193,-4.0069,-3.9939,-4.0278,-3.9128,-3.871,-3.8789,-3.939,-3.9207,-3.8815,-3.9416,-3.9599,-3.9599,-3.9599,-3.9181,-3.871,-3.871,-3.871,-3.8579,-3.8057,-3.79,-3.79,-3.79,-3.79,-3.8057,-3.8579,-3.871,-3.8893,-3.9468,-3.9381,-3.891,-3.813,-3.7789,-3.7346,-3.6528,-3.6405,-3.6405,-3.6405,-3.6405,-3.6405,-3.6405,-3.6405,-3.6132,-3.5533,-3.4981,-3.459,-3.4409,-3.4363,-3.4024,-3.3211,-3.3187,-3.2941,-3.24,-3.2113,-3.1981,-3.1981,-3.1805,-3.1717,-3.1717,-3.1717,-3.1717,-5.7882,-5.8805,-5.9295,-5.8578,-5.6885,-5.494,-5.2935,0.0,-4.9134,-4.7608,-4.7309,-4.7309,-4.7309,-4.7489,-4.7967,-4.8985,-4.9343,0.0,0.0,0.0,0.0,-5.3919,-5.4523,-5.5085,0.0,-5.6541,-5.6757,-5.6127,-5.5751,-5.4538,-5.215,-5.1637,-5.0932,-4.9858,-5.0104,-4.9442,-4.7726,-4.7109,-4.6518,-4.6007,-4.4758,-4.3755,-4.2997,-4.2605,-4.203,-4.1324,-4.1324,-4.1324,-4.1324,-4.1324,-4.1324,-4.1246,-4.0461,-4.0043,-3.9834,-3.9468,-3.905,-3.8841,-3.9834,-4.0043,-3.9913,-4.0095,-4.0174,-4.0095,-3.973,-3.9181,-3.8632,-3.8266,-3.8161,-3.8109,-3.7952,-3.79,-3.79,-3.79,-3.8501,-3.8998,-3.8762,-3.9651,-4.0305,-3.973,-3.9719,-3.9602,-3.8936,-3.8447,-3.8127,-3.8046,-3.7402,-3.7031,-3.7175,-3.6751,-3.6405,-3.6405,-3.6405,-3.6329,-3.6107,-3.5604,-3.5232,-3.5165,-3.4815,-3.447,-3.425,-3.4069,-3.395,-3.3776,-3.3138,-3.2808,-3.2808,-3.2396,-3.2352,-3.2719,-3.256,-3.2665,0.0,-5.6526,-5.716,-5.6359,-5.4999,0.0,0.0,0.0,-4.8596,-4.7519,-4.7309,-4.7309,-4.7309,-4.7519,-4.7938,-4.882,-4.9314,-5.0,0.0,0.0,0.0,-5.3612,0.0,0.0,-5.5888,-5.6349,-5.6436,-5.6016,-5.5289,-5.4138,-5.2489,-5.1336,-5.0317,-4.9454,-4.9603,-4.9365,-4.8679,-4.783,-4.7279,-4.6922,-4.5708,-4.465,-4.3781,-4.3251,-4.2492,-4.1638,-4.1402,-4.1324,0.0,-4.1324,-4.1324,-4.1246,-4.0644,-4.02,-3.9886,-3.9677,-3.9233,-3.8841,-3.9782,-4.0122,-4.0148,-4.0357,-4.0566,-4.0644,-4.0095,-3.9651,-3.9233,-3.871,-3.8684,-3.8762,-3.8318,-3.837,-3.8553,-3.8553,-3.9076,-3.9573,-3.939,-4.02,-4.0827,-4.0357,-4.0441,-4.0346,-3.9651,-3.9254,-3.9007,-3.8825,-3.8072,-3.7549,-3.7597,-3.6947,-3.6499,-3.6405,-3.6405,-3.6405,-3.6405,-3.6056,-3.5855,-3.5855,-3.5529,-3.5253,-3.5006,-3.4869,-3.4724,-3.4524,-3.395,-3.3642,-3.3642,-3.3207,-3.3162,-3.3482,-3.3322,-3.3381,0.0,-5.4959,-5.6254,-5.575,-5.4251,-5.2546,-5.1229,0.0,0.0,-4.7369,-4.7279,-4.7309,-4.7309,-4.7818,-4.8237,-4.8327,-4.9374,-5.0275,0.0,-5.1831,0.0,0.0,-5.3937,-5.4243,-5.4524,-5.5181,-5.5474,-5.5375,-5.4024,-5.3092,-5.2759,-5.0596,-4.9507,-4.9995,-5.0107,-5.019,-5.0214,-4.9025,-4.8431,-4.8481,-4.7536,-4.6356,-4.5115,-4.4498,-4.3501,-4.2158,-4.1533,-4.1324,-4.1324,-4.1324,-4.1324,-4.1272,-4.0697,-4.0461,-4.0357,-3.9886,-3.9337,-3.8919,-3.952,-3.973,-3.9808,-4.0305,-4.0853,-4.1219,-4.0644,-4.0461,-4.0305,-3.9756,-3.9965,-4.0122,-3.905,-3.9181,-3.9599,-3.9599,-3.9651,-3.9808,-4.0305,-4.0461,-4.0644,-4.1219,-4.1324,-4.1041,-4.0296,-4.0143,-3.9863,-3.9077,-3.8489,-3.8012,-3.7746,-3.7191,-3.6742,-3.6455,-3.6505,-3.648,-3.6405,-3.6405,-3.6405,-3.6405,-3.6405,-3.6132,-3.5583,-3.5558,-3.5307,-3.4851,-3.4599,-3.4458,-3.4433,-3.4206,-3.4114,-3.4114,-3.4114,-3.3955,-4.9904,0.0,-5.112,-5.0363,-5.0198,-4.9898,0.0,0.0,0.0,0.0,0.0,0.0,0.0,-4.7429,-4.7878,-4.891,-4.9284,-4.9488,-4.9509,-5.127,0.0,-5.3105,-5.4,-5.4023,-5.251,-5.3548,-5.4418,-5.4593,-5.4104,-5.3556,-5.3022,-5.2016,-5.1291,-5.0913,-4.9867,-4.9389,-4.9535,-4.821,-4.7847,-4.8481,-4.6531,-4.5499,-4.5303,-4.4153,-4.3161,-4.2324,-4.16,-4.1324,-4.1324,-4.1324,-4.1324,-4.1298,-4.1167,-4.0827,-4.0461,-4.0801,-4.054,-4.0095,-4.0697,-4.0906,-4.0932,-4.1063,-4.1193,-4.1298,-4.1141,-4.0775,-4.0305,-3.9756,-3.9703,-3.973,-3.9468,-3.9494,-3.9599,-3.9599,-3.9913,-4.0252,-4.0383,-4.0775,-4.1141,-4.1298,-4.1324,-4.1222,-4.1041,-4.0839,-4.0687,-4.0707,-3.9917,-3.9261,-3.9212,-3.853,-3.7754,-3.7084,-3.7362,-3.7287,-3.648,-3.6405,-3.6405,-3.6405,-3.6405,-3.6355,-3.6182,-3.6182,-3.6153,-3.5981,-3.5487,-3.5061,-3.4635,-3.4969,-3.5169,-3.5144,-3.5006,-3.509,-4.8505,-4.9152,-4.9567,-4.8895,-4.906,-4.906,-4.7997,0.0,0.0,0.0,0.0,0.0,0.0,0.0,-4.7638,-4.8656,-4.9314,-5.0084,0.0,0.0,-5.2743,-5.3635,-5.385,-5.3488,-5.2522,-5.2965,-5.3281,-5.3392,-5.2966,-5.2853,-5.3073,-5.1869,-5.1189,-5.1385,-4.9921,-4.939,-4.9975,-4.8511,-4.8201,-4.9029,-4.7813,-4.6907,-4.6342,-4.5336,-4.4141,-4.2785,-4.2149,-4.1647,-4.1324,-4.1324,-4.1324,-4.1324,-4.1324,-4.1115,-4.0853,-4.1193,-4.0932,-4.0461,-4.0801,-4.0906,-4.0958,-4.1219,-4.1324,-4.1324,-4.1324,-4.1089,-4.0697,-4.0148,-4.0174,-4.0331,-4.0043,-4.0174,-4.0383,-4.0383,-4.0618,-4.0827,-4.0827,-4.1089,-4.1324,-4.1324,-4.1324,-4.1324,-4.1324,-4.1147,-4.1147,-4.1274,-4.0579,-3.9943,-3.9721,-3.906,-3.8331,-3.7637,-3.7839,-3.7663,-3.6857,-3.696,-3.691,-3.643,-3.6405,-3.6405,-3.6405,-3.6405,-3.6405,-3.6405,-3.6081,-3.578,-3.5479,-3.578,-3.5906,-3.5906,-3.5812,-3.5846,-4.8171,-4.8984,-4.973,-4.9149,-4.9,-4.8805,-4.8147,0.0,0.0,0.0,0.0,0.0,0.0,-4.701,0.0,0.0,0.0,0.0,-5.3559,-5.3074,-5.2865,-5.4026,-5.3447,-5.2934,-5.2862,-5.2485,-5.2279,-5.2257,-5.1551,-5.1632,-5.2982,-5.1176,-5.0494,-5.1447,-5.008,-4.9687,-5.0511,-4.9216,-4.8881,-4.9717,-4.9571,-4.8824,-4.7494,-4.6886,-4.5463,-4.3453,-4.2917,-4.2262,-4.1647,-4.1498,-4.1448,-4.1448,-4.1348,-4.1324,-4.1324,-4.1324,-4.0984,-4.054,-4.0687,-4.0687,-4.0815,-4.134,-4.1448,-4.1448,-4.1374,-4.1324,-4.1219,-4.0697,-4.0932,-4.1193,-4.0697,-4.0932,-4.1324,-4.1324,-4.1324,-4.1324,-4.1324,-4.1324,-4.1324,-4.1324,-4.1324,-4.1324,-4.1324,-4.1324,-4.1324,-4.1324,-4.083,-4.032,-3.9923,-3.9413,-3.8858,-3.8338,-3.8315,-3.8088,-3.7507,-3.7912,-3.7811,-3.6827,-3.6628,-3.6505,-3.6405,-3.6405,-3.6405,-3.6405,-3.6405,-3.6405,-3.6405,-3.6405,-3.6405,-3.6452,-3.6405,-3.6263,-4.8736,-4.9216,-4.9342,-4.7965,-4.7608,-4.7429,-4.677,0.0,0.0,0.0,0.0,0.0,0.0,-4.7698,-4.8356,0.0,-4.9453,-5.0886,-5.4374,-5.3526,-5.2471,-5.2111,-5.2791,-5.2533,-5.0603,-5.0812,-5.1467,-5.2489,-5.1281,-5.1178,-5.2578,-5.1636,-5.0957,-5.0859,-4.9903,-4.9538,-4.9843,-4.8938,-4.8881,-4.9669,-4.9029,-4.8379,-4.7709,-4.6928,-4.5816,-4.4462,-4.3737,-4.3375,-4.3156,-4.2528,-4.2235,-4.2186,-4.1547,-4.1324,-4.1324,-4.1324,-4.1246,-4.1267,-4.1856,-4.215,-4.2177,-4.2284,-4.2311,-4.2164,-4.1498,-4.1324,-4.1298,-4.1219,-4.1246,-4.1298,-4.1193,-4.1246,-4.1324,-4.1324,-4.1324,-4.1324,-4.1324,-4.1324,-4.1324,-4.1324,-4.1324,-4.1324,-4.1324,-4.1324,-4.1324,-4.1324,-4.1019,-4.0817,-4.0716,-4.0437,-4.0055,-3.9495,-3.9651,-3.9448,-3.8651,-3.8914,-3.8915,-3.8472,-3.7602,-3.6883,-3.643,-3.6405,-3.6405,-3.6405,-3.6405,-3.6405,-3.6405,-3.6405,-3.6499,-3.6662,-3.6499,-3.6452,-4.7308,-4.7588,-4.7649,-4.692,-4.7578,-4.8207,-4.7549,-4.683,0.0,0.0,0.0,0.0,0.0,0.0,-5.0521,-5.2447,-5.2393,-5.2757,-5.4626,-5.3478,-5.2511,-5.2516,-5.235,-5.2183,-5.2085,-5.154,-5.1634,-5.2584,-5.1665,-5.1293,-5.1819,-5.1259,-5.086,-5.0685,-4.9931,-4.9614,-4.9669,-4.9326,-4.9326,-4.9717,-4.9326,-4.8663,-4.7782,-4.7423,-4.6309,-4.4666,-4.434,-4.3993,-4.3539,-4.3204,-4.306,-4.3012,-4.2701,-4.2555,-4.2506,-4.2065,-4.1647,-4.1398,-4.2137,-4.2431,-4.2555,-4.2991,-4.3088,-4.3039,-4.2652,-4.2555,-4.2457,-4.2016,-4.1597,-4.1324,-4.1324,-4.1324,-4.1324,-4.1324,-4.1324,-4.1324,-4.1324,-4.1324,-4.1324,-4.1324,-4.1324,-4.1324,-4.1324,-4.1324,-4.1324,-4.1324,-4.1198,-4.1047,-4.0946,-4.0795,-4.054,-4.0132,-4.0236,-4.0057,-3.9338,-3.9699,-3.9598,-3.8851,-3.835,-3.7901,-3.7503,-3.7503,-3.7255,-3.6857,-3.6857,-3.6707,-3.6405,-3.6499,-3.6615,-3.6709,-3.6781,-3.6781,-4.6457,-4.6508,-4.6531,-4.6309,-4.7459,-4.8536,-4.8327,-4.7399,-4.683,0.0,0.0,0.0,0.0,-5.0147,-5.2201,-5.5031,-5.4845,-5.4572,-5.5185,-5.3909,-5.3014,-5.3382,-5.2265,-5.1956,-5.3085,-5.2139,-5.177,-5.2449,-5.1649,-5.1265,-5.1327,-5.0679,-5.0398,-5.0452,-4.9979,-4.9717,-4.9717,-4.9717,-4.9717,-4.9717,-4.9717,-4.9001,-4.7782,-4.7782,-4.6778,-4.4989,-4.4972,-4.4648,-4.4106,-4.3918,-4.3871,-4.3823,-4.3634,-4.3586,-4.3539,-4.2991,-4.236,-4.1918,-4.2674,-4.2964,-4.3108,-4.3681,-4.3871,-4.3851,-4.3634,-4.3586,-4.3444,-4.284,-4.2235,-4.1746,-4.1424,-4.1324,-4.1324,-4.1324,-4.1324,-4.1324,-4.1324,-4.1324,-4.1324,-4.1324,-4.1324,-4.1324,-4.1324,-4.1324,-4.1324,-4.1324,-4.1274,-4.1147,-4.0997,-4.0946,-4.0846,-4.0694,-4.0643,-4.0438,-4.0052,-4.0412,-4.0333,-3.9432,-3.9154,-3.883,-3.8507,-3.8507,-3.8157,-3.7484,-3.7507,-3.7303,-3.6701,-3.6991,-3.7133,-3.71,-3.73,-3.7304,-4.7703,-4.7576,-4.71,-4.6471,-4.6399,-4.683,-4.8027,-4.7728,-4.7758,-4.9598,0.0,0.0,0.0,-5.0962,-5.2333,-5.4404,-5.4743,-5.5265,-5.6707,-5.5374,-5.417,-5.3858,-5.3012,-5.2062,-5.1118,-5.1129,-5.1377,-5.1759,-5.0685,-5.0502,-5.1497,-5.0217,-4.9509,-4.9756,-4.9746,-4.9717,-4.9717,-4.9717,-4.9717,-4.9717,-4.9717,-4.9001,-4.7782,-4.7782,-4.7085,-4.5821,-4.5821,-4.5776,-4.5685,-4.4943,-4.4591,-4.4545,-4.3871,-4.3586,-4.3586,-4.3539,-4.3444,-4.3539,-4.4275,-4.4527,-4.4545,-4.4591,-4.462,-4.4509,-4.3804,-4.3586,-4.3586,-4.3539,-4.3444,-4.3088,-4.1647,-4.1324,-4.1324,-4.1324,-4.1324,-4.1324,-4.1324,-4.1324,-4.1324,-4.1324,-4.1324,-4.1324,-4.1324,-4.1324,-4.1324,-4.1324,-4.1097,-4.0997,-4.1248,-4.1047,-4.0997,-4.1224,-4.0997,-4.087,-4.0818,-4.1071,-4.1222,-4.1143,-4.0201,-3.9363,-3.88,-3.8774,-3.8628,-3.8309,-3.8528,-3.8321,-3.7521,-3.827,-3.8486,-3.8308,-3.8296,-3.8428,-4.6184,-4.6388,-4.6531,-4.5843,-4.5992,-4.677,0.0,-4.9015,-4.9583,-5.1139,-5.1588,0.0,0.0,-5.2661,-5.2943,-5.5271,-5.5094,-5.4855,-5.5608,-5.4629,-5.3581,-5.2896,-5.1967,-5.1593,-5.1971,-5.1529,-5.1686,-5.2727,-5.1863,-5.1229,-5.107,-5.0471,-4.9865,-4.9117,-4.9465,-4.9494,-4.9088,-4.9465,-4.9717,-4.9669,-4.9262,-4.8624,-4.7782,-4.7375,-4.6708,-4.5895,-4.5895,-4.5895,-4.5895,-4.5595,-4.5429,-4.5429,-4.511,-4.4712,-4.4294,-4.4294,-4.3993,-4.3681,-4.4462,-4.4712,-4.4776,-4.5293,-4.5458,-4.5413,-4.511,-4.5018,-4.4926,-4.4434,-4.4266,-4.3937,-4.2382,-4.199,-4.1868,-4.1398,-4.1324,-4.1324,-4.1324,-4.1324,-4.1324,-4.1324,-4.1324,-4.1324,-4.1324,-4.1324,-4.1324,-4.1324,-4.1198,-4.1224,-4.1274,-4.1198,-4.1198,-4.1274,-4.1198,-4.1147,-4.1147,-4.1248,-4.1324,-4.1324,-4.0915,-4.0532,-4.01,-4.01,-3.982,-3.919,-3.9338,-3.9056,-3.8321,-3.8843,-3.8988,-3.8877,-3.8891,-3.8946,-4.5454,-4.5675,-4.5927,-4.5155,0.0,0.0,-4.9134,-5.0092,-5.1003,-5.2785,-5.3174,-5.3473,-5.4401,0.0,-5.306,-5.5025,-5.5067,-5.4778,-5.4745,-5.4137,-5.3228,-5.2148,-5.1391,-5.1141,-5.1525,-5.1417,-5.1646,-5.2316,-5.2391,-5.1908,-5.0842,-5.0679,-5.0155,-4.9155,-4.9359,-4.9359,-4.903,-4.9262,-4.9378,-4.9378,-4.8835,-4.8312,-4.7753,-4.7114,-4.6475,-4.5895,-4.5895,-4.5895,-4.5895,-4.5895,-4.5895,-4.5895,-4.5895,-4.5595,-4.5081,-4.5064,-4.4741,-4.4415,-4.4879,-4.5064,-4.5173,-4.573,-4.5895,-4.5895,-4.5895,-4.5895,-4.5776,-4.5247,-4.5081,-4.4805,-4.3464,-4.2937,-4.2674,-4.2164,-4.1819,-4.162,-4.162,-4.1448,-4.1324,-4.1324,-4.1324,-4.1324,-4.1324,-4.1324,-4.1324,-4.1324,-4.1324,-4.1324,-4.1324,-4.1324,-4.1324,-4.1324,-4.1324,-4.1324,-4.1324,-4.1324,-4.1324,-4.1324,-4.1324,-4.1198,-4.1047,-4.1047,-4.0715,-4.0077,-4.0177,-3.9894,-3.9203,-3.9654,-3.98,-3.957,-3.9702,-3.9731,-4.6072,-4.5798,-4.5413,-4.4537,0.0,0.0,-4.9747,-5.0704,-5.1977,-5.464,-5.4132,-5.3204,-5.3204,-5.2755,-5.2525,-5.3179,-5.4477,-5.5166,-5.4541,-5.4213,-5.3412,-5.1956,-5.1493,-5.0741,-4.9251,-5.0705,-5.1182,-4.9995,-5.1814,-5.2427,-5.1061,-5.0709,-5.0405,-5.0057,-4.9472,-4.927,-4.9688,-4.903,-4.8711,-4.8711,-4.8384,-4.8062,-4.7753,-4.7114,-4.6475,-4.5895,-4.5895,-4.5895,-4.5895,-4.5895,-4.5895,-4.5895,-4.5895,-4.5895,-4.5895,-4.5895,-4.5895,-4.5895,-4.5895,-4.5895,-4.5895,-4.5895,-4.5895,-4.5895,-4.5895,-4.5895,-4.5895,-4.5895,-4.5895,-4.573,-4.4943,-4.42,-4.3586,-4.3586,-4.3012,-4.2404,-4.2404,-4.1819,-4.1324,-4.1324,-4.1324,-4.1324,-4.1324,-4.1324,-4.1324,-4.1324,-4.1324,-4.1324,-4.1324,-4.1324,-4.1324,-4.1324,-4.1324,-4.1324,-4.1324,-4.1324,-4.1324,-4.1324,-4.1324,-4.1324,-4.1324,-4.1324,-4.1147,-4.0896,-4.1147,-4.0887,-3.9992,-4.0887,-4.101,-4.0435,-4.0761,-4.0896,-4.6316,-4.5798,-4.5533,-4.5076,0.0,0.0,0.0,-5.0062,0.0,0.0,-5.5179,-5.488,-5.5777,-5.4433,-5.3229,-5.34,-5.364,-5.3516,-5.2701,-5.2857,-5.238,-5.0735,-5.0214,-4.9864,-4.9418,-4.9828,-5.0379,-5.1073,-5.1652,-5.1809,-5.1386,-5.1189,-5.0453,-4.9004,-4.9257,-4.9004,-4.8131,-4.8255,-4.8606,-4.9233,-4.8055,-4.7374,-4.7114,-4.7095,-4.6658,-4.5895,-4.5895,-4.5895,-4.5895,-4.5895,-4.5895,-4.5895,-4.5895,-4.5895,-4.5895,-4.5895,-4.5895,-4.5895,-4.5895,-4.5895,-4.5895,-4.5895,-4.5895,-4.5895,-4.5895,-4.5895,-4.5895,-4.5895,-4.5895,-4.585,-4.5595,-4.5384,-4.4926,-4.3851,-4.3396,-4.3252,-4.3252,-4.306,-4.2943,-4.2943,-4.2943,-4.2943,-4.2943,-4.2943,-4.2749,-4.2213,-4.2115,-4.1918,-4.1374,-4.1324,-4.1324,-4.1324,-4.1324,-4.1324,-4.1324,-4.1324,-4.1324,-4.1324,-4.1324,-4.1324,-4.1324,-4.1324,-4.1274,-4.1147,-4.1274,-4.1169,-4.0913,-4.1169,-4.1219,-4.1063,-4.0969,-4.0997,-4.6316,-4.592,-4.5736,-4.58,-4.6753,-4.7967,-4.906,0.0,0.0,0.0,-5.5598,-5.5119,-5.6137,-5.4609,-5.3308,-5.3568,-5.3634,-5.3246,-5.2111,-5.2421,-5.2026,-4.9912,-4.9669,-4.9531,-4.901,-4.9484,-5.0161,-5.1017,-5.1736,-5.1954,-5.1649,-5.1421,-5.0621,-4.9107,-4.9195,-4.8824,-4.789,-4.8135,-4.84,-4.8702,-4.8155,-4.7444,-4.6719,-4.69,-4.665,-4.6001,-4.5911,-4.5895,-4.5895,-4.5895,-4.5895,-4.5895,-4.5895,-4.5895,-4.5895,-4.5895,-4.5895,-4.5895,-4.5895,-4.5895,-4.5895,-4.5895,-4.5895,-4.5895,-4.5895,-4.5895,-4.5895,-4.5895,-4.5895,-4.5895,-4.5895,-4.5895,-4.564,-4.4741,-4.4247,-4.4059,-4.404,-4.3804,-4.3586,-4.3586,-4.3586,-4.3586,-4.3586,-4.3586,-4.3444,-4.2991,-4.2916,-4.2722,-4.2262,-4.1918,-4.1868,-4.2164,-4.1647,-4.1398,-4.172,-4.1448,-4.1324,-4.1324,-4.1324,-4.1324,-4.1324,-4.1324,-4.1324,-4.1324,-4.1324,-4.1324,-4.1324,-4.1324,-4.1324,-4.1324,-4.1147,-4.1147,-4.6303,-4.6123,-4.596,-4.6539,-4.7602,-4.8626,-4.9269,-5.1768,-5.4521,-5.6286,0.0,-5.4581,-5.5179,-5.4082,-5.3231,-5.3785,-5.4194,-5.3918,-5.2352,-5.2743,-5.2178,-4.9462,-4.9583,-4.9488,-4.8379,-4.9442,-5.0237,-5.0369,-5.1795,-5.2417,-5.1862,-5.1387,-5.0747,-4.9859,-4.9264,-4.8741,-4.8394,-4.8453,-4.8142,-4.7552,-4.8356,-4.803,-4.6756,-4.6742,-4.655,-4.6225,-4.6001,-4.594,-4.5895,-4.5895,-4.5895,-4.5895,-4.5895,-4.5895,-4.5895,-4.5895,-4.5895,-4.5895,-4.5895,-4.5895,-4.5895,-4.5895,-4.5895,-4.5895,-4.5895,-4.5895,-4.5895,-4.5895,-4.5895,-4.5895,-4.5895,-4.5895,-4.5895,-4.5895,-4.5338,-4.4805,-4.4833,-4.4275,-4.3804,-4.3804,-4.3804,-4.3804,-4.3804,-4.3804,-4.3776,-4.3681,-4.3634,-4.3586,-4.3586,-4.2964,-4.2792,-4.3491,-4.236,-4.1769,-4.2452,-4.1868,-4.1498,-4.1498,-4.1448,-4.1398,-4.1398,-4.1374,-4.1324,-4.1324,-4.1324,-4.1324,-4.1324,-4.1324,-4.1324,-4.1324,-4.1324,-4.1324,-4.7099,-4.6153,0.0,-4.7033,-4.8579,-4.9807,-4.9956,-5.1379,-5.2755,-5.3174,-5.4581,-5.5777,-5.5927,-5.5552,-5.506,-5.4709,-5.4672,-5.3971,-5.1792,-5.2747,-5.2693,-4.981,-4.9545,-4.9386,-4.8886,-4.9142,-4.98,-5.0834,-5.1461,-5.1865,-5.2103,-5.1033,-5.0106,-4.9448,-4.9299,-4.8686,-4.7553,-4.7852,-4.806,-4.8134,-4.757,-4.7554,-4.7955,-4.7703,-4.7096,-4.6225,-4.618,-4.6046,-4.5895,-4.5895,-4.5895,-4.5895,-4.5895,-4.5895,-4.5895,-4.5895,-4.5895,-4.5895,-4.5895,-4.5895,-4.5895,-4.5895,-4.5895,-4.5895,-4.5895,-4.5895,-4.5895,-4.5895,-4.5895,-4.5895,-4.5895,-4.5895,-4.5895,-4.5895,-4.5776,-4.564,-4.564,-4.5504,-4.5413,-4.5413,-4.5413,-4.5413,-4.5413,-4.5413,-4.5201,-4.4573,-4.3965,-4.3586,-4.3586,-4.3444,-4.3396,-4.3586,-4.3328,-4.3156,-4.3348,-4.3232,-4.3136,-4.3136,-4.2555,-4.2213,-4.2213,-4.1647,-4.1324,-4.1324,-4.1324,-4.1324,-4.1324,-4.1324,-4.1324,-4.1324,-4.1324,-4.1324,-4.7405,0.0,0.0,-4.777,0.0,-5.0106,-4.9853,-5.0301,-5.078,-5.078,-5.2905,-5.473,-5.473,-5.4645,-5.4428,-5.4154,-5.431,-5.3818,-5.1871,-5.2648,-5.2392,-4.9666,-4.9636,-4.9662,-4.9116,-4.9361,-5.0122,-5.1397,-5.13,-5.1316,-5.169,-5.1079,-5.0122,-4.888,-4.9149,-4.867,-4.7309,-4.7806,-4.7985,-4.7818,-4.7656,-4.7656,-4.7818,-4.7524,-4.7037,-4.6403,-4.6403,-4.618,-4.594,-4.6135,-4.6135,-4.6046,-4.618,-4.6254,-4.6225,-4.609,-4.6046,-4.6001,-4.594,-4.5895,-4.5895,-4.5895,-4.5895,-4.5895,-4.5895,-4.5895,-4.5895,-4.5895,-4.5895,-4.5895,-4.5895,-4.5895,-4.5895,-4.5895,-4.5895,-4.5895,-4.5895,-4.5895,-4.5895,-4.5895,-4.5895,-4.5895,-4.5895,-4.6127,-4.6078,-4.5367,-4.5182,-4.5034,-4.4723,-4.434,-4.4294,-4.4648,-4.404,-4.3729,-4.4106,-4.3776,-4.3586,-4.3586,-4.3232,-4.3039,-4.3039,-4.2604,-4.2016,-4.1324,-4.1324,-4.1324,-4.1324,-4.1324,-4.1324,-4.1324,-4.1324,-4.1324,-4.7281,0.0,-4.7627,-4.8253,-4.9284,0.0,-4.9419,-4.9299,-4.9299,-4.9299,-5.1079,-5.2695,-5.2815,-5.2935,-5.3054,-5.3144,-5.3653,-5.3536,-5.2117,-5.2499,-5.2056,-4.959,-4.9868,-5.0009,-4.9418,-4.9851,-5.0623,-5.1728,-5.1229,-5.0905,-5.1003,-5.084,-4.9972,-4.8327,-4.885,-4.8506,-4.7309,-4.7967,-4.7967,-4.7309,-4.7848,-4.7848,-4.7309,-4.7062,-4.6844,-4.6624,-4.6624,-4.6403,-4.6075,-4.6447,-4.6447,-4.6314,-4.6491,-4.6609,-4.6535,-4.6358,-4.6269,-4.6269,-4.609,-4.5985,-4.5956,-4.5956,-4.594,-4.5895,-4.5895,-4.5895,-4.5895,-4.5895,-4.5895,-4.5895,-4.5895,-4.5895,-4.5895,-4.5895,-4.5895,-4.5895,-4.5895,-4.5895,-4.5895,-4.5895,-4.5895,-4.5895,-4.5895,-4.633,-4.6534,-4.6098,-4.6388,-4.6563,-4.6243,-4.5568,-4.5356,-4.614,-4.5099,-4.4527,-4.5022,-4.4509,-4.4104,-4.3993,-4.3899,-4.3804,-4.3804,-4.3634,-4.2916,-4.1498,-4.1498,-4.1448,-4.1324,-4.1324,-4.1324,-4.1324,-4.1324,-4.1324,-4.6696,0.0,-4.8115,0.0,-4.8725,-4.9614,0.0,0.0,-4.9299,-4.9299,-5.0002,-5.0764,-5.1379,-5.1947,-5.2516,-5.3084,-5.3264,-5.297,-5.2059,-5.2645,-5.2446,-5.0606,-5.0478,-5.0493,-5.0349,-5.0456,-5.067,-5.0921,-5.1066,-5.0913,-5.0345,-4.9284,-4.8566,-4.8297,-4.8386,-4.8057,-4.7309,-4.7967,-4.7967,-4.7309,-4.7399,-4.7399,-4.7309,-4.7266,-4.7106,-4.6887,-4.6887,-4.6712,-4.6491,-4.6535,-4.658,-4.6535,-4.6609,-4.6609,-4.6609,-4.6535,-4.6535,-4.6535,-4.6521,-4.6358,-4.618,-4.618,-4.6046,-4.5895,-4.5895,-4.5895,-4.5895,-4.5895,-4.5895,-4.5895,-4.5895,-4.5895,-4.5895,-4.5895,-4.5895,-4.5895,-4.5895,-4.5895,-4.5895,-4.5895,-4.5895,-4.5895,-4.5895,-4.5953,-4.6156,-4.6621,-4.6301,-4.6388,-4.7404,-4.6935,-4.6772,-4.7462,-4.738,-4.7055,-4.6553,-4.6403,-4.6126,-4.5623,-4.4926,-4.4555,-4.4555,-4.3946,-4.3156,-4.2284,-4.2284,-4.1967,-4.1324,-4.1324,-4.1324,-4.1324,-4.1324,-4.1324,-4.7065,-4.7732,-4.834,0.0,-4.9183,-4.9656,-4.9072,-4.8938,-4.8773,-4.8281,-4.8386,-4.8895,-4.9942,-5.0361,-5.078,-5.1439,-5.1828,-5.1924,-5.1587,-5.2156,-5.2051,-5.0461,-5.0662,-5.0827,-5.0569,-5.0671,-5.0884,-5.1339,-5.1125,-5.0611,-4.9733,-4.9494,-4.8865,-4.7758,-4.8087,-4.7967,-4.7309,-4.7578,-4.7578,-4.7309,-4.7309,-4.7309,-4.7309,-4.7309,-4.7149,-4.6931,-4.7062,-4.6931,-4.6653,-4.6873,-4.6887,-4.68,-4.6931,-4.7005,-4.7005,-4.68,-4.6756,-4.6756,-4.6624,-4.6491,-4.6403,-4.6403,-4.6269,-4.6046,-4.6046,-4.6001,-4.5895,-4.5895,-4.5895,-4.5895,-4.5895,-4.5895,-4.5895,-4.5895,-4.5895,-4.5895,-4.5895,-4.5895,-4.5895,-4.5895,-4.5895,-4.5895,-4.5895,-4.6185,-4.6505,-4.6749,-4.6882,-4.7143,-4.7724,-4.7521,-4.7462,-4.7753,-4.7462,-4.7143,-4.6807,-4.6505,-4.6185,-4.5895,-4.5549,-4.5367,-4.5367,-4.5064,-4.4509,-4.3729,-4.2867,-4.2065,-4.1324,-4.1324,-4.1324,-4.1324,-4.1324,-4.1324,0.0,0.0,-4.7793,-4.8577,-4.9182,-4.9452,0.0,0.0,-4.82,-4.7739,-4.7472,-4.7608,-4.8596,-4.894,-4.9224,-4.9883,-5.0391,-5.078,-5.0913,-5.1379,-5.1351,-5.0423,-5.0822,-5.1078,-5.0779,-5.0851,-5.1066,-5.1345,-5.0798,-5.0027,-4.9075,-4.9314,-4.8835,-4.7369,-4.7788,-4.7788,-4.7309,-4.7309,-4.7309,-4.7309,-4.7309,-4.7309,-4.7309,-4.7309,-4.7222,-4.7019,-4.7222,-4.7092,-4.6829,-4.7179,-4.7149,-4.7019,-4.7222,-4.7309,-4.7266,-4.7062,-4.7019,-4.6975,-4.68,-4.6712,-4.6668,-4.6668,-4.6491,-4.6314,-4.6314,-4.618,-4.6046,-4.603,-4.5956,-4.5956,-4.594,-4.5895,-4.5895,-4.5895,-4.6011,-4.6098,-4.5924,-4.5895,-4.5895,-4.5895,-4.6011,-4.6127,-4.6127,-4.665,-4.7143,-4.7242,-4.7579,-4.7945,-4.8217,-4.813,-4.8072,-4.8246,-4.784,-4.7433,-4.7085,-4.6795,-4.6388,-4.5924,-4.604,-4.604,-4.5895,-4.5895,-4.5504,-4.4741,-4.3634,-4.2604,-4.1597,-4.1398,-4.1324,-4.1324,-4.1324,-4.1324,0.0,-4.4726,0.0,-4.715,-4.7893,0.0,0.0,0.0,-4.7792,-4.8394,-4.7859,-4.7339,-4.7399,-4.7908,-4.8566,-4.9269,-4.9389,-4.9583,-5.0166,-5.0285,-5.0524,-5.1046,-5.1182,-5.1182,-5.1165,-5.1182,-5.0913,-5.0345,-4.9733,-4.9075,-4.8386,-4.7788,-4.7399,-4.7309,-4.7339,-4.7339,-4.7309,-4.7309,-4.7309,-4.7309,-4.7309,-4.7309,-4.7309,-4.7309,-4.7309,-4.7266,-4.7309,-4.7309,-4.7266,-4.7309,-4.7309,-4.7266,-4.7309,-4.7309,-4.7309,-4.7266,-4.7266,-4.7266,-4.7266,-4.7106,-4.6887,-4.6887,-4.6756,-4.658,-4.658,-4.6535,-4.6491,-4.6269,-4.618,-4.6135,-4.5956,-4.5895,-4.5895,-4.5895,-4.6359,-4.6621,-4.6011,-4.5895,-4.5895,-4.5895,-4.6359,-4.672,-4.672,-4.7317,-4.7927,-4.8537,-4.813,-4.8217,-4.9485,-4.9059,-4.8914,-4.9524,-4.9553,-4.903,-4.784,-4.8246,-4.7811,-4.5982,-4.6446,-4.6505,-4.5895,-4.5895,-4.552,-4.473,-4.462,-4.3899,-4.2457,-4.1647,-4.1324,-4.1324,-4.1324,-4.1324,0.0,0.0,0.0,-4.7159,-4.7988,-4.8591,-4.8797,-4.8761,-4.842,-4.7516,-4.7417,-4.7482,-4.7309,-4.7489,-4.7878,-4.8536,-4.8626,-4.9015,-5.0046,-5.0196,-5.0435,-5.1139,-5.1229,-5.1229,-5.1229,-5.0794,-5.0435,-5.0196,-4.9643,-4.903,-4.8327,-4.8057,-4.7728,-4.7309,-4.7309,-4.7309,-4.7309,-4.7309,-4.7309,-4.7309,-4.7309,-4.7309,-4.7309,-4.7309,-4.7309,-4.7309,-4.7309,-4.7309,-4.7309,-4.7309,-4.7309,-4.7309,-4.7309,-4.7309,-4.7309,-4.7309,-4.7309,-4.7309,-4.7309,-4.7266,-4.7149,-4.7149,-4.6975,-4.68,-4.68,-4.6712,-4.658,-4.6491,-4.6447,-4.6447,-4.6358,-4.6225,-4.6162,-4.6434,-4.665,-4.6836,-4.7056,-4.7114,-4.6969,-4.6563,-4.6998,-4.7433,-4.7433,-4.7637,-4.7985,-4.8624,-4.8537,-4.8711,-4.9601,-4.9465,-4.9407,-4.964,-4.9291,-4.8885,-4.842,-4.784,-4.7404,-4.7114,-4.694,-4.6911,-4.7085,-4.6708,-4.6338,-4.6034,-4.5143,-4.42,-4.3232,-4.2943,-4.2555,-4.2065,-4.2065,-4.1796,-4.3925,0.0,0.0,0.0,0.0,-4.8009,-4.8346,-4.8496,-4.834,-4.728,-4.7365,-4.7538,-4.7352,-4.7309,-4.7459,-4.7878,-4.7967,-4.8416,-4.9733,-4.9733,-5.0002,-5.1079,-5.102,-5.0913,-5.1199,-5.0584,-5.0106,-4.9912,-4.9314,-4.8656,-4.7997,-4.7967,-4.7758,-4.7309,-4.7309,-4.7309,-4.7309,-4.7309,-4.7309,-4.7309,-4.7309,-4.7309,-4.7309,-4.7309,-4.7309,-4.7309,-4.7309,-4.7309,-4.7309,-4.7309,-4.7309,-4.7309,-4.7309,-4.7309,-4.7309,-4.7309,-4.7309,-4.7309,-4.7309,-4.7309,-4.7309,-4.7309,-4.7149,-4.7019,-4.7019,-4.6931,-4.6829,-4.6712,-4.6712,-4.6668,-4.6653,-4.6447,-4.6519,-4.7216,-4.7282,-4.741,-4.8097,-4.8021,-4.7666,-4.723,-4.7666,-4.8101,-4.8101,-4.8275,-4.8566,-4.8972,-4.9059,-4.9204,-4.9611,-4.9717,-4.9717,-4.9717,-4.9494,-4.9204,-4.8769,-4.8362,-4.8014,-4.7782,-4.7579,-4.755,-4.7782,-4.7172,-4.6778,-4.6778,-4.5654,-4.4851,-4.4369,-4.3851,-4.3375,-4.2895,-4.3085,-4.29,0.0,0.0,0.0,0.0,0.0,0.0,-4.8235,-4.7886,-4.7404,-4.7867,-4.7764,-4.7538,-4.7352,-4.7309,-4.7309,-4.7309,-4.7309,-4.7758,-4.909,-4.876,-4.9045,-5.096,-5.0584,-5.0465,-5.1169,-5.0584,-4.9972,-4.9359,-4.87,-4.7997,-4.7339,-4.7309,-4.7309,-4.7309,-4.7309,-4.7309,-4.7309,-4.7309,-4.7309,-4.7309,-4.7309,-4.7309,-4.7309,-4.7309,-4.7309,-4.7309,-4.7309,-4.7309,-4.7309,-4.7309,-4.7309,-4.7309,-4.7309,-4.7309,-4.7309,-4.7309,-4.7309,-4.7309,-4.7309,-4.7309,-4.7309,-4.7309,-4.7309,-4.7309,-4.7309,-4.7309,-4.7266,-4.6975,-4.6931,-4.6887,-4.6697,-4.6639,-4.6963,-4.8231,-4.8295,-4.8331,-4.8975,-4.8435,-4.784,-4.7811,-4.8333,-4.874,-4.874,-4.9262,-4.9717,-4.9717,-4.9717,-4.9717,-4.9717,-4.9717,-4.9717,-4.9717,-5.0299,-5.0133,-4.8856,-4.9901,-4.9814,-4.7956,-4.8391,-4.8449,-4.7869,-4.723,-4.6836,-4.6836,-4.6272,-4.5953,-4.5924,-4.4415,-4.3634,-4.3662,-4.4222,-4.4498,-4.2725,0.0,0.0,0.0,0.0,0.0,-4.6357,-4.6625,-4.6781,-4.6763,-4.6974,-4.725,-4.7448,-4.7396,-4.7309,-4.7309,-4.7309,-4.7608,-4.8446,-4.8805,-4.9374,-5.0345,-5.0734,-5.102,-5.1199,-5.0584,-4.9972,-4.9359,-4.87,-4.7997,-4.7339,-4.7309,-4.7309,-4.7309,-4.7309,-4.7309,-4.7309,-4.7309,-4.7309,-4.7309,-4.7309,-4.7309,-4.7309,-4.7309,-4.7309,-4.7309,-4.7309,-4.7309,-4.7309,-4.7309,-4.7309,-4.7309,-4.7309,-4.7309,-4.7309,-4.7309,-4.7309,-4.7309,-4.7309,-4.7309,-4.7309,-4.7309,-4.7309,-4.7309,-4.7309,-4.7309,-4.7266,-4.7222,-4.7222,-4.7225,-4.7481,-4.7881,-4.8429,-4.9073,-4.9016,-4.9004,-4.9677,-4.9484,-4.9001,-4.8566,-4.8972,-4.9407,-4.9407,-4.9553,-4.9717,-4.9717,-4.9717,-4.9717,-4.9717,-4.9717,-4.9717,-4.9717,-4.9892,-4.9814,-4.9436,-4.932,-4.9233,-4.9146,-4.8885,-4.8856,-4.9146,-4.8537,-4.8141,-4.8141,-4.7579,-4.7259,-4.7259,-4.589,-4.4972,-4.4387,-4.4462,-4.4795,0.0,0.0,0.0,0.0,0.0,0.0,-4.5803,-4.5865,-4.5887,-4.6202,-4.6539,-4.6822,-4.728,-4.7232,-4.7237,-4.7379,-4.7439,-4.7605,-4.8251,-4.8626,-4.9194,-5.0076,-5.0524,-5.0853,-5.1199,-5.0584,-5.0016,-4.9703,-4.8805,-4.7997,-4.7339,-4.7309,-4.7309,-4.7309,-4.7309,-4.7309,-4.7309,-4.7309,-4.7309,-4.7309,-4.7309,-4.7309,-4.7309,-4.7309,-4.7309,-4.7309,-4.7309,-4.7309,-4.7309,-4.7309,-4.7309,-4.7309,-4.7309,-4.7309,-4.7309,-4.7309,-4.7352,-4.7439,-4.7352,-4.7352,-4.7439,-4.7352,-4.7309,-4.7309,-4.7309,-4.7309,-4.7369,-4.7638,-4.7908,-4.8207,-4.8388,-4.8775,-4.9177,-4.9677,-4.9639,-4.9599,-5.0246,-5.0231,-4.9873,-4.9253,-4.9407,-4.9717,-4.9717,-4.9717,-4.9717,-4.9717,-4.9717,-4.9717,-4.9717,-4.9717,-4.9717,-4.9717,-4.993,-5.0037,-4.9698,-4.9582,-4.9582,-4.9669,-4.932,-4.9291,-4.9669,-4.9059,-4.8663,-4.8663,-4.8101,-4.7782,-4.7782,-4.7027,-4.6564,-4.6346,-4.6035,-4.624,0.0,0.0,0.0,0.0,-4.4209,0.0,-4.5865,-4.5434,-4.4964,-4.5905,-4.6171,-4.6366,-4.6822,-4.6963,-4.7122,-4.7485,-4.7654,-4.7839,-4.8131,-4.8297,-4.8835,-4.9956,-5.0196,-5.0524,-5.1169,-5.0644,-5.0255,-5.0196,-4.9015,-4.7997,-4.7339,-4.7309,-4.7309,-4.7309,-4.7309,-4.7309,-4.7309,-4.7309,-4.7309,-4.7309,-4.7309,-4.7309,-4.7309,-4.7309,-4.7309,-4.7309,-4.7309,-4.7309,-4.7309,-4.7309,-4.7309,-4.7309,-4.7309,-4.7309,-4.7309,-4.7309,-4.7439,-4.7538,-4.7352,-4.7439,-4.7538,-4.7352,-4.7309,-4.7309,-4.7309,-4.7309,-4.7429,-4.8087,-4.8805,-4.9419,-4.9419,-4.9479,-4.9643,-5.0166,-5.0176,-5.0139,-5.0674,-5.0662,-5.0357,-4.9892,-4.9766,-4.9717,-4.9717,-4.9717,-4.9717,-4.9717,-4.9717,-4.9717,-4.9717,-4.9717,-4.9717,-4.9717,-5.022,-5.0386,-4.9727,-5.027,-5.0307,-4.9746,-4.9717,-4.9717,-4.9717,-4.9117,-4.8827,-4.8827,-4.8275,-4.7985,-4.7985,-4.784,-4.8101,-4.8663,-4.8159,-4.8217,0.0,0.0,0.0,-4.461,-4.488,0.0,-4.4363,-4.4825,-4.5311,-4.4995,-4.5209,-4.5703,-4.6335,-4.6752,-4.7012,-4.7092,-4.783,-4.82,-4.7592,-4.8416,-4.9209,-4.9434,-5.0391,-5.1079,-5.1199,-5.1063,-5.0764,-5.0226,-4.9015,-4.7997,-4.7339,-4.7309,-4.7309,-4.7309,-4.7309,-4.7309,-4.7309,-4.7309,-4.7309,-4.7309,-4.7309,-4.7309,-4.7309,-4.7309,-4.7309,-4.7309,-4.7309,-4.7309,-4.7309,-4.7309,-4.7309,-4.7309,-4.7309,-4.7309,-4.7309,-4.7309,-4.7309,-4.7352,-4.7309,-4.7352,-4.7352,-4.7309,-4.7309,-4.7309,-4.7309,-4.7309,-4.7429,-4.8087,-4.9134,-4.9986,-4.9986,-5.0421,-5.087,-5.099,-5.0832,-5.0674,-5.0793,-5.0662,-5.0453,-5.0357,-5.0183,-4.9941,-4.9717,-4.9717,-4.9717,-4.9717,-4.9717,-4.9717,-4.9717,-4.9717,-4.9717,-4.9717,-4.9785,-4.9814,-4.9746,-4.9785,-4.9814,-4.9746,-4.9717,-4.9717,-4.9717,-4.9553,-4.9494,-4.9494,-4.9378,-4.932,-4.932,-4.8275,-4.8101,-4.8663,-4.8595,-4.8885,0.0,0.0,0.0,-4.5003,-4.4856,0.0,0.0,-4.4363,-4.4517,-4.4178,-4.4526,-4.5156,-4.583,-4.615,-4.6488,-4.7037,-4.7497,-4.7782,-4.7666,-4.8849,-4.9763,-4.9763,-5.0631,-5.1229,-5.1229,-5.1229,-5.081,-4.9823,-4.9134,-4.8356,-4.7369,-4.7309,-4.7309,-4.7309,-4.7309,-4.7309,-4.7309,-4.7309,-4.7309,-4.7309,-4.7309,-4.7309,-4.7309,-4.7309,-4.7309,-4.7309,-4.7309,-4.7309,-4.7309,-4.7309,-4.7309,-4.7309,-4.7309,-4.7309,-4.7309,-4.7309,-4.7352,-4.7439,-4.7352,-4.7396,-4.7409,-4.7352,-4.7309,-4.7309,-4.7309,-4.7758,-4.8356,-4.8686,-4.9733,-5.0674,-5.0674,-5.0913,-5.1229,-5.1229,-5.1105,-5.1011,-5.1011,-5.0947,-5.0805,-5.071,-5.0537,-5.0346,-5.0135,-4.999,-4.9892,-4.9892,-4.9766,-4.9717,-4.9717,-4.9717,-4.9717,-4.9717,-4.9717,-4.9717,-4.9717,-4.9717,-4.9717,-4.9717,-4.9717,-4.9717,-4.9717,-4.9988,-5.0211,-5.0211,-5.0211,-5.0211,-5.0211,-4.9524,-4.9204,-4.9204,-4.9204,-4.9378,0.0,0.0,-4.4755,-4.5379,-4.4841,-4.4165,0.0,0.0,0.0,-4.3655,-4.4148,-4.4795,-4.5311,-4.5495,-4.5948,-4.6977,-4.723,-4.746,-4.8171,-4.9356,-5.0124,-5.0078,-5.0511,-5.09,-5.102,-5.09,-5.0451,-4.9523,-4.9269,-4.8626,-4.7549,-4.7369,-4.7309,-4.7309,-4.7309,-4.7309,-4.7309,-4.7309,-4.7309,-4.7309,-4.7309,-4.7309,-4.7309,-4.7309,-4.7309,-4.7309,-4.7309,-4.7309,-4.7309,-4.7309,-4.7309,-4.7309,-4.7309,-4.7309,-4.7309,-4.7309,-4.7396,-4.7495,-4.7352,-4.7439,-4.7495,-4.7352,-4.7309,-4.7339,-4.7459,-4.8327,-4.9329,-4.9404,-5.0301,-5.1229,-5.1229,-5.1229,-5.1229,-5.1229,-5.1229,-5.1229,-5.1229,-5.1229,-5.1105,-5.0917,-5.087,-5.0775,-5.0548,-5.0279,-5.0086,-5.0086,-4.9892,-4.9776,-4.9892,-4.9921,-4.9921,-4.9921,-4.9921,-4.9814,-4.9746,-4.9717,-4.9717,-4.9717,-4.9785,-4.9921,-4.9921,-5.0511,-5.0801,-5.0734,-5.0734,-5.0647,-5.0481,-5.0481,-5.0328,-4.9921,-4.9921,-4.9921,0.0,0.0,-4.5667,-4.5419,-4.5681,-4.5607,-4.4079,0.0,-4.5033,-4.387,0.0,-4.4641,-4.4702,0.0,0.0,-4.6533,-4.7497,-4.837,-4.9042,-4.9617,-4.9882,-4.9689,-4.9569,-4.9703,-5.0255,-4.9823,-4.9673,-5.0046,-4.9045,-4.8327,-4.8177,-4.7608,-4.7309,-4.7309,-4.7309,-4.7309,-4.7309,-4.7309,-4.7309,-4.7309,-4.7309,-4.7309,-4.7309,-4.7309,-4.7309,-4.7309,-4.7309,-4.7309,-4.7309,-4.7309,-4.7309,-4.7309,-4.7309,-4.7309,-4.7309,-4.7309,-4.7309,-4.7352,-4.7309,-4.7309,-4.7352,-4.7309,-4.7309,-4.7429,-4.7997,-4.8686,-4.9419,-4.9972,-5.0661,-5.1229,-5.1229,-5.1229,-5.1229,-5.1229,-5.1229,-5.1229,-5.1229,-5.1229,-5.1182,-5.1182,-5.1152,-5.1041,-5.0596,-5.0279,-5.0086,-5.0086,-4.9892,-4.9872,-5.0481,-5.0618,-5.0618,-5.0618,-5.0618,-5.0386,-4.9727,-4.9717,-4.9717,-4.9717,-5.027,-5.0618,-5.0618,-5.1178,-5.1265,-5.0685,-5.0734,-5.0394,-4.9785,-4.9785,-5.0095,-5.0618,-5.0618,-5.0618,0.0,0.0,-4.5253,-4.5616,-4.5361,-4.4791,-4.4167,-4.445,-4.4611,-4.3771,0.0,0.0,0.0,0.0,0.0,0.0,-4.6272,-4.6804,-4.7476,-4.7562,-4.8079,-4.9432,-4.9281,-4.9131,-4.9254,-4.9284,-4.9224,-4.9105,-4.8596,-4.8117,-4.7728,-4.7459,-4.7309,-4.7309,-4.7309,-4.7309,-4.7309,-4.7309,-4.7309,-4.7309,-4.7309,-4.7309,-4.7309,-4.7309,-4.7309,-4.7309,-4.7309,-4.7309,-4.7309,-4.7309,-4.7309,-4.7309,-4.7309,-4.7309,-4.7309,-4.7309,-4.7309,-4.7309,-4.7309,-4.7309,-4.7309,-4.7309,-4.7309,-4.7369,-4.7638,-4.8446,-4.9449,-5.0016,-5.0674,-5.1319,-5.1678,-5.1498,-5.1229,-5.1229,-5.1229,-5.1229,-5.1229,-5.1229,-5.1229,-5.1229,-5.1528,-5.175,-5.1512,-5.1272,-5.108,-5.108,-5.118,-5.1385,-5.1648,-5.1558,-5.1458,-5.1458,-5.1308,-5.112,-5.083,-5.0801,-5.0801,-5.0801,-5.1062,-5.1381,-5.181,-5.1672,-5.1497,-5.1236,-5.1207,-5.0917,-5.0299,-5.0299,-5.0598,-5.1207,-5.0452,-5.0104,-4.5721,-4.5421,-4.5202,-4.5748,-4.5152,-4.4373,-4.4242,-4.4342,-4.438,-4.4044,-4.4511,0.0,0.0,0.0,-4.5194,-4.5528,0.0,-4.5874,-4.6548,-4.6325,-4.6791,-4.8732,-4.8702,-4.8538,-4.8618,-4.8669,-4.864,-4.8297,-4.8117,-4.7818,-4.7339,-4.7309,-4.7309,-4.7309,-4.7309,-4.7309,-4.7309,-4.7309,-4.7309,-4.7309,-4.7309,-4.7309,-4.7309,-4.7309,-4.7309,-4.7309,-4.7309,-4.7309,-4.7309,-4.7352,-4.7396,-4.7396,-4.7482,-4.7495,-4.7482,-4.7352,-4.7309,-4.7309,-4.7309,-4.7309,-4.7309,-4.7309,-4.7429,-4.7608,-4.7788,-4.8626,-4.9673,-5.0331,-5.0794,-5.1319,-5.1798,-5.1558,-5.1229,-5.1229,-5.1229,-5.1229,-5.1229,-5.1349,-5.1498,-5.1498,-5.2007,-5.2456,-5.2456,-5.2096,-5.1843,-5.207,-5.2142,-5.2269,-5.2523,-5.2352,-5.2281,-5.2179,-5.1977,-5.1817,-5.1643,-5.1468,-5.1497,-5.1846,-5.1875,-5.2252,-5.3065,-5.2659,-5.2252,-5.1875,-5.1875,-5.1556,-5.0946,-5.0946,-5.1178,-5.1585,-5.0481,-5.0182,-4.6112,-4.6262,-4.6154,-4.5744,-4.5574,-4.5293,-4.4222,-4.4513,-4.4968,-4.4968,-4.5445,-4.586,-4.586,0.0,0.0,0.0,0.0,0.0,0.0,-4.7004,-4.676,-4.7282,-4.7546,-4.7925,-4.8558,-4.7859,-4.7608,-4.8237,-4.7698,-4.7339,-4.7309,-4.7309,-4.7309,-4.7309,-4.7309,-4.7309,-4.7309,-4.7309,-4.7309,-4.7309,-4.7309,-4.7309,-4.7309,-4.7309,-4.7309,-4.7309,-4.7309,-4.7309,-4.7309,-4.7495,-4.7581,-4.7624,-4.788,-4.7964,-4.7922,-4.7482,-4.7309,-4.7309,-4.7309,-4.7309,-4.7309,-4.7309,-4.7728,-4.8386,-4.906,-4.9673,-5.0285,-5.099,-5.1199,-5.1229,-5.1259,-5.1229,-5.1229,-5.1229,-5.1229,-5.1229,-5.1229,-5.1708,-5.2157,-5.2157,-5.2695,-5.3144,-5.3144,-5.2394,-5.1992,-5.2664,-5.2082,-5.1896,-5.2858,-5.2953,-5.2851,-5.2594,-5.2594,-5.2281,-5.1672,-5.1062,-5.1236,-5.2507,-5.2594,-5.3123,-5.44,-5.4429,-5.382,-5.2623,-5.2594,-5.2223,-5.1585,-5.1585,-5.1585,-5.1614,-5.0946,-5.1345,-4.692,-4.6651,-4.6262,-4.6107,-4.5387,-4.4689,-4.4438,-4.4578,-4.48,-4.4989,-4.5465,-4.5879,-4.5879,0.0,0.0,0.0,0.0,0.0,0.0,-4.5602,-4.5526,-4.6085,-4.6782,-4.7292,-4.7534,-4.7111,-4.6881,-4.698,-4.6352,-4.6172,-4.6621,-4.6651,-4.686,-4.7309,-4.7309,-4.7309,-4.7309,-4.7309,-4.7309,-4.7309,-4.7309,-4.7309,-4.7309,-4.7309,-4.7309,-4.7309,-4.7409,-4.7525,-4.7495,-4.7752,-4.788,-4.788,-4.7964,-4.8007,-4.7964,-4.7794,-4.7624,-4.7452,-4.7352,-4.7309,-4.7309,-4.7309,-4.7758,-4.8327,-4.8566,-4.9374,-5.0315,-5.0973,-5.1229,-5.1409,-5.2276,-5.2187,-5.1977,-5.2426,-5.2187,-5.1858,-5.1858,-5.2037,-5.2187,-5.2187,-5.3114,-5.3862,-5.3862,-5.3584,-5.3475,-5.3684,-5.3844,-5.4042,-5.4387,-5.4294,-5.417,-5.4038,-5.37,-5.3354,-5.3121,-5.3169,-5.3559,-5.44,-5.4081,-5.4052,-5.4487,-5.4081,-5.3442,-5.2652,-5.2623,-5.2252,-5.1614,-5.1614,-5.1846,-5.2223,-5.1614,-5.1527,-4.6907,-4.6651,-4.6279,-4.6279,-4.5622,-4.4986,-4.4869,-4.503,-4.5251,-4.5444,-4.5988,-4.6399,-4.6399,-4.6482,0.0,0.0,0.0,0.0,0.0,-4.4987,-4.5187,-4.5865,-4.6437,-4.6741,0.0,0.0,-4.6334,-4.5633,-4.5424,0.0,-4.5933,-4.6202,-4.6621,-4.7279,-4.7309,-4.7309,-4.7309,-4.7309,-4.7309,-4.7309,-4.7309,-4.7309,-4.7309,-4.7309,-4.7309,-4.7309,-4.7439,-4.7495,-4.7495,-4.7752,-4.7837,-4.788,-4.8049,-4.8091,-4.8091,-4.8049,-4.7837,-4.7581,-4.7538,-4.7439,-4.7339,-4.7665,-4.8175,-4.8686,-4.8895,-4.9733,-5.0644,-5.1109,-5.1229,-5.1409,-5.2247,-5.2336,-5.2306,-5.2725,-5.2695,-5.2546,-5.2546,-5.2725,-5.2995,-5.3204,-5.3952,-5.47,-5.5149,-5.5059,-5.491,-5.491,-5.488,-5.5039,-5.5675,-5.5351,-5.5167,-5.5301,-5.4988,-5.4573,-5.4104,-5.4533,-5.4929,-5.523,-5.5084,-5.506,-5.5184,-5.4778,-5.4342,-5.3936,-5.3704,-5.3384,-5.2978,-5.2746,-5.2746,-5.2891,-5.2484,-5.2281]},{"header":{"parameterUnit":"m.s-1","parameterCategory":1,"la1":30.6,"la2":29.2853,"lo1":-89.7004,"lo2":-87.6739,"dy":0.0162,"dx":0.0183,"nx":112,"ny":82,"refTime":"2024-04-14T18:00:00:Z","depth":0,"parameterNumber":3,"parameterNumberName":"V-component_of_WINDS"},"data":[0.0,0.0,0.0,0.0,0.0,0.0,0.0,0.0,0.0,0.0,0.0,0.0,0.0,0.0,0.0,0.0,0.0,0.0,0.0,0.0,0.0,0.0,0.0,0.0,0.0,0.0,0.0,0.0,0.0,0.0,0.0,0.0,0.0,0.0,0.0,0.0,0.0,0.0,0.0,0.0,0.0,0.0,0.0,0.0,0.0,0.0,0.0,0.0,0.0,0.0,0.0,0.0,0.0,0.0,0.0,0.0,0.0,0.0,0.0,0.0,0.0,0.0,0.0,0.0,0.0,0.0,0.0,0.0,0.0,0.0,0.0,0.0,0.0,0.0,0.0,0.0,0.0,0.0,0.0,0.0,0.0,0.0,0.0,0.0,0.0,0.0,0.0,0.0,0.0,0.0,3.1101,3.0629,3.252,3.387,3.3852,3.3601,3.2129,2.9249,0.0,0.0,0.0,0.0,0.0,0.0,0.0,0.0,0.0,0.0,0.0,0.0,0.0,0.0,0.0,0.0,0.0,0.0,0.0,0.0,0.0,0.0,0.0,0.0,0.0,0.0,0.0,0.0,0.0,0.0,0.0,0.0,0.0,0.0,0.0,0.0,0.0,0.0,0.0,0.0,0.0,0.0,0.0,0.0,0.0,0.0,0.0,0.0,0.0,0.0,0.0,0.0,0.0,0.0,0.0,0.0,0.0,0.0,0.0,0.0,0.0,0.0,0.0,0.0,0.0,0.0,0.0,0.0,0.0,0.0,0.0,0.0,0.0,0.0,0.0,0.0,0.0,0.0,0.0,0.0,0.0,0.0,0.0,0.0,0.0,0.0,0.0,0.0,0.0,0.0,0.0,0.0,0.0,0.0,0.0,0.0,0.0,0.0,0.0,0.0,0.0,0.0,0.0,0.0,3.2535,3.466,3.5838,3.6482,3.655,3.5475,3.3667,3.1134,0.0,0.0,0.0,0.0,0.0,0.0,0.0,0.0,0.0,0.0,0.0,0.0,0.0,0.0,0.0,0.0,0.0,0.0,0.0,0.0,0.0,0.0,0.0,0.0,0.0,0.0,0.0,0.0,0.0,0.0,0.0,0.0,0.0,0.0,0.0,0.0,0.0,0.0,0.0,0.0,0.0,0.0,0.0,0.0,0.0,0.0,0.0,0.0,0.0,0.0,0.0,0.0,0.0,0.0,0.0,0.0,0.0,0.0,0.0,0.0,0.0,0.0,0.0,0.0,0.0,0.0,0.0,0.0,0.0,0.0,0.0,0.0,0.0,0.0,0.0,0.0,0.0,0.0,0.0,0.0,0.0,0.0,0.0,0.0,0.0,0.0,0.0,0.0,0.0,0.0,0.0,0.0,0.0,0.0,0.0,0.0,0.0,0.0,0.0,0.0,0.0,0.0,0.0,3.2418,3.3518,3.6436,3.6749,3.6918,3.7401,3.6214,3.4595,3.245,3.12,0.0,0.0,0.0,0.0,0.0,0.0,0.0,0.0,0.0,0.0,0.0,0.0,0.0,0.0,0.0,0.0,0.0,0.0,0.0,0.0,0.0,0.0,0.0,0.0,0.0,0.0,0.0,0.0,0.0,0.0,0.0,0.0,0.0,0.0,0.0,0.0,0.0,0.0,0.0,0.0,0.0,0.0,0.0,0.0,0.0,0.0,0.0,0.0,0.0,0.0,0.0,0.0,0.0,0.0,0.0,0.0,0.0,0.0,0.0,0.0,0.0,0.0,0.0,0.0,0.0,0.0,0.0,0.0,0.0,0.0,0.0,0.0,0.0,0.0,0.0,0.0,0.0,0.0,0.0,0.0,0.0,0.0,0.0,0.0,0.0,0.0,0.0,0.0,0.0,0.0,0.0,0.0,0.0,0.0,0.0,0.0,0.0,0.0,0.0,0.0,0.0,0.0,3.3793,3.437,3.7156,3.6851,3.6734,3.7402,3.6314,3.4875,3.3175,3.2102,0.0,0.0,0.0,0.0,0.0,0.0,0.0,0.0,0.0,0.0,0.0,0.0,0.0,0.0,0.0,0.0,0.0,0.0,0.0,0.0,0.0,0.0,0.0,0.0,0.0,0.0,0.0,0.0,0.0,0.0,0.0,0.0,0.0,0.0,0.0,0.0,0.0,0.0,0.0,0.0,0.0,0.0,0.0,0.0,0.0,0.0,0.0,0.0,0.0,0.0,0.0,0.0,0.0,0.0,0.0,0.0,0.0,0.0,0.0,0.0,0.0,0.0,0.0,0.0,0.0,0.0,0.0,0.0,0.0,0.0,0.0,0.0,0.0,0.0,0.0,0.0,0.0,0.0,0.0,0.0,0.0,0.0,0.0,0.0,0.0,0.0,0.0,0.0,0.0,0.0,0.0,0.0,0.0,0.0,0.0,0.0,0.0,0.0,0.0,0.0,0.0,0.0,3.4176,3.5231,3.6678,3.6802,3.6802,3.6885,3.5624,3.4366,3.3103,3.1573,0.0,0.0,0.0,0.0,0.0,0.0,0.0,0.0,0.0,0.0,0.0,0.0,0.0,0.0,0.0,0.0,0.0,0.0,0.0,0.0,0.0,0.0,0.0,0.0,0.0,0.0,0.0,0.0,0.0,0.0,0.0,0.0,0.0,0.0,0.0,0.0,0.0,0.0,0.0,0.0,0.0,0.0,0.0,0.0,0.0,0.0,0.0,0.0,0.0,0.0,0.0,0.0,0.0,0.0,0.0,0.0,0.0,0.0,0.0,0.0,0.0,0.0,0.0,0.0,0.0,0.0,0.0,0.0,0.0,0.0,0.0,0.0,0.0,0.0,0.0,0.0,0.0,0.0,0.0,0.0,0.0,0.0,0.0,0.0,0.0,0.0,0.0,0.0,0.0,0.0,0.0,0.0,0.0,0.0,0.0,0.0,0.0,0.0,0.0,0.0,0.0,0.0,3.3513,3.4527,3.6204,3.637,3.637,3.637,3.5625,3.4488,3.2905,0.0,0.0,0.0,0.0,0.0,0.0,0.0,0.0,0.0,0.0,0.0,0.0,0.0,0.0,0.0,0.0,0.0,0.0,0.0,0.0,0.0,0.0,0.0,0.0,0.0,0.0,0.0,0.0,0.0,0.0,0.0,0.0,0.0,0.0,0.0,0.0,0.0,0.0,0.0,0.0,0.0,0.0,0.0,0.0,0.0,0.0,0.0,0.0,0.0,0.0,0.0,0.0,0.0,0.0,0.0,0.0,0.0,0.0,0.0,0.0,0.0,0.0,0.0,0.0,0.0,0.0,0.0,0.0,0.0,0.0,0.0,0.0,0.0,0.0,0.0,0.0,0.0,0.0,0.0,0.0,0.0,0.0,0.0,0.0,0.0,0.0,0.0,0.0,0.0,0.0,0.0,0.0,0.0,0.0,0.0,0.0,0.0,0.0,0.0,0.0,0.0,0.0,3.2256,3.3141,3.4134,3.5542,3.5687,3.5687,3.5687,3.4859,3.3765,3.2545,0.0,0.0,0.0,0.0,0.0,0.0,0.0,0.0,0.0,0.0,0.0,0.0,0.0,0.0,0.0,0.0,0.0,0.0,0.0,0.0,0.0,0.0,0.0,0.0,0.0,0.0,0.0,0.0,0.0,0.0,0.0,0.0,0.0,0.0,0.0,0.0,0.0,0.0,0.0,0.0,0.0,0.0,0.0,0.0,0.0,0.0,0.0,0.0,0.0,0.0,0.0,0.0,0.0,0.0,0.0,0.0,0.0,0.0,0.0,0.0,0.0,0.0,0.0,0.0,0.0,0.0,0.0,0.0,0.0,0.0,0.0,0.0,0.0,0.0,0.0,0.0,0.0,0.0,0.0,0.0,0.0,0.0,0.0,0.0,0.0,0.0,0.0,0.0,0.0,0.0,0.0,0.0,0.0,0.0,0.0,0.0,0.0,0.0,0.0,0.0,0.0,0.0,3.1919,3.3281,3.4297,3.4754,3.4816,3.4816,3.4816,3.3078,3.1988,0.0,0.0,0.0,0.0,0.0,0.0,0.0,0.0,0.0,0.0,0.0,0.0,0.0,0.0,0.0,0.0,0.0,0.0,0.0,0.0,0.0,0.0,0.0,0.0,0.0,0.0,0.0,0.0,0.0,0.0,0.0,0.0,0.0,0.0,0.0,0.0,0.0,0.0,0.0,0.0,0.0,0.0,0.0,0.0,0.0,0.0,0.0,0.0,0.0,0.0,0.0,0.0,0.0,0.0,0.0,0.0,0.0,0.0,0.0,0.0,0.0,0.0,0.0,0.0,0.0,0.0,0.0,0.0,0.0,0.0,0.0,0.0,0.0,0.0,0.0,0.0,0.0,0.0,0.0,0.0,0.0,0.0,0.0,0.0,0.0,0.0,0.0,0.0,0.0,0.0,0.0,0.0,0.0,0.0,0.0,0.0,0.0,0.0,0.0,0.0,0.0,0.0,0.0,3.2491,3.4401,3.5738,3.5662,3.5408,3.5061,3.4779,3.3341,3.225,3.1609,0.0,0.0,0.0,0.0,0.0,0.0,0.0,0.0,0.0,0.0,0.0,0.0,0.0,0.0,0.0,0.0,0.0,0.0,0.0,0.0,0.0,0.0,0.0,0.0,0.0,0.0,0.0,0.0,0.0,0.0,0.0,0.0,0.0,0.0,0.0,0.0,0.0,0.0,0.0,0.0,0.0,0.0,0.0,0.0,0.0,0.0,0.0,0.0,0.0,0.0,0.0,0.0,0.0,0.0,0.0,0.0,0.0,0.0,0.0,0.0,0.0,0.0,0.0,0.0,0.0,0.0,0.0,0.0,0.0,0.0,0.0,0.0,0.0,0.0,0.0,0.0,0.0,0.0,0.0,0.0,0.0,0.0,0.0,0.0,0.0,0.0,0.0,0.0,0.0,0.0,0.0,0.0,0.0,0.0,0.0,0.0,0.0,0.0,0.0,0.0,0.0,0.0,3.3479,3.516,3.6372,3.633,3.6115,3.5896,3.5587,3.427,3.3192,3.2436,0.0,0.0,0.0,0.0,0.0,0.0,0.0,0.0,0.0,0.0,0.0,0.0,0.0,0.0,0.0,0.0,0.0,0.0,0.0,0.0,0.0,0.0,0.0,0.0,0.0,0.0,0.0,0.0,0.0,0.0,0.0,0.0,0.0,0.0,0.0,0.0,0.0,0.0,0.0,0.0,0.0,0.0,0.0,0.0,0.0,0.0,0.0,0.0,0.0,0.0,0.0,0.0,0.0,0.0,0.0,0.0,0.0,0.0,0.0,0.0,0.0,0.0,0.0,0.0,0.0,0.0,0.0,0.0,0.0,0.0,0.0,0.0,0.0,0.0,0.0,0.0,0.0,0.0,0.0,0.0,0.0,0.0,0.0,0.0,0.0,0.0,0.0,0.0,0.0,0.0,0.0,0.0,0.0,0.0,0.0,0.0,0.0,0.0,0.0,0.0,0.0,0.0,3.4693,3.5663,3.6503,3.6965,3.6902,3.687,3.6971,3.5557,3.4492,3.405,0.0,0.0,0.0,0.0,0.0,0.0,0.0,0.0,0.0,0.0,0.0,0.0,0.0,0.0,0.0,0.0,0.0,0.0,0.0,0.0,0.0,0.0,0.0,0.0,0.0,0.0,0.0,0.0,0.0,0.0,0.0,0.0,0.0,0.0,0.0,0.0,0.0,0.0,0.0,0.0,0.0,0.0,0.0,0.0,0.0,0.0,0.0,0.0,0.0,0.0,0.0,0.0,0.0,0.0,0.0,0.0,0.0,0.0,0.0,0.0,3.8965,3.8216,0.0,0.0,0.0,0.0,0.0,0.0,0.0,0.0,0.0,0.0,0.0,0.0,0.0,0.0,0.0,0.0,0.0,0.0,0.0,0.0,0.0,0.0,0.0,0.0,0.0,0.0,0.0,0.0,0.0,0.0,0.0,0.0,0.0,0.0,0.0,0.0,0.0,0.0,0.0,0.0,3.5667,3.6945,3.7865,3.7712,3.71,3.6857,3.7316,3.5675,3.4801,3.5128,3.3889,0.0,0.0,0.0,0.0,0.0,0.0,0.0,0.0,0.0,0.0,0.0,0.0,0.0,0.0,0.0,0.0,0.0,0.0,0.0,0.0,0.0,0.0,0.0,0.0,0.0,0.0,0.0,0.0,0.0,0.0,0.0,0.0,0.0,0.0,0.0,0.0,0.0,0.0,0.0,0.0,0.0,0.0,0.0,0.0,0.0,0.0,0.0,0.0,0.0,0.0,0.0,0.0,0.0,0.0,0.0,0.0,0.0,0.0,0.0,4.0083,3.9198,0.0,0.0,0.0,0.0,0.0,0.0,0.0,0.0,0.0,0.0,0.0,0.0,0.0,0.0,0.0,0.0,0.0,0.0,0.0,0.0,0.0,0.0,0.0,0.0,0.0,0.0,0.0,0.0,0.0,0.0,0.0,0.0,0.0,0.0,0.0,0.0,0.0,0.0,0.0,0.0,3.6468,3.7455,3.8201,3.8334,3.794,3.7792,3.8066,3.6949,3.6235,3.626,3.5475,0.0,0.0,0.0,0.0,0.0,0.0,0.0,0.0,0.0,0.0,0.0,0.0,0.0,0.0,0.0,0.0,0.0,0.0,0.0,0.0,0.0,0.0,0.0,0.0,0.0,0.0,0.0,0.0,0.0,0.0,0.0,0.0,0.0,0.0,0.0,0.0,0.0,0.0,0.0,0.0,0.0,0.0,0.0,0.0,0.0,0.0,0.0,0.0,0.0,0.0,0.0,0.0,0.0,4.3038,4.3374,4.3788,4.4801,4.5088,4.4553,4.1714,4.0727,4.0927,3.9702,0.0,0.0,0.0,0.0,0.0,0.0,0.0,0.0,0.0,0.0,0.0,0.0,0.0,0.0,0.0,0.0,0.0,0.0,0.0,0.0,0.0,0.0,3.9272,3.9626,3.9348,3.8741,3.7731,0.0,0.0,0.0,0.0,0.0,0.0,0.0,0.0,0.0,0.0,0.0,3.7196,3.7612,3.81,3.8589,3.864,3.8666,3.8768,3.8229,3.7741,3.7428,3.7222,3.6386,0.0,0.0,0.0,0.0,0.0,0.0,0.0,0.0,0.0,0.0,0.0,0.0,0.0,0.0,0.0,0.0,0.0,0.0,0.0,0.0,0.0,0.0,0.0,0.0,0.0,0.0,0.0,0.0,0.0,0.0,0.0,0.0,3.9113,3.9568,0.0,0.0,0.0,0.0,0.0,0.0,0.0,0.0,0.0,0.0,0.0,0.0,0.0,4.4827,4.6998,4.747,4.7545,4.7222,4.7757,4.7782,4.7383,4.712,4.7207,4.7495,4.6561,0.0,4.3218,4.2797,0.0,0.0,0.0,0.0,0.0,0.0,0.0,0.0,0.0,0.0,0.0,0.0,0.0,0.0,0.0,0.0,0.0,0.0,0.0,0.0,0.0,0.0,4.0109,3.9745,3.9589,3.9485,3.9329,3.8748,3.8333,3.8347,3.6785,3.5628,0.0,0.0,0.0,0.0,0.0,0.0,3.773,3.7886,3.7938,3.8017,3.8043,3.8225,3.8694,3.8225,3.8095,3.8486,3.7573,3.7046,3.7062,3.6767,0.0,0.0,0.0,0.0,0.0,0.0,0.0,0.0,0.0,0.0,0.0,0.0,0.0,0.0,0.0,0.0,0.0,0.0,0.0,0.0,0.0,0.0,0.0,0.0,0.0,0.0,0.0,0.0,0.0,3.9668,4.0496,4.1411,4.1314,4.1053,0.0,0.0,0.0,0.0,0.0,0.0,0.0,0.0,0.0,4.6167,4.6687,4.7458,4.8548,4.9103,4.9517,4.9895,5.0341,5.0623,5.0634,5.0639,5.0397,4.9952,4.9367,4.8226,4.6557,4.4811,4.3355,4.2084,0.0,0.0,0.0,0.0,4.0067,3.9617,4.04,4.0277,3.9722,3.9948,0.0,0.0,0.0,0.0,0.0,0.0,0.0,4.035,3.9936,4.0392,4.0853,4.0618,4.0566,4.0461,4.0148,3.9518,3.891,3.8385,3.7215,3.6204,3.5789,3.5124,0.0,0.0,0.0,3.6593,3.6854,3.7482,3.79,3.79,3.79,3.8004,3.824,3.8031,3.7874,3.7769,3.7273,3.6784,3.6259,3.6285,3.6137,0.0,0.0,0.0,0.0,0.0,0.0,0.0,0.0,0.0,0.0,0.0,0.0,0.0,0.0,0.0,0.0,0.0,0.0,0.0,0.0,0.0,0.0,0.0,0.0,0.0,0.0,0.0,0.0,4.1715,4.2483,4.3241,4.375,4.3822,0.0,0.0,0.0,0.0,0.0,0.0,4.6506,4.7414,4.823,4.9101,4.966,5.0066,5.0499,5.0867,5.1503,5.2276,5.2608,5.2879,5.3222,5.3402,5.2942,5.1923,5.1331,5.0455,4.9245,4.6399,4.4839,4.4068,4.2511,4.16,4.1087,4.1549,4.1172,4.0589,4.1478,4.1176,4.0388,4.0721,4.0617,4.0218,3.9696,0.0,0.0,0.0,0.0,4.1285,4.1576,4.1656,4.1656,4.1656,4.1501,4.1263,4.0909,4.0304,3.9527,3.8358,3.7508,3.6724,3.5887,3.5234,0.0,3.5051,3.5783,3.6384,3.6541,3.7351,3.79,3.79,3.79,3.79,3.79,3.7769,3.7482,3.7037,3.6854,3.6384,3.5547,3.5887,3.5861,3.5312,0.0,0.0,0.0,0.0,0.0,0.0,0.0,0.0,0.0,0.0,0.0,0.0,0.0,0.0,0.0,0.0,0.0,0.0,0.0,0.0,0.0,0.0,0.0,0.0,0.0,0.0,0.0,0.0,0.0,4.4827,4.7582,0.0,0.0,0.0,0.0,4.7075,4.7101,4.7561,4.839,4.9011,5.0078,5.1845,5.2414,5.3374,5.4797,5.4849,5.4901,5.4887,5.4953,5.4953,5.498,5.4405,5.3831,5.3257,5.2656,5.1742,5.0515,4.7814,4.6059,4.4992,4.3862,4.3085,4.2605,4.2548,4.2474,4.2501,4.284,4.2579,4.2315,4.3531,4.3692,4.3306,4.2645,4.2499,0.0,0.0,4.2968,4.3326,4.2747,4.2609,4.2516,4.2516,4.2103,4.1737,4.191,4.1276,4.0341,3.8938,3.7769,3.6985,3.6933,0.0,3.6201,3.6776,3.6933,3.7168,3.7743,3.7874,3.79,3.79,3.79,3.79,3.79,3.7377,3.7037,3.7011,3.6462,3.6123,3.607,3.6096,3.5861,3.5312,3.5338,0.0,0.0,0.0,0.0,0.0,0.0,0.0,0.0,0.0,0.0,0.0,0.0,0.0,0.0,0.0,0.0,0.0,0.0,0.0,0.0,0.0,0.0,0.0,0.0,0.0,0.0,0.0,0.0,4.8614,5.0414,0.0,4.9074,4.9103,4.9064,4.8646,4.9387,5.0253,5.1331,5.2091,5.2958,5.4026,5.4261,5.4548,5.5099,5.5099,5.5099,5.5099,5.4707,5.4524,5.4497,5.3949,5.3164,5.2197,5.1648,5.0943,5.0054,4.8003,4.6918,4.6435,4.5311,4.4268,4.3512,4.3828,4.3546,4.3141,4.4013,4.3758,4.3118,4.3218,4.2901,4.2491,4.227,4.2463,4.2694,4.2694,4.3164,4.3579,4.3471,4.3138,4.2907,4.3018,4.2544,4.1987,4.1758,4.1435,4.1007,4.0107,3.9087,3.8369,3.8369,3.7853,3.7501,3.7745,3.8098,3.8276,3.806,3.8317,3.8349,3.7946,3.79,3.7743,3.7351,3.7116,3.6698,3.594,3.5704,3.5417,3.5025,3.4999,3.492,3.4711,3.513,3.5024,0.0,0.0,0.0,0.0,0.0,0.0,0.0,0.0,0.0,0.0,0.0,0.0,0.0,0.0,0.0,0.0,0.0,0.0,0.0,0.0,0.0,0.0,0.0,0.0,0.0,4.7873,5.0099,5.1398,5.3337,5.3942,5.2114,5.2265,5.2154,5.1409,5.2078,5.288,5.3595,5.4183,5.468,5.5099,5.5099,5.5099,5.5099,5.5099,5.5299,5.5578,5.5182,5.5087,5.5199,5.464,5.3707,5.2535,5.1888,5.1256,5.0404,4.9014,4.811,4.7498,4.6396,4.5579,4.4996,4.5209,4.472,4.4045,4.4641,4.4568,4.4188,4.3594,4.3164,4.2913,4.2913,4.3195,4.3403,4.3296,4.3832,4.4442,4.422,4.3868,4.3499,4.3434,4.2908,4.2381,4.2067,4.1938,4.1824,4.1493,4.0435,3.9589,3.9589,3.927,3.8992,3.8992,3.9354,3.9418,3.9015,3.9256,3.9282,3.8863,3.8756,3.847,3.7811,3.7571,3.702,3.6018,3.5607,3.5207,3.4766,3.4512,3.4553,3.482,3.5534,3.5683,3.5251,0.0,0.0,0.0,0.0,0.0,0.0,0.0,0.0,0.0,0.0,0.0,0.0,0.0,0.0,0.0,0.0,0.0,0.0,0.0,0.0,0.0,0.0,0.0,4.6872,5.0544,5.3096,5.3046,5.6438,5.7791,5.5018,5.6018,5.6405,5.5255,5.5151,5.5125,5.5125,5.5125,5.5099,5.5099,5.5099,5.5165,5.5165,5.5165,5.5644,5.6612,5.6585,5.6803,5.7114,5.6451,5.5453,5.4295,5.3634,5.2669,5.1595,5.0933,4.9719,4.8039,4.7162,4.6915,4.6964,4.6463,4.5856,4.5249,4.474,4.5001,4.5506,4.4929,4.476,4.485,4.485,4.485,4.4778,4.4383,4.5201,4.5918,4.4873,4.4604,4.4428,4.3838,4.323,4.2769,4.2941,4.285,4.2769,4.2981,4.174,4.0689,4.0689,4.0689,4.0689,4.0689,4.0689,0.0,4.0646,4.0646,4.0646,4.0603,4.0417,4.0037,3.9326,3.8783,3.8047,3.7234,3.627,3.5603,3.5399,3.4754,3.4813,3.5729,3.648,3.6905,3.6905,0.0,0.0,0.0,0.0,0.0,0.0,0.0,0.0,0.0,0.0,0.0,0.0,0.0,0.0,0.0,0.0,0.0,0.0,0.0,0.0,0.0,4.6939,4.9873,5.0635,5.2573,5.4956,5.7487,5.9123,5.9549,5.8198,5.847,5.8026,5.6458,5.5935,5.5674,5.5674,5.5308,5.5099,5.5099,5.5776,5.6209,5.6209,5.6898,5.7195,5.7039,5.6573,5.6239,5.5878,5.4741,5.383,5.3085,5.2037,5.107,5.0299,4.9278,4.8903,4.8869,4.7515,4.6511,4.5779,4.5613,4.5567,4.5532,4.5502,4.5355,4.5059,4.4886,4.4602,4.424,4.424,4.424,4.4255,4.4123,4.4428,4.4776,4.4637,4.4364,4.4187,4.4132,4.3607,4.313,4.321,4.317,4.3021,4.2623,4.2534,4.2496,4.217,4.2129,4.2129,4.2129,4.2129,4.1964,4.1464,4.1423,4.1184,4.0646,4.056,4.0097,3.9032,3.8779,3.7982,3.6353,3.5973,3.5843,3.5767,3.5143,3.534,3.655,3.6316,3.6514,0.0,0.0,0.0,0.0,0.0,0.0,0.0,0.0,0.0,0.0,0.0,0.0,0.0,0.0,0.0,0.0,0.0,0.0,0.0,0.0,0.0,0.0,4.9761,5.275,5.4694,5.5471,5.6978,5.996,6.0531,6.0553,6.0169,5.9647,5.8758,5.7268,5.6379,5.5804,5.5595,5.563,5.571,5.571,5.6704,5.7221,5.7221,5.755,5.7751,5.7852,5.721,5.6637,5.6181,5.5193,5.4262,5.3387,5.2091,5.133,5.0932,4.9385,4.89,4.8916,0.0,0.0,0.0,0.0,4.5638,4.5705,4.5557,4.5198,4.485,4.4589,4.4095,4.3573,4.3573,4.3573,4.3557,4.3465,4.3926,4.4389,4.4122,4.4121,4.4094,4.3917,4.3559,4.329,4.329,4.329,4.32,4.2851,4.306,0.0,4.297,4.293,4.293,4.293,4.293,4.2809,4.2444,4.2363,4.2211,4.1811,4.1657,4.1213,4.0274,3.9917,0.0,0.0,0.0,3.6265,3.5934,3.5892,0.0,0.0,0.0,3.7659,3.8164,3.8237,0.0,0.0,3.7568,3.7424,0.0,0.0,0.0,0.0,0.0,0.0,0.0,0.0,0.0,0.0,0.0,0.0,0.0,0.0,0.0,0.0,5.2521,5.4883,5.8295,5.8387,5.8843,6.0932,6.1163,6.1084,6.1032,5.996,5.881,5.7808,5.6699,5.5902,5.543,5.6263,0.0,0.0,0.0,5.8277,5.8277,5.7786,5.7948,5.8778,5.8093,5.7538,5.7187,5.6578,5.5591,5.4342,5.3036,5.242,5.2107,5.0336,4.9127,4.8412,4.7624,4.7425,4.7433,4.6301,4.5837,4.5692,4.5082,0.0,0.0,4.4037,4.3427,4.2905,4.2905,4.2918,4.2886,4.2743,4.3514,4.4258,4.3468,4.3708,4.4047,4.3439,4.329,4.329,4.329,4.329,4.326,4.32,4.323,4.326,4.32,4.323,4.329,4.329,4.329,4.329,4.329,4.329,4.326,4.32,4.3111,0.0,4.2108,4.1513,4.0783,3.9853,3.8288,3.7015,3.6162,3.6956,3.7655,3.8162,3.896,3.9326,3.9356,3.9631,3.9732,3.9702,3.8923,3.8882,0.0,0.0,0.0,0.0,0.0,0.0,0.0,0.0,0.0,0.0,0.0,0.0,0.0,0.0,0.0,5.1113,5.3454,5.59,5.8445,5.8577,5.9261,6.1529,6.1398,6.0927,6.0431,5.9359,5.8392,5.7782,5.738,5.713,5.7023,5.7558,5.777,5.777,5.8808,5.9307,5.9307,5.9508,5.9472,5.9159,5.8494,0.0,5.6549,5.591,5.4923,5.3646,5.2368,5.1207,5.0211,4.9291,4.8199,4.7097,4.6437,4.6223,4.6214,4.5982,4.5547,4.5053,4.4937,4.4211,4.334,4.3224,4.276,4.2266,4.2266,4.2391,0.0,4.2462,4.2865,4.3267,4.311,4.326,4.3439,4.3319,4.329,4.329,4.329,4.329,4.314,4.2641,4.297,4.314,4.2641,4.3,4.329,4.329,4.329,4.329,4.329,4.329,4.312,4.265,4.2961,4.2772,4.1645,4.155,4.1025,3.9824,3.9038,3.8326,3.7627,3.8266,3.8447,3.805,3.8724,3.9057,3.9087,3.9667,3.994,3.994,3.9753,3.9481,0.0,0.0,0.0,0.0,0.0,0.0,0.0,0.0,0.0,0.0,0.0,4.7459,4.8202,0.0,5.2591,5.4489,5.6072,5.7636,5.9279,5.9658,6.0352,6.179,6.0953,6.0352,6.064,5.9098,5.7974,5.7756,5.6844,5.6293,5.6293,5.7449,5.8088,5.8088,5.9583,6.0409,6.0409,5.9969,5.9597,5.9306,5.829,5.7129,5.591,5.5562,5.4546,5.2978,5.202,5.0888,4.963,4.8304,4.723,4.633,4.6011,4.5895,4.5837,4.5518,4.5169,4.4792,4.4153,4.3515,4.2934,4.2644,4.2353,4.2133,4.2216,4.231,4.2433,4.2648,4.285,4.3021,4.313,4.321,4.329,4.329,4.309,4.2851,4.2851,4.2581,4.2372,4.241,4.2611,4.2851,4.2851,4.312,4.329,4.329,4.329,4.3329,4.3478,4.3518,4.3407,4.3193,4.3464,4.3253,4.2258,4.167,4.0777,3.945,3.9161,3.8831,3.8497,3.8497,3.8493,3.8523,3.8493,3.8463,3.8459,3.8865,3.9116,3.9116,3.9184,3.9181,0.0,0.0,0.0,0.0,0.0,0.0,0.0,0.0,4.5448,4.6983,4.864,5.0333,5.1974,5.3675,5.5564,5.7869,5.8641,5.9232,6.0227,6.0718,6.1163,6.1738,6.0676,6.0145,6.0692,5.8997,5.7755,5.7573,5.619,5.5472,5.567,5.7414,5.8494,5.8683,6.0348,6.1135,6.1019,5.9858,5.9248,5.9103,5.7884,5.6636,5.5416,5.5416,5.4313,5.2339,5.1323,5.0278,4.9175,4.7375,4.6359,4.5895,4.5895,4.5895,4.5808,4.514,4.4821,4.456,4.3398,4.2905,4.2731,4.2266,4.2092,4.2133,4.2269,4.2392,4.2555,4.285,4.2981,4.313,4.325,4.329,4.329,4.329,4.2851,4.241,4.241,4.1871,4.1572,4.2111,4.2321,4.256,4.306,4.32,4.329,4.329,4.3329,4.3478,4.3675,4.3714,4.3801,4.3805,4.3897,4.3692,4.294,4.1876,4.069,3.939,3.9299,3.9238,3.9116,3.8564,3.8443,3.8716,3.8378,3.8165,3.8013,3.8302,3.843,3.843,3.835,3.8435,4.3206,4.2665,4.2816,4.4568,4.4769,4.5673,0.0,0.0,4.9926,5.1616,5.3356,5.4702,5.4977,5.6262,5.7721,5.9072,5.9333,5.9751,6.0875,6.0614,6.0535,6.1136,6.1437,6.1113,5.9739,5.8828,5.7943,5.6971,5.6598,5.6834,5.7734,5.8808,5.9891,6.0802,6.1073,6.0903,6.0322,5.9626,5.9016,5.8406,5.7652,5.6636,5.5416,5.5416,5.4052,5.1585,4.9233,4.813,4.7898,4.6563,4.5953,4.5895,4.5895,4.5895,4.5808,4.514,4.456,4.3979,4.3253,4.2644,4.2179,4.2121,4.2092,4.2092,4.2133,4.2392,4.2688,4.2729,4.297,4.325,4.329,4.329,4.329,4.329,4.2851,4.241,4.241,4.1871,4.1414,4.1512,4.1991,4.241,4.25,4.294,4.329,4.329,4.3518,4.3675,4.3675,4.3871,4.3775,4.3168,4.3623,4.3548,4.2456,4.2249,4.1612,4.0405,4.0347,4.0071,3.9487,3.9395,3.8811,3.7674,3.878,3.9026,3.8442,3.9057,3.9367,3.9336,3.8169,3.7614,4.5162,4.4744,4.4794,0.0,4.6753,4.8159,5.0569,5.0977,5.1443,5.3547,5.5399,5.6681,5.7146,5.8582,5.983,0.0,6.0378,6.0561,6.1058,6.1172,6.0978,6.0553,6.1778,6.2083,6.0447,5.9445,5.8793,5.8643,5.8293,5.8053,5.8115,5.9058,5.983,6.0287,6.0487,6.0467,6.0206,5.9219,5.8377,5.771,5.7071,5.591,5.4313,5.4313,5.292,5.0394,4.8566,4.7579,4.7172,4.6243,4.5895,4.5895,4.5895,4.5663,4.5227,4.4589,4.4211,4.3834,4.2818,4.2295,4.2092,4.2092,4.2092,4.2133,4.2257,4.2474,4.2729,4.285,4.309,4.329,4.329,4.329,4.329,4.329,4.2551,4.1841,4.1841,4.0965,4.0457,4.1235,4.1294,4.1594,4.2731,4.2851,4.291,4.323,4.3369,4.3557,4.3832,4.3949,4.3982,4.3937,4.3822,4.3584,4.3076,4.2339,4.1699,4.1186,4.0351,3.9767,3.949,3.8754,3.8077,3.7523,3.7677,3.7615,3.7338,3.7615,3.7738,3.7738,3.7184,3.6907,4.5598,0.0,0.0,4.6627,4.841,5.0243,5.0946,5.1716,5.2894,5.4883,5.6476,5.7816,5.8772,6.0013,6.0906,6.1145,6.1141,6.1036,6.0962,6.1113,6.0811,5.9728,6.0919,6.1564,6.0782,5.9819,5.9367,5.9624,5.8851,5.8457,5.8494,5.9183,5.974,6.0014,6.0139,6.0119,5.9945,5.8842,5.7884,5.7042,5.6607,5.5474,5.3762,5.3239,5.1788,4.9611,4.8333,4.7433,4.672,4.6156,4.5895,4.5866,4.5692,4.5314,4.4792,4.4008,4.3718,4.3573,4.2469,4.2092,4.2092,4.2092,4.2092,4.2133,4.2269,4.2474,4.2648,4.285,4.309,4.325,4.329,4.317,4.306,4.306,4.2073,4.1115,4.1115,4.0217,3.9709,4.0666,4.0606,4.0846,4.2243,4.2432,4.256,4.3,4.317,4.3388,4.3706,4.3678,4.3808,4.4295,4.3901,4.3593,4.3593,4.273,4.1986,4.1617,4.0478,3.9582,3.9247,3.8108,3.74,3.7215,3.6938,3.6784,3.6784,3.6784,3.6784,3.6753,3.6569,3.6507,4.3087,0.0,4.5899,4.7456,4.9565,5.1523,5.2603,5.3936,5.5223,5.6258,5.7229,5.8336,5.9888,6.0222,6.0467,6.1288,6.1252,6.0962,6.059,5.9898,5.9248,5.8646,5.8472,5.8764,5.9862,5.9441,5.9082,5.9017,5.7602,5.7542,5.9431,5.9555,6.0075,6.1133,6.0555,5.9916,5.9335,5.8639,5.7681,5.6432,5.6432,5.5736,5.4429,5.2543,5.0975,4.964,4.8333,4.7433,4.672,4.6156,4.5895,4.5837,4.5169,4.4908,4.4734,4.3485,4.3021,4.2934,4.2324,4.2092,4.2092,4.2092,4.2092,4.2092,4.2092,4.2257,4.2474,4.2648,4.285,4.3021,4.325,4.288,4.244,4.244,4.1384,4.0427,4.0427,3.9888,3.9403,3.9433,3.9978,4.0427,4.0487,4.1572,4.241,4.241,4.294,4.3238,4.3069,4.2805,4.291,4.3562,4.3624,4.3593,4.3593,4.3562,4.3008,4.1678,4.0909,3.989,3.86,3.7861,3.7184,3.6538,3.7153,3.7461,3.7461,3.7461,3.7461,3.7461,3.6784,3.6507,4.4443,0.0,4.7581,4.964,5.0996,5.2101,5.3206,5.3778,5.4416,5.5395,5.5816,5.6252,5.6604,5.7268,5.7985,5.8517,5.9471,6.0168,6.0289,6.075,6.0421,5.8594,5.8927,0.0,0.0,0.0,5.9631,6.0955,5.9942,5.9633,6.0621,6.0681,6.0802,6.1193,6.0148,5.951,5.9306,5.7797,5.6607,5.5736,5.4023,5.2775,5.1933,5.083,4.964,4.842,4.7985,4.7172,4.6185,4.5982,4.5895,4.5808,4.514,4.4647,4.4182,4.3311,4.2731,4.2353,4.2179,4.2092,4.2092,4.2092,4.2092,4.2092,4.2092,4.2257,4.2392,4.2474,4.2729,4.3021,4.3061,4.2772,4.241,4.241,4.1392,4.0397,4.0397,3.9888,3.9523,3.9978,3.9888,4.0038,4.0905,4.1452,4.2013,4.288,4.3055,4.3075,4.3016,4.2744,4.2694,4.291,4.294,4.3094,4.3562,4.3187,4.291,4.2946,4.1401,4.0105,3.9216,3.8108,3.7184,3.6507,3.6722,3.6846,3.6846,3.6846,3.6846,3.6815,3.6599,3.6507,4.5723,4.7255,4.9012,5.1071,5.2,5.2578,5.3256,5.3557,5.3948,5.4651,5.4562,5.4472,5.4817,5.5126,5.5452,5.607,5.7384,5.8479,5.8797,5.9342,5.9371,5.8402,5.8642,5.884,0.0,0.0,0.0,6.1623,6.0827,6.0532,6.1162,6.1193,6.1193,6.1193,5.9974,5.919,5.8958,5.7245,5.5852,5.472,5.2601,5.1294,5.0705,4.9988,4.9001,4.7782,4.755,4.6853,4.5895,4.5895,4.575,4.5459,4.4821,4.4182,4.3544,4.2905,4.244,4.2092,4.2092,4.2092,4.2092,4.2092,4.2092,4.2092,4.2092,4.2216,4.231,4.2392,4.2648,4.29,4.2981,4.2703,4.2351,4.2111,4.1175,4.0337,4.0098,3.9888,3.9828,4.0008,3.9888,3.9948,4.0576,4.1055,4.1833,4.311,4.2853,4.2546,4.2622,4.2126,4.1884,4.2232,4.2232,4.2509,4.3187,4.2848,4.2694,4.2848,4.1401,4.0074,3.9185,3.8108,3.7184,3.6507,3.6507,3.6507,3.6507,3.6507,3.6507,3.6507,3.6507,3.6507,4.6778,4.8435,5.0117,5.1749,5.2528,5.2929,5.2929,5.3281,5.3747,5.4043,5.3224,5.2902,0.0,0.0,5.3071,5.4039,5.5134,5.6106,5.6521,5.6262,5.6589,0.0,0.0,0.0,0.0,0.0,0.0,6.0894,6.0137,6.0014,6.1133,6.1193,6.1193,6.1193,5.9974,5.8987,5.8348,5.6984,5.5329,5.3413,5.2165,5.1207,5.0569,4.9959,4.8972,4.7695,4.7085,4.6475,4.5895,4.5895,4.5488,4.4821,4.424,4.3573,4.2934,4.2324,4.2092,4.2092,4.2092,4.2092,4.2092,4.2092,4.2092,4.2092,4.2092,4.2063,4.2104,4.231,4.2526,4.2699,4.29,4.2693,4.2192,4.1594,4.0935,4.024,3.9649,4.0008,4.0277,3.9649,4.0038,4.0277,3.9679,4.0606,4.1863,4.311,4.2376,4.1723,4.1879,4.098,4.0642,4.1427,4.1555,4.1832,4.2509,4.2571,4.2294,4.1678,4.0935,3.9951,3.8631,3.7923,3.7215,3.6507,3.6507,3.6507,3.6507,3.6507,3.6507,3.6507,3.6507,3.6507,4.8008,4.9866,5.1674,5.2503,5.2829,5.2929,5.2929,5.2703,5.2277,5.1556,5.0524,4.9531,0.0,0.0,0.0,5.2112,5.4594,0.0,5.783,5.825,0.0,5.6641,0.0,5.7874,5.7528,5.7729,0.0,5.9863,5.9058,5.9245,6.1133,6.1193,6.1193,6.1193,5.9974,5.9219,5.9045,5.6345,5.4023,5.2107,5.1294,5.0307,4.9204,4.9059,4.8275,4.7056,4.6865,4.6475,4.5895,4.5895,4.5488,4.4821,4.424,4.3573,4.2934,4.2324,4.2092,4.2092,4.2092,4.2092,4.2092,4.2092,4.2092,4.2092,4.2092,4.1744,4.1453,4.2029,4.196,4.1869,4.2408,4.2216,4.1883,4.1861,4.1364,4.0896,4.0868,4.0995,4.1085,4.0905,4.1025,4.1235,4.1602,4.1931,4.2402,4.317,4.2261,4.1573,4.1849,4.098,4.0392,4.0751,4.0751,4.1093,4.1801,4.1863,4.2017,4.2325,4.1709,4.0693,3.9275,3.86,3.7707,3.6507,3.6507,3.6507,3.6507,3.6507,3.6507,3.6507,3.6507,3.6507,4.964,5.1147,5.2528,5.2854,5.2929,5.2729,5.2,5.1574,5.0971,4.959,4.8259,0.0,4.6125,4.7277,0.0,0.0,0.0,0.0,5.7588,5.8079,5.7974,0.0,5.7544,0.0,5.7693,5.7922,5.834,5.8933,5.8871,5.9245,6.0409,6.0923,6.1193,6.1193,5.9974,5.8755,5.7594,5.4691,5.2688,5.1614,5.0685,4.9698,4.8663,4.8449,4.7782,4.6778,4.6534,4.6214,4.5895,4.5895,4.5488,4.4821,4.424,4.3573,4.2934,4.2324,4.2092,4.2092,4.2092,4.2092,4.2092,4.2092,4.2092,4.2092,4.2092,4.1831,4.1628,4.1976,4.1966,4.1924,4.2304,4.2262,4.2109,4.2011,4.1763,4.1475,4.1292,4.1479,4.165,4.165,4.1449,4.1517,4.2252,4.241,4.262,4.32,4.2462,4.1828,4.1828,4.0836,4.0261,4.0505,4.0505,4.0659,4.1093,4.1124,4.1309,4.1643,4.134,4.0632,3.9521,3.9154,3.8323,3.6969,3.6938,3.6784,3.6507,3.6507,3.6507,3.6507,3.6507,3.6507,5.1222,5.2151,5.2929,5.2929,5.2879,5.2402,5.0795,5.0243,4.959,4.7832,0.0,4.5121,4.497,4.5809,4.7163,4.9075,0.0,5.4443,5.7117,5.7312,5.7493,5.8376,5.8118,5.7917,5.8107,5.8088,5.8088,5.8088,5.8933,5.9431,5.9617,6.047,6.0986,6.0961,5.9713,5.7855,5.5416,5.2978,5.1701,5.1614,5.0307,4.9291,4.8566,4.8043,4.7375,4.6633,4.6127,4.5895,4.5895,4.5895,4.543,4.4734,4.4269,4.3602,4.2818,4.2382,4.2179,4.2092,4.2092,4.2092,4.2092,4.2092,4.2092,4.2092,4.2092,4.2034,4.1976,4.2063,4.207,4.2146,4.2322,4.2426,4.2383,4.211,4.207,4.1922,4.1427,4.1724,4.211,4.2149,4.1703,4.1602,4.2402,4.253,4.2671,4.32,4.2791,4.2278,4.1859,4.0807,4.0243,4.0436,4.0505,4.0505,4.0505,4.0505,4.0505,4.0505,4.0597,4.029,3.9521,3.9582,3.9,3.7677,3.7646,3.7307,3.663,3.663,3.663,3.663,3.663,3.6661,5.1732,5.2427,5.2929,5.2929,5.2578,5.1925,5.0695,4.9339,0.0,0.0,4.4242,4.3137,4.2233,4.3614,4.617,4.9765,5.1643,5.4367,5.9406,0.0,5.9049,0.0,0.0,0.0,5.8198,5.8088,0.0,5.8088,5.8277,5.8746,5.9555,5.974,5.9801,5.9596,5.8348,5.6926,5.5416,5.3413,5.2136,5.1614,5.0307,4.9059,4.7927,4.784,4.7143,4.604,4.5924,4.5895,4.5895,4.5895,4.5198,4.4182,4.4589,4.3718,4.2295,4.2702,4.2528,4.2092,4.2092,4.2092,4.2092,4.2092,4.2092,4.2092,4.2092,4.1715,4.1395,4.1947,4.1349,4.0779,4.1843,4.1767,4.1528,4.221,4.2338,4.235,4.2434,4.2493,4.2632,4.2763,4.2743,4.2763,4.311,4.311,4.317,4.326,4.2791,4.2389,4.2461,4.1503,4.069,4.0358,4.0436,4.0505,4.0505,4.0505,4.0505,4.0505,4.1093,4.0847,3.9521,4.0013,3.9674,3.8354,3.8323,3.8015,3.7338,3.7338,3.7338,3.7338,3.7338,3.7615,5.2111,5.2591,5.2929,5.2929,5.2302,5.1147,4.9163,0.0,0.0,0.0,4.2484,4.1882,4.1053,4.271,0.0,4.7731,0.0,0.0,0.0,0.0,0.0,0.0,0.0,0.0,0.0,5.8557,5.8683,5.8151,5.862,5.8731,5.8423,5.8607,5.8534,5.8233,5.7332,5.6055,5.4429,5.2862,5.1759,5.112,5.0133,4.9001,4.7782,4.7782,4.7085,4.5895,4.5895,4.5895,4.5895,4.5895,4.5314,4.4472,4.4763,4.4153,4.3079,4.3021,4.3021,4.2992,4.2324,4.2295,4.2498,4.2208,4.2092,4.2092,4.2092,4.1889,4.1686,4.2005,4.1628,4.1279,4.1918,4.186,4.1727,4.2293,4.2392,4.2433,4.2514,4.2474,4.2433,4.2648,4.2769,4.293,4.313,4.325,4.329,4.329,4.306,4.277,4.2556,4.2108,4.1546,4.0837,4.0821,4.0769,4.0536,4.0505,4.0505,4.0505,4.0812,4.0689,4.0043,4.032,4.0013,3.9062,3.9031,3.8692,3.8015,3.8015,3.8015,3.8015,3.8015,3.82,5.2377,5.2654,5.2929,5.2929,5.2,5.0393,4.7732,4.61,0.0,0.0,4.1025,4.0852,4.0425,4.1856,4.3741,0.0,4.7282,0.0,0.0,0.0,0.0,0.0,0.0,0.0,0.0,5.9121,0.0,5.8467,5.893,5.8648,5.7384,5.7276,5.7184,5.6993,5.6299,5.5111,5.353,5.2252,5.1294,5.0705,4.9988,4.9001,4.7782,4.7782,4.7085,4.5895,4.5895,4.5895,4.5895,4.5895,4.5488,4.4879,4.4879,4.4531,4.3921,4.3398,4.3456,4.3631,4.2644,4.2498,4.2731,4.2237,4.2092,4.2092,4.2092,4.2092,4.2092,4.2092,4.2005,4.1918,4.2063,4.1976,4.1959,4.224,4.231,4.231,4.231,4.2216,4.2175,4.2351,4.2566,4.2769,4.2941,4.317,4.329,4.329,4.329,4.315,4.2641,4.2668,4.2447,4.1608,4.1285,4.1026,4.0646,4.0493,4.0401,4.047,4.0593,4.0624,4.0505,4.0628,4.0413,3.9705,3.9705,3.9367,3.8723,3.8723,3.8723,3.8723,3.8723,3.8816,5.2308,5.2654,5.2929,5.2929,5.1699,4.9916,4.7657,0.0,0.0,4.1053,4.0199,3.9823,3.9772,4.035,4.1991,4.5656,0.0,4.8367,0.0,0.0,0.0,0.0,0.0,0.0,0.0,5.9555,5.9555,5.9493,5.8508,5.7748,5.7356,5.6249,5.5726,5.5991,5.4856,5.4021,5.353,5.2252,5.1294,5.0705,4.9988,4.9001,4.7782,4.7782,4.7085,4.5895,4.5895,4.5895,4.5895,4.5895,4.5488,4.4879,4.4879,4.4531,4.3979,4.3921,4.3544,4.3079,4.2963,4.2586,4.2179,4.2121,4.2092,4.2092,4.2092,4.2092,4.2092,4.2092,4.1657,4.1337,4.1947,4.1657,4.1337,4.1988,4.2133,4.2133,4.2133,4.2092,4.2175,4.2351,4.2566,4.2769,4.2941,4.317,4.329,4.329,4.329,4.326,4.32,4.324,4.3049,4.253,4.16,4.1018,4.0958,4.038,4.0121,4.0296,4.0878,4.101,4.0536,4.1155,4.1155,4.0413,4.0413,4.0074,3.9398,3.9398,3.9398,3.9398,3.9398,3.9705,5.127,5.2035,5.2654,5.2861,5.1172,4.8937,4.7054,0.0,4.2283,4.04,3.9848,3.9697,3.9697,3.9873,4.0711,4.2954,0.0,0.0,0.0,0.0,0.0,0.0,0.0,0.0,0.0,0.0,5.9475,5.9107,5.7711,5.6936,5.7065,5.6164,5.5646,5.556,5.5099,5.4025,5.2397,5.1875,5.1091,5.0075,4.9863,4.9001,4.7782,4.7782,4.7085,4.5895,4.5895,4.5895,4.5895,4.5895,4.5488,4.4879,4.4879,4.4531,4.395,4.3544,4.3485,4.3544,4.3137,4.3108,4.3166,4.276,4.2644,4.2557,4.2208,4.2092,4.2092,4.2092,4.1918,4.1773,4.2034,4.1889,4.1773,4.2034,4.2382,4.2528,4.2179,4.2702,4.3063,4.2361,4.2796,4.3201,4.2868,4.309,4.329,4.329,4.329,4.329,4.329,4.329,4.324,4.3049,4.2371,4.1866,4.1553,4.0982,4.0654,4.0695,4.0573,4.0426,4.0222,4.0607,4.0708,4.0366,4.047,4.0351,4.0105,4.0105,4.0105,4.0105,4.0105,4.0228,5.0229,5.1407,5.2515,5.2792,5.082,4.8335,0.0,0.0,4.1735,4.0023,3.9697,3.9697,3.9697,3.9823,4.0249,4.1285,0.0,4.3252,0.0,0.0,0.0,0.0,0.0,5.6167,5.8475,5.9243,5.9362,5.8738,5.7449,5.6809,5.7022,5.6394,5.5736,5.4979,5.4137,5.2855,5.1257,5.1055,5.0392,4.9326,4.9571,4.9001,4.7782,4.7782,4.7085,4.5895,4.5895,4.5895,4.5895,4.5895,4.5605,4.514,4.4763,4.4472,4.4153,4.3311,4.3282,4.366,4.3369,4.3456,4.366,4.3369,4.3282,4.3224,4.2789,4.2528,4.2353,4.2353,4.2353,4.2324,4.215,4.2092,4.2092,4.2092,4.2411,4.2673,4.2411,4.3079,4.3485,4.2789,4.3316,4.3696,4.3101,4.3267,4.3449,4.3319,4.329,4.329,4.329,4.329,4.329,4.329,4.2989,4.2604,4.2063,4.1465,4.114,4.1176,4.0752,4.0425,4.0314,4.0426,4.0405,4.0222,4.0366,4.0436,4.0436,4.0505,4.0505,4.0505,4.0505,4.0505,4.9296,5.0907,5.2515,5.2792,5.082,4.8335,0.0,0.0,4.1735,4.0023,3.9697,3.9697,3.9697,4.0149,4.0807,4.1628,4.2239,0.0,4.6136,0.0,0.0,0.0,0.0,5.3334,5.6347,5.839,5.9362,5.8738,5.8055,5.7591,5.7334,5.6752,5.5641,5.4063,5.1091,4.9858,5.0403,4.9751,4.9127,4.8531,4.9326,4.9001,4.7782,4.7782,4.7085,4.5895,4.5895,4.5895,4.5895,4.5895,4.5895,4.575,4.4501,4.4356,4.4734,4.3456,4.2992,4.3079,4.3747,4.3544,4.3108,4.3776,4.3979,4.3979,4.3979,4.3515,4.2992,4.2992,4.2992,4.2847,4.2266,4.2092,4.2092,4.2092,4.2092,4.2266,4.2847,4.2992,4.3195,4.3834,4.4122,4.4174,4.3767,4.3856,4.3823,4.3339,4.329,4.329,4.329,4.329,4.329,4.329,4.329,4.306,4.244,4.1782,4.1498,4.1648,4.1686,4.1459,4.1013,4.0982,4.0679,4.0011,4.0191,4.0296,4.0296,4.0436,4.0505,4.0505,4.0505,4.0505,4.6767,4.8046,4.8988,4.8935,4.7732,4.61,4.4418,0.0,4.1229,3.9948,3.9697,3.9697,3.9697,3.9848,4.0249,4.1285,4.1588,0.0,0.0,0.0,0.0,5.0944,5.5242,5.8175,0.0,5.8295,5.7756,5.7116,5.5508,5.4897,5.5681,5.4177,5.3554,5.4291,5.2454,5.1087,5.0403,4.9751,4.9127,4.8481,4.8845,4.8595,4.7753,4.7317,4.6679,4.5895,4.5895,4.5895,4.5895,4.5895,4.5895,4.5808,4.4937,4.4472,4.424,4.3834,4.3369,4.3137,4.424,4.4472,4.4327,4.4531,4.4618,4.4531,4.4124,4.3515,4.2905,4.2498,4.2382,4.2324,4.215,4.2092,4.2092,4.2092,4.276,4.3311,4.305,4.4037,4.4763,4.4124,4.4501,4.4762,4.4203,4.4423,4.4543,4.4252,4.4084,4.3937,4.3815,4.3508,4.329,4.329,4.329,4.32,4.303,4.2432,4.2081,4.2188,4.1768,4.1445,4.1272,4.1421,4.1368,4.1157,4.0921,4.0786,4.0786,4.0365,4.04,4.0858,4.0934,4.125,0.0,4.6081,4.691,4.7082,4.615,0.0,0.0,0.0,4.0777,3.9873,3.9697,3.9697,3.9697,3.9873,4.0224,4.0874,4.1379,4.2141,0.0,0.0,0.0,5.1211,0.0,0.0,5.7622,5.7718,5.7305,5.6016,5.4809,5.4138,5.4117,5.3276,5.2792,5.2801,5.1365,5.0234,4.9429,4.8566,4.7902,4.7541,4.7956,4.7987,4.7674,4.6993,4.6576,4.6243,4.5982,4.5895,0.0,4.5895,4.5895,4.5808,4.514,4.4647,4.4298,4.4066,4.3573,4.3137,4.4182,4.456,4.4589,4.4821,4.5053,4.514,4.4531,4.4037,4.3573,4.2992,4.2963,4.305,4.2557,4.2615,4.2818,4.2818,4.3398,4.395,4.3747,4.4647,4.5343,4.4821,4.5112,4.5303,4.4718,4.4859,4.4971,4.4663,4.4282,4.4061,4.402,4.3547,4.321,4.329,4.329,4.329,4.329,4.297,4.2731,4.2731,4.2342,4.2013,4.1811,4.1926,4.1844,4.1603,4.1368,4.1267,4.1267,4.0916,4.0952,4.1346,4.1425,4.1778,0.0,4.4604,4.5859,4.647,4.5522,4.4091,4.2986,0.0,0.0,3.9747,3.9672,3.9697,3.9697,4.0124,4.0475,4.0551,4.143,4.2844,0.0,4.6465,0.0,0.0,5.4887,5.617,5.4524,5.6893,5.7696,5.5496,5.5457,5.462,5.2644,5.355,5.2858,4.9995,4.86,4.7837,4.7756,4.6625,4.606,4.6007,4.6816,4.7275,4.7334,4.6789,4.6548,4.6616,4.6127,4.5895,4.5895,4.5895,4.5895,4.5837,4.5198,4.4937,4.4821,4.4298,4.3689,4.3224,4.3892,4.4124,4.4211,4.4763,4.5372,4.5779,4.514,4.4937,4.4763,4.4153,4.4385,4.456,4.3369,4.3515,4.3979,4.3979,4.4037,4.4211,4.4763,4.4937,4.514,4.5779,4.5895,4.5781,4.5347,4.5274,4.5156,4.4755,4.4179,4.3921,4.4098,4.3545,4.3209,4.3349,4.3409,4.3379,4.329,4.329,4.329,4.329,4.329,4.306,4.25,4.247,4.2171,4.1534,4.1693,4.1708,4.1678,4.1866,4.194,4.194,4.194,4.2119,4.0232,0.0,4.214,4.2073,4.2028,4.1777,0.0,0.0,0.0,0.0,0.0,0.0,0.0,3.9798,4.0174,4.0949,4.1354,4.2081,4.3609,4.823,0.0,5.5961,5.7908,5.8314,5.6681,5.7048,5.6598,5.4952,5.3284,5.1945,5.098,5.0783,5.0184,4.9059,4.8791,4.8218,4.7109,4.6964,4.661,4.6007,4.6939,4.6911,4.59,4.5822,4.5581,4.5189,4.5698,4.5895,4.5895,4.5895,4.5895,4.5866,4.5721,4.5343,4.4937,4.5314,4.5024,4.4531,4.5198,4.543,4.5459,4.5605,4.575,4.5866,4.5692,4.5285,4.4763,4.4153,4.4095,4.4124,4.3834,4.3863,4.3979,4.3979,4.4327,4.4705,4.485,4.5285,4.5692,4.5866,4.5895,4.5882,4.5781,4.5857,4.5888,4.5608,4.5317,4.5165,4.5207,4.4815,4.44,4.4097,4.4526,4.4436,4.3379,4.329,4.329,4.329,4.329,4.323,4.312,4.312,4.2991,4.288,4.2479,4.197,4.146,4.2046,4.2286,4.2256,4.2371,4.2757,3.9104,3.9981,4.0769,4.0846,4.1075,4.1075,4.0275,0.0,0.0,0.0,0.0,0.0,0.0,0.0,3.9973,4.0827,4.1379,4.2587,0.0,0.0,5.3321,5.6643,5.7621,5.8117,5.8204,5.7801,5.6763,5.4928,5.343,5.1938,5.0474,4.998,4.911,4.7708,4.7893,4.7487,4.6298,4.6541,4.6243,4.5422,4.5971,4.5895,4.5243,4.504,4.5016,4.5184,4.5298,4.5549,4.5895,4.5895,4.5895,4.5895,4.5895,4.5663,4.5372,4.575,4.5459,4.4937,4.5314,4.543,4.5488,4.5779,4.5895,4.5895,4.5895,4.5634,4.5198,4.4589,4.4618,4.4792,4.4472,4.4618,4.485,4.485,4.5111,4.5343,4.5343,4.5634,4.5895,4.5895,4.5895,4.5895,4.5895,4.6001,4.6001,4.594,4.5565,4.5346,4.5593,4.5132,4.478,4.4755,4.5095,4.4885,4.3828,4.4047,4.3988,4.3319,4.329,4.329,4.329,4.329,4.329,4.329,4.3,4.2641,4.2282,4.2641,4.2791,4.2791,4.2869,4.3196,3.8834,3.9755,4.0631,4.0968,4.1025,4.0953,4.04,0.0,0.0,0.0,0.0,0.0,0.0,3.9446,0.0,0.0,0.0,0.0,4.8224,5.0586,5.298,5.5945,5.6445,5.7139,5.8581,5.829,5.7052,5.4827,5.4205,5.2771,5.0059,4.9854,4.8762,4.6425,4.6701,4.6435,4.548,4.5795,4.5582,4.4668,4.483,4.4837,4.4776,4.4396,4.4579,4.5194,4.4734,4.4926,4.5549,4.5685,4.573,4.573,4.5821,4.5895,4.5895,4.5895,4.5518,4.5024,4.4891,4.4891,4.4933,4.5512,4.573,4.573,4.585,4.5895,4.5779,4.5198,4.5459,4.575,4.5198,4.5459,4.5895,4.5895,4.5895,4.5895,4.5895,4.5895,4.5895,4.5895,4.5895,4.5895,4.5895,4.5895,4.5895,4.5895,4.5446,4.5274,4.5624,4.524,4.4997,4.5287,4.546,4.5191,4.4404,4.4982,4.4863,4.3598,4.3459,4.3409,4.329,4.329,4.329,4.329,4.329,4.329,4.329,4.329,4.329,4.325,4.329,4.3409,3.9378,4.0211,4.0674,4.007,3.9948,3.9798,3.9245,0.0,0.0,0.0,0.0,0.0,0.0,4.0023,4.0576,0.0,4.3849,4.7556,5.2166,5.4469,5.6023,5.6994,5.8119,5.8089,5.62,5.6432,5.5676,5.3297,5.322,5.1627,4.7968,4.8468,4.7936,4.5794,4.6433,4.6195,4.4879,4.5635,4.5582,4.4722,4.5422,4.4917,4.3336,4.3953,4.3764,4.303,4.3546,4.3851,4.4012,4.462,4.4897,4.4943,4.564,4.5895,4.5895,4.5895,4.5808,4.5631,4.4984,4.4709,4.4737,4.4851,4.4879,4.5018,4.5685,4.5895,4.5866,4.5779,4.5808,4.5866,4.575,4.5808,4.5895,4.5895,4.5895,4.5895,4.5895,4.5895,4.5895,4.5895,4.5895,4.5895,4.5895,4.5895,4.5895,4.5895,4.5958,4.6034,4.6123,4.6212,4.6078,4.5634,4.6221,4.6086,4.4659,4.5361,4.5463,4.4453,4.4221,4.3858,4.3319,4.329,4.329,4.329,4.329,4.329,4.329,4.329,4.321,4.3021,4.321,4.325,3.8224,3.9055,3.9717,3.9371,3.9923,4.045,3.9898,3.9295,0.0,0.0,0.0,0.0,0.0,0.0,4.2675,4.5291,4.7591,4.9956,5.2637,5.3361,5.4258,5.6194,5.6509,5.6451,5.6222,5.6617,5.5735,5.2929,5.2574,5.1182,4.8216,4.7383,4.6605,4.5637,4.5653,4.5363,4.4722,4.51,4.51,4.4668,4.51,4.4494,4.3023,4.336,4.3184,4.2479,4.2819,4.3232,4.3634,4.3965,4.4106,4.4153,4.4509,4.4648,4.4694,4.511,4.5549,4.5776,4.4989,4.4712,4.4648,4.4228,4.4134,4.4181,4.4555,4.4648,4.4741,4.5155,4.5595,4.5895,4.5895,4.5895,4.5895,4.5895,4.5895,4.5895,4.5895,4.5895,4.5895,4.5895,4.5895,4.5895,4.5895,4.5895,4.5895,4.5895,4.5956,4.609,4.618,4.6314,4.6329,4.6167,4.6491,4.6284,4.5253,4.587,4.5855,4.4693,4.4507,4.4377,4.4203,4.4203,4.4105,4.3828,4.3828,4.3648,4.329,4.321,4.3061,4.2981,4.297,4.297,3.7536,3.8339,3.9044,3.8944,3.9823,4.0727,4.0551,3.9772,3.9295,0.0,0.0,0.0,0.0,4.2452,4.4979,4.8687,5.0698,5.2242,5.3408,5.3092,5.3712,5.613,5.5681,5.5595,5.6678,5.6651,5.5395,5.2678,5.1875,5.0488,4.8284,4.6745,4.5779,4.5428,4.4903,4.4668,4.4668,4.4668,4.4668,4.4668,4.4668,4.4121,4.3023,4.3023,4.2677,4.2137,4.2213,4.2555,4.306,4.3252,4.33,4.3348,4.3539,4.3586,4.3634,4.4228,4.4833,4.5247,4.448,4.42,4.4059,4.3491,4.33,4.3375,4.3539,4.3586,4.3729,4.4266,4.4897,4.5458,4.5805,4.5895,4.5895,4.5895,4.5895,4.5895,4.5895,4.5895,4.5895,4.5895,4.5895,4.5895,4.5895,4.5895,4.5895,4.5895,4.594,4.6001,4.6135,4.618,4.6269,4.6403,4.6447,4.6315,4.5771,4.6182,4.5991,4.4963,4.4843,4.4866,4.4887,4.4887,4.4775,4.4474,4.4404,4.4065,4.3449,4.3407,4.3286,4.3057,4.3194,4.3294,3.8543,3.9131,3.9521,3.8994,3.902,3.9295,4.03,4.0049,4.0074,4.171,0.0,0.0,0.0,4.4203,4.6607,4.8451,5.1722,5.4666,5.6707,5.7467,5.7963,5.8519,5.8234,5.7567,5.6524,5.519,5.3669,5.1986,5.0796,4.909,4.6777,4.6726,4.6168,4.48,4.4694,4.4668,4.4668,4.4668,4.4668,4.4668,4.4668,4.4121,4.3023,4.3023,4.2396,4.1348,4.1348,4.1398,4.1498,4.2186,4.2501,4.255,4.33,4.3586,4.3586,4.3634,4.3729,4.3634,4.2943,4.2625,4.255,4.2501,4.2528,4.2701,4.3423,4.3586,4.3586,4.3634,4.3729,4.4134,4.5549,4.5895,4.5895,4.5895,4.5895,4.5895,4.5895,4.5895,4.5895,4.5895,4.5895,4.5895,4.5895,4.5895,4.5895,4.5895,4.6046,4.6135,4.5911,4.609,4.6135,4.5985,4.6135,4.6195,4.6137,4.6016,4.5882,4.5795,4.5639,4.5282,4.4634,4.4604,4.4731,4.4953,4.4714,4.4376,4.3931,4.4317,4.4078,4.3299,4.4347,4.4697,3.7315,3.8239,3.9044,3.8467,3.8592,3.9245,0.0,4.1128,4.1605,4.2911,4.3288,0.0,0.0,4.659,4.8726,5.0869,5.367,5.6065,5.7458,5.7693,5.7711,5.76,5.7337,5.6304,5.429,5.4064,5.2826,4.9818,4.9648,4.8615,4.6084,4.6046,4.5494,4.4225,4.4539,4.4565,4.4199,4.4539,4.4668,4.4722,4.4356,4.3781,4.3023,4.2657,4.2056,4.1324,4.1324,4.1324,4.1324,4.1597,4.172,4.172,4.2065,4.2431,4.2867,4.2867,4.3232,4.3491,4.2749,4.2431,4.2306,4.1868,4.1746,4.1796,4.2065,4.2164,4.2262,4.2722,4.284,4.3177,4.4759,4.5127,4.5293,4.5776,4.5895,4.5895,4.5895,4.5895,4.5895,4.5895,4.5895,4.5895,4.5895,4.5895,4.5895,4.5895,4.5956,4.5985,4.594,4.5956,4.5956,4.594,4.5956,4.6001,4.6001,4.5911,4.5895,4.5895,4.5842,4.5712,4.5625,4.5625,4.5506,4.5381,4.5253,4.4929,4.4376,4.4389,4.4262,4.3943,4.4347,4.4507,3.6726,3.7568,3.8367,3.7889,0.0,0.0,4.1229,4.2032,4.2891,4.4292,4.4618,4.4869,4.5648,0.0,4.9805,5.165,5.4589,5.6848,5.7313,5.7298,5.708,5.6537,5.633,5.5445,5.3473,5.336,5.2099,4.9,4.8748,4.7774,4.5578,4.5233,4.4765,4.4066,4.4248,4.4248,4.4147,4.4356,4.446,4.446,4.3779,4.331,4.2997,4.2422,4.1847,4.1324,4.1324,4.1324,4.1324,4.1324,4.1324,4.1324,4.1324,4.1597,4.2039,4.2115,4.2457,4.2798,4.2311,4.2115,4.194,4.1448,4.1324,4.1324,4.1324,4.1324,4.1398,4.1918,4.2039,4.2333,4.3654,4.4172,4.448,4.5018,4.5338,4.552,4.552,4.573,4.5895,4.5895,4.5895,4.5895,4.5895,4.5895,4.5895,4.5895,4.5895,4.5895,4.5895,4.5895,4.5895,4.5895,4.5895,4.5895,4.5895,4.5895,4.5895,4.5895,4.5895,4.5956,4.609,4.609,4.602,4.58,4.5713,4.539,4.4801,4.482,4.469,4.4529,4.4777,4.4908,3.7142,3.7419,3.7518,3.7288,0.0,0.0,4.1835,4.264,4.3614,4.5849,4.5422,4.4644,4.4644,4.7189,4.9519,5.0135,5.424,5.7126,5.6479,5.6632,5.6531,5.5595,5.5705,5.5495,5.4579,5.2852,5.1293,5.0104,4.8106,4.6383,4.5274,4.4373,4.401,4.4287,4.3769,4.3879,4.4642,4.4147,4.3859,4.3859,4.2995,4.2709,4.2997,4.2422,4.1847,4.1324,4.1324,4.1324,4.1324,4.1324,4.1324,4.1324,4.1324,4.1324,4.1324,4.1324,4.1324,4.1324,4.1324,4.1324,4.1324,4.1324,4.1324,4.1324,4.1324,4.1324,4.1324,4.1324,4.1324,4.1448,4.2186,4.2964,4.3586,4.3586,4.4153,4.4684,4.4684,4.5338,4.5895,4.5895,4.5895,4.5895,4.5895,4.5895,4.5895,4.5895,4.5895,4.5895,4.5895,4.5895,4.5895,4.5895,4.5895,4.5895,4.5895,4.5895,4.5895,4.5895,4.5895,4.5895,4.5895,4.5895,4.6001,4.6225,4.6001,4.571,4.5303,4.571,4.5547,4.4908,4.577,4.6225,3.7339,3.7419,3.7618,3.774,0.0,0.0,0.0,4.2007,0.0,0.0,4.6301,4.605,4.6803,4.8477,4.9854,5.0014,5.2139,5.3985,5.4455,5.4141,5.4005,5.4169,5.444,5.4179,5.2994,5.2394,5.1154,4.8892,4.8166,4.6957,4.4965,4.4596,4.3955,4.2881,4.3008,4.2881,4.2396,4.2786,4.3097,4.3272,4.2422,4.219,4.2422,4.2034,4.1644,4.1324,4.1324,4.1324,4.1324,4.1324,4.1324,4.1324,4.1324,4.1324,4.1324,4.1324,4.1324,4.1324,4.1324,4.1324,4.1324,4.1324,4.1324,4.1324,4.1324,4.1324,4.1324,4.1324,4.1324,4.1374,4.1597,4.1769,4.2262,4.3375,4.3776,4.3918,4.3918,4.4106,4.4275,4.4275,4.4275,4.4275,4.4275,4.4275,4.4462,4.4972,4.5064,4.5247,4.585,4.5895,4.5895,4.5895,4.5895,4.5895,4.5895,4.5895,4.5895,4.5895,4.5895,4.5895,4.5895,4.5895,4.594,4.6001,4.594,4.5824,4.5739,4.5824,4.5779,4.5605,4.6003,4.6135,3.7089,3.7268,3.7618,3.8091,3.9144,4.0249,4.1075,0.0,0.0,0.0,4.6652,4.625,4.7104,4.8102,4.8848,4.9086,5.0564,5.1983,5.2683,5.265,5.2712,5.3174,5.3614,5.3582,5.2787,5.1804,5.049,4.8838,4.7615,4.6269,4.4602,4.4209,4.3522,4.2406,4.2483,4.2255,4.1722,4.2213,4.2445,4.2336,4.1953,4.1699,4.1516,4.1311,4.1182,4.1147,4.1248,4.1324,4.1324,4.1324,4.1324,4.1324,4.1324,4.1324,4.1324,4.1324,4.1324,4.1324,4.1324,4.1324,4.1324,4.1324,4.1324,4.1324,4.1324,4.1324,4.1324,4.1324,4.1324,4.1324,4.1324,4.1324,4.1547,4.2457,4.2916,4.3108,4.3184,4.3423,4.3586,4.3586,4.3586,4.3586,4.3586,4.3586,4.3729,4.4228,4.4247,4.4434,4.4926,4.5247,4.5293,4.5018,4.5549,4.5776,4.5429,4.573,4.5895,4.5895,4.5895,4.5895,4.5895,4.5895,4.5895,4.5895,4.5895,4.5895,4.5895,4.5895,4.5895,4.5895,4.6001,4.6001,3.6666,3.7017,3.7467,3.8363,3.959,4.0802,4.125,4.3438,4.5748,4.723,0.0,4.5799,4.6301,4.6806,4.7302,4.7795,4.9443,5.0832,5.1222,5.1604,5.2064,5.2579,5.3055,5.3303,5.3261,5.1087,4.9584,4.9282,4.6739,4.4967,4.4294,4.3406,4.2771,4.2489,4.1983,4.1813,4.1976,4.2027,4.1849,4.1337,4.1482,4.1203,4.0466,4.0543,4.0644,4.0896,4.1147,4.1274,4.1324,4.1324,4.1324,4.1324,4.1324,4.1324,4.1324,4.1324,4.1324,4.1324,4.1324,4.1324,4.1324,4.1324,4.1324,4.1324,4.1324,4.1324,4.1324,4.1324,4.1324,4.1324,4.1324,4.1324,4.1324,4.1324,4.1819,4.2333,4.236,4.2943,4.3423,4.3423,4.3423,4.3423,4.3423,4.3423,4.3396,4.3491,4.3539,4.3586,4.3586,4.42,4.4312,4.3681,4.4833,4.5384,4.4638,4.5293,4.5685,4.5685,4.573,4.5776,4.5776,4.585,4.5895,4.5895,4.5895,4.5895,4.5895,4.5895,4.5895,4.5895,4.5895,4.5895,3.7297,3.7042,0.0,3.8685,4.0492,4.1886,4.2011,4.3112,4.4267,4.4618,4.5799,4.6803,4.6928,4.7972,4.8713,4.8402,4.8797,4.9455,5.0453,4.9511,4.9569,5.2033,5.153,5.114,5.1403,5.0888,4.9692,4.7611,4.6642,4.5484,4.4011,4.2916,4.2137,4.1584,4.1458,4.1034,4.0256,4.0869,4.1047,4.0658,4.0539,4.0436,4.0507,4.0743,4.085,4.0896,4.0946,4.1097,4.1324,4.1324,4.1324,4.1324,4.1324,4.1324,4.1324,4.1324,4.1324,4.1324,4.1324,4.1324,4.1324,4.1324,4.1324,4.1324,4.1324,4.1324,4.1324,4.1324,4.1324,4.1324,4.1324,4.1324,4.1324,4.1324,4.1398,4.1547,4.1547,4.1696,4.1796,4.1796,4.1796,4.1796,4.1796,4.1796,4.1967,4.2577,4.3204,4.3586,4.3586,4.3729,4.3776,4.3586,4.3899,4.4012,4.3823,4.3993,4.4087,4.4087,4.4648,4.4972,4.4972,4.5549,4.5895,4.5895,4.5895,4.5895,4.5895,4.5895,4.5895,4.5895,4.5895,4.5895,3.7287,0.0,0.0,3.9203,0.0,4.2137,4.1831,4.2208,4.261,4.261,4.4392,4.5924,4.5924,4.6569,4.7002,4.6662,4.69,4.7405,4.816,4.7717,4.8114,5.043,4.9745,4.9554,5.075,4.9468,4.8191,4.7407,4.5887,4.451,4.347,4.2861,4.2057,4.0924,4.115,4.0749,3.9697,4.0381,4.0532,4.0124,4.0255,4.0255,4.0124,4.0411,4.0619,4.0694,4.0694,4.0946,4.1274,4.0997,4.0997,4.1097,4.0946,4.0922,4.0896,4.1047,4.1097,4.1147,4.1274,4.1324,4.1324,4.1324,4.1324,4.1324,4.1324,4.1324,4.1324,4.1324,4.1324,4.1324,4.1324,4.1324,4.1324,4.1324,4.1324,4.1324,4.1324,4.1324,4.1324,4.1324,4.1324,4.1324,4.1324,4.1533,4.1762,4.1845,4.2503,4.2829,4.2533,4.2819,4.2867,4.2555,4.3184,4.3444,4.306,4.3396,4.3586,4.3586,4.3993,4.4181,4.4181,4.4602,4.5155,4.5895,4.5895,4.5895,4.5895,4.5895,4.5895,4.5895,4.5895,4.5895,3.694,0.0,3.8139,3.96,4.0989,0.0,4.1376,4.1275,4.1275,4.1275,4.2861,4.4217,4.4317,4.4418,4.4518,4.4593,4.502,4.5522,4.5907,4.6243,4.6974,4.8626,4.7947,4.8083,4.9742,4.7514,4.6286,4.6987,4.4729,4.3189,4.2891,4.266,4.1932,4.0551,4.0899,4.0701,3.9697,4.0249,4.0249,3.9697,4.0149,4.0149,3.9697,3.9929,4.0185,4.044,4.044,4.0694,4.1123,4.0643,4.0643,4.0795,4.0593,4.0517,4.0542,4.0744,4.0846,4.0846,4.1047,4.1224,4.1198,4.1198,4.1274,4.1324,4.1324,4.1324,4.1324,4.1324,4.1324,4.1324,4.1324,4.1324,4.1324,4.1324,4.1324,4.1324,4.1324,4.1324,4.1324,4.1324,4.1324,4.1324,4.1324,4.1716,4.1899,4.1507,4.1768,4.1925,4.1638,4.2031,4.2202,4.1636,4.2704,4.3188,4.2445,4.2982,4.3341,4.3232,4.3328,4.3423,4.3423,4.3539,4.4247,4.5685,4.5685,4.573,4.5895,4.5895,4.5895,4.5895,4.5895,4.5895,3.6483,0.0,3.853,0.0,4.0255,4.1081,0.0,0.0,4.1275,4.1275,4.1957,4.269,4.3112,4.3589,4.4066,4.4543,4.4694,4.5041,4.5856,4.5362,4.5591,4.7397,4.6559,4.5965,4.6238,4.5831,4.5126,4.407,4.3422,4.2816,4.2338,4.1354,4.0752,4.0526,4.0601,4.0325,3.9697,4.0249,4.0249,3.9697,3.9772,3.9772,3.9697,3.9749,3.9878,4.0134,4.0134,4.0338,4.0593,4.0542,4.0491,4.0542,4.0517,4.0517,4.0517,4.0542,4.0542,4.0542,4.0618,4.0744,4.0946,4.0946,4.1097,4.1324,4.1324,4.1324,4.1324,4.1324,4.1324,4.1324,4.1324,4.1324,4.1324,4.1324,4.1324,4.1324,4.1324,4.1324,4.1324,4.1324,4.1324,4.1324,4.1324,4.1376,4.1559,4.1977,4.169,4.1768,4.2683,4.2446,4.2392,4.2735,4.2943,4.2836,4.2285,4.2334,4.2174,4.1623,4.2262,4.2652,4.2652,4.328,4.4012,4.4851,4.4851,4.5201,4.5895,4.5895,4.5895,4.5895,4.5895,4.5895,3.6771,3.7629,3.8624,0.0,4.0005,4.0661,4.0632,4.0611,4.0564,4.0423,4.0601,4.1028,4.1907,4.2258,4.261,4.3162,4.3489,4.386,4.4255,4.4251,4.4554,4.5535,4.4723,4.4476,4.5532,4.483,4.4233,4.3944,4.3473,4.275,4.1731,4.153,4.1003,4.0074,4.035,4.0249,3.9697,3.9923,3.9923,3.9697,3.9697,3.9697,3.9697,3.9697,3.9826,4.0083,3.9929,4.0083,4.0466,4.0211,4.0134,4.0236,4.0083,4.0057,4.0057,4.0236,4.0287,4.0287,4.044,4.0593,4.0694,4.0694,4.0846,4.1097,4.1097,4.1147,4.1324,4.1324,4.1324,4.1324,4.1324,4.1324,4.1324,4.1324,4.1324,4.1324,4.1324,4.1324,4.1324,4.1324,4.1324,4.1324,4.1324,4.1585,4.1873,4.2185,4.2213,4.2448,4.2971,4.2788,4.2735,4.2997,4.2735,4.2448,4.2238,4.1873,4.1585,4.1324,4.1647,4.1845,4.1845,4.2115,4.2701,4.3444,4.4294,4.511,4.5895,4.5895,4.5895,4.5895,4.5895,4.5895,0.0,0.0,3.7931,3.864,3.9384,4.0045,0.0,0.0,3.991,3.9792,3.9746,3.9948,4.0777,4.0974,4.1304,4.1856,4.2283,4.261,4.2816,4.3112,4.3568,4.3929,4.3406,4.3528,4.4827,4.3913,4.3422,4.3756,4.3194,4.2351,4.1178,4.1379,4.0978,3.9747,4.0099,4.0099,3.9697,3.9697,3.9697,3.9697,3.9697,3.9697,3.9697,3.9697,3.98,3.9981,3.98,3.9955,4.0262,3.9852,3.9826,3.9981,3.98,3.9697,3.9749,3.9929,3.9981,4.0032,4.0236,4.0338,4.0389,4.0389,4.0593,4.0795,4.0795,4.0946,4.1097,4.1174,4.1198,4.1198,4.1274,4.1324,4.1324,4.1324,4.1428,4.1507,4.135,4.1324,4.1324,4.1324,4.1428,4.1533,4.1533,4.2004,4.2448,4.263,4.284,4.3075,4.3415,4.3337,4.3284,4.3441,4.3075,4.2709,4.2396,4.2134,4.1768,4.135,4.1455,4.1455,4.1324,4.1324,4.1696,4.2457,4.3539,4.4602,4.5595,4.5776,4.5895,4.5895,4.5895,4.5895,0.0,3.4944,0.0,3.7421,3.8181,0.0,0.0,0.0,3.9484,3.9982,3.9892,3.9722,3.9772,4.0199,4.0752,4.125,4.1351,4.1605,4.2187,4.2288,4.2489,4.3022,4.3042,4.3042,4.3123,4.3042,4.2816,4.2338,4.1731,4.1178,4.0601,4.0099,3.9772,3.9697,3.9722,3.9722,3.9697,3.9697,3.9697,3.9697,3.9697,3.9697,3.9697,3.9697,3.9697,3.9749,3.9697,3.9697,3.9749,3.9697,3.9697,3.9749,3.9697,3.9697,3.9697,3.9749,3.9749,3.9749,3.9749,3.9878,4.0134,4.0134,4.0287,4.0491,4.0491,4.0542,4.0593,4.0846,4.0946,4.0997,4.1198,4.1324,4.1324,4.1324,4.1742,4.1977,4.1428,4.1324,4.1324,4.1324,4.1742,4.2159,4.2159,4.2605,4.3154,4.3702,4.3337,4.3415,4.4459,4.4173,4.4042,4.4591,4.4617,4.4147,4.3075,4.3441,4.3049,4.1402,4.1821,4.1873,4.1324,4.1324,4.162,4.2355,4.2528,4.3328,4.4741,4.5549,4.5895,4.5895,4.5895,4.5895,0.0,0.0,0.0,3.7094,3.7746,3.8306,3.8989,3.9222,3.921,3.9082,3.9262,3.949,3.9697,3.9848,4.0174,4.0727,4.0802,4.1128,4.2087,4.2213,4.2414,4.2911,4.2986,4.2986,4.2986,4.2715,4.2414,4.2213,4.1656,4.105,4.0551,4.0325,4.0049,3.9697,3.9697,3.9697,3.9697,3.9697,3.9697,3.9697,3.9697,3.9697,3.9697,3.9697,3.9697,3.9697,3.9697,3.9697,3.9697,3.9697,3.9697,3.9697,3.9697,3.9697,3.9697,3.9697,3.9697,3.9697,3.9697,3.9749,3.9826,3.9826,4.0032,4.0236,4.0236,4.0338,4.0491,4.0593,4.0643,4.0643,4.0744,4.0896,4.1201,4.1718,4.2004,4.2264,4.2369,4.2422,4.2291,4.1925,4.2317,4.2709,4.2709,4.2892,4.3206,4.3781,4.3702,4.3859,4.4563,4.4539,4.4487,4.4696,4.4382,4.4016,4.3598,4.3075,4.2683,4.2422,4.2265,4.2239,4.2396,4.2056,4.1999,4.2275,4.2373,4.2964,4.3993,4.4275,4.4648,4.511,4.511,4.5413,3.4318,0.0,0.0,0.0,0.0,3.7593,3.8113,3.8489,3.8624,3.863,3.8958,3.9362,3.9645,3.9697,3.9823,4.0174,4.0249,4.0626,4.1731,4.1731,4.1957,4.2861,4.2811,4.2816,4.2961,4.2539,4.2137,4.1882,4.1379,4.0827,4.0275,4.0249,4.0074,3.9697,3.9697,3.9697,3.9697,3.9697,3.9697,3.9697,3.9697,3.9697,3.9697,3.9697,3.9697,3.9697,3.9697,3.9697,3.9697,3.9697,3.9697,3.9697,3.9697,3.9697,3.9697,3.9697,3.9697,3.9697,3.9697,3.9697,3.9697,3.9697,3.9826,3.9981,3.9981,4.0083,4.0262,4.0338,4.0338,4.0389,4.0466,4.0643,4.0976,4.1957,4.2293,4.2501,4.3023,4.3049,4.2918,4.2526,4.2918,4.331,4.331,4.3467,4.3729,4.4095,4.4173,4.4304,4.467,4.4668,4.4668,4.4668,4.4565,4.4304,4.3912,4.3546,4.3232,4.3023,4.284,4.2814,4.3023,4.2474,4.2211,4.2211,4.211,4.2284,4.2846,4.3375,4.3851,4.4322,4.4518,4.4912,0.0,0.0,0.0,0.0,0.0,0.0,3.7685,3.775,3.7792,3.8589,3.9025,3.9362,3.9645,3.9697,3.9697,3.9697,3.9697,4.0074,4.11,4.0824,4.1153,4.276,4.2539,4.2439,4.2936,4.2539,4.1932,4.1326,4.0774,4.0275,3.9722,3.9697,3.9697,3.9697,3.9697,3.9697,3.9697,3.9697,3.9697,3.9697,3.9697,3.9697,3.9697,3.9697,3.9697,3.9697,3.9697,3.9697,3.9697,3.9697,3.9697,3.9697,3.9697,3.9697,3.9697,3.9697,3.9697,3.9697,3.9697,3.9697,3.9697,3.9697,3.9697,3.9697,3.9697,3.9697,3.9749,4.0032,4.0083,4.0134,4.0415,4.0542,4.0824,4.1926,4.2446,4.276,4.3329,4.323,4.3075,4.3049,4.352,4.3885,4.3885,4.4356,4.4668,4.4668,4.4668,4.4668,4.4668,4.4668,4.4668,4.4668,4.519,4.514,4.399,4.4931,4.4853,4.318,4.3572,4.3624,4.3101,4.2526,4.2264,4.2264,4.1664,4.1376,4.135,4.2798,4.3539,4.3566,4.4222,4.4498,3.338,0.0,0.0,0.0,0.0,0.0,3.6218,3.6509,3.688,3.728,3.7954,3.8605,3.9287,3.9594,3.9697,3.9697,3.9697,3.9948,4.0651,4.0953,4.143,4.2338,4.2665,4.2811,4.2961,4.2539,4.1932,4.1326,4.0774,4.0275,3.9722,3.9697,3.9697,3.9697,3.9697,3.9697,3.9697,3.9697,3.9697,3.9697,3.9697,3.9697,3.9697,3.9697,3.9697,3.9697,3.9697,3.9697,3.9697,3.9697,3.9697,3.9697,3.9697,3.9697,3.9697,3.9697,3.9697,3.9697,3.9697,3.9697,3.9697,3.9697,3.9697,3.9697,3.9697,3.9697,3.9749,3.98,3.98,3.9979,4.0642,4.1076,4.1637,4.2565,4.2986,4.3355,4.395,4.4167,4.4121,4.3729,4.4095,4.4487,4.4487,4.4617,4.4668,4.4668,4.4668,4.4668,4.4668,4.4668,4.4668,4.4668,4.4824,4.4853,4.4513,4.4408,4.433,4.4251,4.4016,4.399,4.4251,4.3702,4.3441,4.3441,4.284,4.2552,4.2552,4.2142,4.2213,4.2771,4.398,4.4698,0.0,0.0,0.0,0.0,0.0,0.0,3.5785,3.5833,3.5932,3.6668,3.7185,3.7831,3.863,3.8935,3.9113,3.9492,3.9542,3.9769,4.0398,4.0802,4.1279,4.2112,4.2489,4.2766,4.2961,4.2539,4.2062,4.1706,4.0953,4.0275,3.9722,3.9697,3.9697,3.9697,3.9697,3.9697,3.9697,3.9697,3.9697,3.9697,3.9697,3.9697,3.9697,3.9697,3.9697,3.9697,3.9697,3.9697,3.9697,3.9697,3.9697,3.9697,3.9697,3.9697,3.9697,3.9697,3.9645,3.9542,3.9645,3.9645,3.9542,3.9645,3.9697,3.9697,3.9697,3.9697,3.9747,3.9973,4.0199,4.045,4.0963,4.1291,4.1724,4.2522,4.2866,4.321,4.3775,4.4148,4.4318,4.425,4.4487,4.4668,4.4668,4.4668,4.4668,4.4668,4.4668,4.4668,4.4668,4.4668,4.4668,4.4668,4.4957,4.4955,4.4748,4.4643,4.4643,4.4722,4.4408,4.4382,4.4722,4.4173,4.3912,4.3912,4.331,4.3023,4.3023,4.2343,4.2389,4.303,4.359,4.4169,0.0,0.0,0.0,0.0,3.4462,0.0,3.5833,3.5497,3.5209,3.6351,3.6644,3.6964,3.7831,3.803,3.8329,3.9057,3.9283,3.9611,4.0297,4.0526,4.0978,4.2011,4.2213,4.2489,4.2936,4.259,4.2263,4.2213,4.1128,4.0275,3.9722,3.9697,3.9697,3.9697,3.9697,3.9697,3.9697,3.9697,3.9697,3.9697,3.9697,3.9697,3.9697,3.9697,3.9697,3.9697,3.9697,3.9697,3.9697,3.9697,3.9697,3.9697,3.9697,3.9697,3.9697,3.9697,3.9542,3.9362,3.9645,3.9542,3.9362,3.9645,3.9697,3.9697,3.9697,3.9697,3.9798,4.035,4.0953,4.1376,4.1376,4.1426,4.1656,4.2187,4.2478,4.2823,4.328,4.3653,4.4064,4.4531,4.4613,4.4668,4.4668,4.4668,4.4668,4.4668,4.4668,4.4668,4.4668,4.4668,4.4668,4.4668,4.5218,4.5268,4.4774,4.5164,4.5297,4.4694,4.4668,4.4668,4.4668,4.4225,4.3964,4.3964,4.3467,4.3206,4.3206,4.3075,4.331,4.3912,4.3363,4.3415,0.0,0.0,0.0,3.4775,3.5064,0.0,3.4583,3.4943,3.54,3.5233,3.572,3.6354,3.6939,3.7606,3.8155,3.8304,3.9253,3.991,3.9846,4.0626,4.12,4.148,4.2283,4.2861,4.2961,4.2942,4.269,4.2238,4.1128,4.0275,3.9722,3.9697,3.9697,3.9697,3.9697,3.9697,3.9697,3.9697,3.9697,3.9697,3.9697,3.9697,3.9697,3.9697,3.9697,3.9697,3.9697,3.9697,3.9697,3.9697,3.9697,3.9697,3.9697,3.9697,3.9697,3.9697,3.9697,3.9645,3.9697,3.9645,3.9645,3.9697,3.9697,3.9697,3.9697,3.9697,3.9798,4.035,4.1229,4.2037,4.2037,4.2308,4.2685,4.2785,4.3033,4.328,4.3381,4.3653,4.3955,4.4064,4.4203,4.4476,4.4668,4.4668,4.4668,4.4668,4.4668,4.4668,4.4668,4.4668,4.4668,4.4668,4.4826,4.4853,4.4694,4.4826,4.4853,4.4694,4.4668,4.4668,4.4668,4.4617,4.4565,4.4565,4.446,4.4408,4.4408,4.3467,4.331,4.3912,4.3755,4.4016,0.0,0.0,0.0,3.516,3.4967,0.0,0.0,3.4583,3.4703,3.4438,3.4945,3.5598,3.613,3.6545,3.7061,3.7751,3.8548,3.9127,3.9206,4.0718,4.1756,4.1756,4.2484,4.2986,4.2986,4.2986,4.2635,4.1806,4.1229,4.0576,3.9747,3.9697,3.9697,3.9697,3.9697,3.9697,3.9697,3.9697,3.9697,3.9697,3.9697,3.9697,3.9697,3.9697,3.9697,3.9697,3.9697,3.9697,3.9697,3.9697,3.9697,3.9697,3.9697,3.9697,3.9697,3.9697,3.9645,3.9542,3.9645,3.9594,3.9517,3.9645,3.9697,3.9697,3.9697,4.0074,4.0576,4.0852,4.1731,4.2615,4.2615,4.2816,4.2986,4.2986,4.3073,4.3184,4.3184,4.3321,4.3487,4.3598,4.3738,4.3958,4.4258,4.4422,4.4531,4.4531,4.4613,4.4668,4.4668,4.4668,4.4668,4.4668,4.4668,4.4668,4.4668,4.4668,4.4668,4.4668,4.4668,4.4668,4.4668,4.5009,4.5111,4.5111,4.5111,4.5111,4.5111,4.4591,4.4304,4.4304,4.4304,4.446,0.0,0.0,3.56,3.5693,3.5113,3.4583,0.0,0.0,0.0,3.403,3.4414,3.4919,3.54,3.5545,3.598,3.72,3.7822,3.8347,3.8834,4.0595,4.1873,4.1927,4.2384,4.271,4.2811,4.271,4.2333,4.1555,4.125,4.0802,3.9898,3.9747,3.9697,3.9697,3.9697,3.9697,3.9697,3.9697,3.9697,3.9697,3.9697,3.9697,3.9697,3.9697,3.9697,3.9697,3.9697,3.9697,3.9697,3.9697,3.9697,3.9697,3.9697,3.9697,3.9697,3.9697,3.9594,3.9413,3.9645,3.9542,3.9413,3.9645,3.9697,3.9722,3.9823,4.0551,4.13,4.1455,4.2208,4.2986,4.2986,4.2986,4.2986,4.2986,4.2986,4.2986,4.2986,4.2986,4.3073,4.3295,4.3351,4.3462,4.3844,4.4094,4.4313,4.4313,4.4531,4.472,4.4824,4.485,4.485,4.485,4.485,4.4853,4.4694,4.4668,4.4668,4.4668,4.4826,4.485,4.485,4.548,4.5741,4.5581,4.5581,4.5503,4.5454,4.5454,4.5216,4.485,4.485,4.485,0.0,0.0,3.6898,3.6209,3.6255,3.6035,3.4438,0.0,3.5184,3.4198,0.0,3.4799,3.4847,0.0,0.0,3.6437,3.7612,3.8648,3.9184,4.009,4.0755,4.1051,4.1318,4.1706,4.2263,4.1806,4.1681,4.2087,4.1153,4.0551,4.0425,3.9948,3.9697,3.9697,3.9697,3.9697,3.9697,3.9697,3.9697,3.9697,3.9697,3.9697,3.9697,3.9697,3.9697,3.9697,3.9697,3.9697,3.9697,3.9697,3.9697,3.9697,3.9697,3.9697,3.9697,3.9697,3.9697,3.9645,3.9697,3.9697,3.9645,3.9697,3.9697,3.9798,4.0275,4.0852,4.1376,4.1932,4.2509,4.2986,4.2986,4.2986,4.2986,4.2986,4.2986,4.2986,4.2986,4.2986,4.3042,4.3042,4.3017,4.3209,4.3789,4.4094,4.4313,4.4313,4.4531,4.4905,4.5454,4.5477,4.5477,4.5477,4.5477,4.5268,4.4774,4.4668,4.4668,4.4668,4.5164,4.5477,4.5477,4.6081,4.6159,4.5637,4.5581,4.5375,4.4826,4.4826,4.5007,4.5477,4.5477,4.5477,0.0,0.0,3.6974,3.6775,3.6406,3.5868,3.4896,3.5042,3.509,3.4198,0.0,0.0,0.0,0.0,0.0,0.0,3.6642,3.7229,3.7764,3.8344,3.9195,4.0749,4.0624,4.05,4.0964,4.1171,4.1304,4.1204,4.0777,4.0375,4.0049,3.9823,3.9697,3.9697,3.9697,3.9697,3.9697,3.9697,3.9697,3.9697,3.9697,3.9697,3.9697,3.9697,3.9697,3.9697,3.9697,3.9697,3.9697,3.9697,3.9697,3.9697,3.9697,3.9697,3.9697,3.9697,3.9697,3.9697,3.9697,3.9697,3.9697,3.9697,3.9697,3.9747,3.9973,4.0651,4.1401,4.2062,4.2615,4.3062,4.3363,4.3212,4.2986,4.2986,4.2986,4.2986,4.2986,4.2986,4.2986,4.2986,4.3237,4.352,4.3801,4.4082,4.4305,4.4305,4.4785,4.5262,4.5494,4.5715,4.5827,4.5827,4.5995,4.6029,4.5767,4.5741,4.5741,4.5741,4.5976,4.6264,4.6547,4.6525,4.6369,4.6133,4.6107,4.5846,4.519,4.519,4.5558,4.6107,4.5428,4.5114,3.7942,3.7692,3.7344,3.7294,3.6727,3.6013,3.5429,3.5429,3.5381,3.4799,3.509,0.0,0.0,0.0,3.5549,3.6134,0.0,3.6327,3.686,3.7014,3.7806,3.9816,3.9791,3.9745,4.0078,4.0567,4.0724,4.0526,4.0375,4.0124,3.9722,3.9697,3.9697,3.9697,3.9697,3.9697,3.9697,3.9697,3.9697,3.9697,3.9697,3.9697,3.9697,3.9697,3.9697,3.9697,3.9697,3.9697,3.9697,3.9645,3.9594,3.9594,3.949,3.9413,3.949,3.9645,3.9697,3.9697,3.9697,3.9697,3.9697,3.9697,3.9798,3.9948,4.0099,4.0802,4.1681,4.2233,4.2715,4.3062,4.3463,4.3263,4.2986,4.2986,4.2986,4.2986,4.2986,4.3087,4.3212,4.3212,4.3639,4.4016,4.4016,4.42,4.4376,4.4472,4.4928,4.5437,4.5859,4.6114,4.6254,4.6368,4.6595,4.6656,4.6499,4.6342,4.6369,4.6682,4.6708,4.7048,4.778,4.7414,4.7048,4.6708,4.6708,4.6421,4.5872,4.5872,4.6081,4.6447,4.5454,4.5085,3.8693,3.8818,3.8642,3.7792,3.7568,3.7171,3.589,3.5965,3.6333,3.6333,3.68,3.7219,3.7219,0.0,0.0,0.0,0.0,0.0,0.0,3.6723,3.678,3.7694,3.8674,3.9506,4.0028,3.9892,3.9948,4.0475,4.0023,3.9722,3.9697,3.9697,3.9697,3.9697,3.9697,3.9697,3.9697,3.9697,3.9697,3.9697,3.9697,3.9697,3.9697,3.9697,3.9697,3.9697,3.9697,3.9697,3.9697,3.9413,3.931,3.9258,3.8945,3.8841,3.8893,3.949,3.9697,3.9697,3.9697,3.9697,3.9697,3.9697,4.0049,4.0601,4.1075,4.1681,4.2288,4.2785,4.2961,4.2986,4.3011,4.2986,4.2986,4.2986,4.2986,4.2986,4.2986,4.3388,4.3765,4.3765,4.4217,4.4593,4.4593,4.4453,4.4503,4.4979,4.4877,4.5212,4.6662,4.6849,4.6965,4.7252,4.7252,4.7074,4.6525,4.5976,4.6133,4.7174,4.7252,4.7832,4.8982,4.9008,4.846,4.7278,4.7252,4.7022,4.6447,4.6447,4.6447,4.6473,4.5872,4.613,3.9371,3.9145,3.8818,3.8517,3.7916,3.7167,3.6551,3.6503,3.6603,3.6432,3.6899,3.7318,3.7318,0.0,0.0,0.0,0.0,0.0,0.0,3.5789,3.5569,3.6249,3.7631,3.8553,3.8751,3.8835,3.8991,3.9421,3.8894,3.8743,3.912,3.9145,3.932,3.9697,3.9697,3.9697,3.9697,3.9697,3.9697,3.9697,3.9697,3.9697,3.9697,3.9697,3.9697,3.9697,3.9517,3.9438,3.9413,3.9102,3.8945,3.8945,3.8841,3.8788,3.8841,3.905,3.9258,3.9465,3.9645,3.9697,3.9697,3.9697,4.0074,4.0551,4.0752,4.143,4.2313,4.2866,4.2986,4.3137,4.3865,4.379,4.3614,4.3991,4.379,4.3514,4.3514,4.3664,4.379,4.379,4.4568,4.5196,4.5196,4.5162,4.517,4.5347,4.5582,4.5952,4.6451,4.6679,4.6882,4.6975,4.7302,4.7516,4.7308,4.7664,4.8224,4.8982,4.8695,4.8669,4.9061,4.8695,4.812,4.7304,4.7278,4.7048,4.6473,4.6473,4.6682,4.7022,4.6473,4.6395,3.9447,3.9145,3.8919,3.8919,3.8366,3.7664,3.7317,3.7368,3.7468,3.7295,3.7741,3.8164,3.8164,3.8062,0.0,0.0,0.0,0.0,0.0,3.5306,3.5304,3.5833,3.6937,3.7682,0.0,0.0,3.8365,3.8291,3.8115,0.0,3.8542,3.8768,3.912,3.9672,3.9697,3.9697,3.9697,3.9697,3.9697,3.9697,3.9697,3.9697,3.9697,3.9697,3.9697,3.9697,3.9542,3.9413,3.9413,3.9102,3.8998,3.8945,3.8736,3.8684,3.8684,3.8736,3.8998,3.931,3.9362,3.9542,3.9722,3.9819,4.0245,4.0852,4.1028,4.1731,4.259,4.2886,4.2986,4.3137,4.384,4.3915,4.389,4.4242,4.4217,4.4091,4.4091,4.4242,4.4468,4.4644,4.5271,4.5899,4.6276,4.62,4.6075,4.6075,4.605,4.6285,4.6924,4.7066,4.7221,4.7545,4.7906,4.7965,4.7552,4.8247,4.8919,4.9403,4.9273,4.9359,4.9688,4.9322,4.893,4.8564,4.8355,4.8068,4.7702,4.7492,4.7492,4.7623,4.7257,4.7074]}]]